[[{"header":{"parameterUnit":"m.s-1","parameterCategory":1,"la1":30.6,"la2":28.766,"lo1":-90.7593,"lo2":-88.6598,"dx":0.0162,"dy":0.0183,"nx":116,"ny":114,"refTime":"2023-02-14T06:00:00:Z","depth":0,"parameterNumber":2,"parameterNumberName":"U-component_of_WINDS"},"data":[0.0,0.0,0.0,0.0,0.0,0.0,0.0,0.0,0.0,0.0,0.0,0.0,0.0,0.0,0.0,0.0,0.0,0.0,0.0,0.0,0.0,0.0,0.0,0.0,0.0,0.0,0.0,0.0,0.0,0.0,0.0,0.0,0.0,0.0,0.0,0.0,0.0,0.0,0.0,0.0,0.0,0.0,0.0,0.0,0.0,0.0,0.0,0.0,0.0,0.0,0.0,0.0,0.0,0.0,0.0,0.0,0.0,0.0,0.0,0.0,0.0,0.0,0.0,0.0,0.0,0.0,0.0,0.0,0.0,0.0,0.0,0.0,0.0,0.0,0.0,0.0,0.0,0.0,0.0,0.0,0.0,0.0,0.0,0.0,0.0,0.0,0.0,0.0,0.0,0.0,0.0,0.0,0.0,0.0,0.0,0.0,0.0,0.0,0.0,0.0,0.0,0.0,0.0,0.0,0.0,0.0,0.0,0.0,0.0,0.0,0.0,0.0,0.0,0.0,0.0,0.0,0.0,0.0,0.0,0.0,0.0,0.0,0.0,0.0,0.0,0.0,0.0,0.0,0.0,0.0,0.0,0.0,0.0,0.0,0.0,0.0,0.0,0.0,0.0,0.0,0.0,0.0,0.0,0.0,0.0,0.0,0.0,0.0,0.0,0.0,0.0,0.0,0.0,0.0,0.0,0.0,0.0,0.0,0.0,0.0,0.0,0.0,0.0,0.0,0.0,0.0,0.0,0.0,0.0,0.0,0.0,0.0,0.0,0.0,0.0,0.0,0.0,0.0,0.0,0.0,0.0,0.0,0.0,0.0,0.0,0.0,0.0,0.0,0.0,0.0,0.0,0.0,0.0,0.0,0.0,0.0,0.0,0.0,0.0,0.0,0.0,0.0,0.0,0.0,0.0,0.0,0.0,0.0,0.0,0.0,0.0,0.0,0.0,0.0,0.0,0.0,0.0,0.0,0.0,0.0,0.0,0.0,0.0,0.0,0.0,0.0,0.0,0.0,0.0,0.0,0.0,0.0,0.0,0.0,0.0,0.0,0.0,0.0,0.0,0.0,0.0,0.0,0.0,0.0,0.0,0.0,0.0,0.0,0.0,0.0,0.0,0.0,0.0,0.0,0.0,0.0,0.0,0.0,0.0,0.0,0.0,0.0,0.0,0.0,0.0,0.0,0.0,0.0,0.0,0.0,0.0,0.0,0.0,0.0,0.0,0.0,0.0,0.0,0.0,0.0,0.0,0.0,0.0,0.0,0.0,0.0,0.0,0.0,0.0,0.0,0.0,0.0,0.0,0.0,0.0,0.0,0.0,0.0,0.0,0.0,0.0,0.0,0.0,0.0,0.0,0.0,0.0,0.0,0.0,0.0,0.0,0.0,0.0,0.0,0.0,0.0,0.0,0.0,0.0,0.0,0.0,0.0,0.0,0.0,0.0,0.0,0.0,0.0,0.0,0.0,0.0,0.0,0.0,0.0,0.0,0.0,0.0,0.0,0.0,0.0,0.0,0.0,0.0,0.0,0.0,0.0,0.0,0.0,0.0,0.0,0.0,0.0,0.0,0.0,0.0,0.0,0.0,0.0,0.0,0.0,0.0,0.0,0.0,0.0,0.0,0.0,0.0,0.0,0.0,0.0,0.0,0.0,0.0,0.0,0.0,0.0,0.0,0.0,0.0,0.0,0.0,0.0,0.0,0.0,0.0,0.0,0.0,0.0,0.0,0.0,0.0,0.0,0.0,0.0,0.0,0.0,0.0,0.0,0.0,0.0,0.0,0.0,0.0,0.0,0.0,0.0,0.0,0.0,0.0,0.0,0.0,0.0,0.0,0.0,0.0,0.0,0.0,0.0,0.0,0.0,0.0,0.0,0.0,0.0,0.0,0.0,0.0,0.0,0.0,0.0,0.0,0.0,0.0,0.0,0.0,0.0,0.0,0.0,0.0,0.0,0.0,0.0,0.0,0.0,0.0,0.0,0.0,0.0,0.0,0.0,0.0,0.0,0.0,0.0,0.0,0.0,0.0,0.0,0.0,0.0,0.0,0.0,0.0,0.0,0.0,0.0,0.0,0.0,0.0,0.0,0.0,0.0,0.0,0.0,0.0,0.0,0.0,0.0,0.0,0.0,0.0,0.0,0.0,0.0,0.0,0.0,0.0,0.0,0.0,0.0,0.0,0.0,0.0,0.0,0.0,0.0,0.0,0.0,0.0,0.0,0.0,0.0,0.0,0.0,0.0,0.0,0.0,0.0,0.0,0.0,0.0,0.0,0.0,0.0,0.0,0.0,0.0,0.0,0.0,0.0,0.0,0.0,0.0,0.0,0.0,0.0,0.0,0.0,0.0,0.0,0.0,0.0,0.0,0.0,0.0,0.0,0.0,0.0,0.0,0.0,0.0,0.0,0.0,0.0,0.0,0.0,0.0,0.0,0.0,0.0,0.0,0.0,0.0,0.0,0.0,0.0,0.0,0.0,0.0,0.0,0.0,0.0,0.0,0.0,0.0,0.0,0.0,0.0,0.0,0.0,0.0,0.0,0.0,0.0,0.0,0.0,0.0,0.0,0.0,0.0,0.0,0.0,0.0,0.0,0.0,0.0,0.0,0.0,0.0,0.0,0.0,0.0,0.0,0.0,0.0,0.0,0.0,0.0,0.0,0.0,0.0,0.0,0.0,0.0,0.0,0.0,0.0,0.0,0.0,0.0,0.0,0.0,0.0,0.0,0.0,0.0,0.0,0.0,0.0,0.0,0.0,0.0,0.0,0.0,0.0,0.0,0.0,0.0,0.0,0.0,0.0,0.0,0.0,0.0,0.0,0.0,0.0,0.0,0.0,0.0,0.0,0.0,0.0,0.0,0.0,0.0,0.0,0.0,0.0,0.0,0.0,0.0,0.0,0.0,0.0,0.0,0.0,0.0,0.0,0.0,0.0,0.0,0.0,0.0,0.0,0.0,0.0,0.0,0.0,0.0,0.0,0.0,0.0,0.0,0.0,0.0,0.0,0.0,0.0,0.0,0.0,0.0,0.0,0.0,0.0,0.0,0.0,0.0,0.0,0.0,0.0,0.0,0.0,0.0,0.0,0.0,0.0,0.0,0.0,0.0,0.0,0.0,0.0,0.0,0.0,0.0,0.0,0.0,0.0,0.0,0.0,0.0,0.0,0.0,0.0,0.0,0.0,0.0,0.0,0.0,0.0,0.0,0.0,0.0,0.0,0.0,0.0,0.0,0.0,0.0,0.0,0.0,0.0,0.0,0.0,0.0,0.0,0.0,0.0,0.0,0.0,0.0,0.0,0.0,0.0,0.0,0.0,0.0,0.0,0.0,0.0,0.0,0.0,0.0,0.0,0.0,0.0,0.0,0.0,0.0,0.0,0.0,0.0,0.0,0.0,0.0,0.0,0.0,0.0,0.0,0.0,0.0,0.0,0.0,0.0,0.0,0.0,0.0,0.0,0.0,0.0,0.0,0.0,0.0,0.0,0.0,0.0,0.0,0.0,0.0,0.0,0.0,0.0,0.0,0.0,0.0,0.0,0.0,0.0,0.0,0.0,0.0,0.0,0.0,0.0,0.0,0.0,0.0,0.0,0.0,0.0,0.0,0.0,0.0,0.0,0.0,0.0,0.0,0.0,0.0,0.0,0.0,0.0,0.0,0.0,0.0,0.0,0.0,0.0,0.0,0.0,0.0,0.0,0.0,0.0,0.0,0.0,0.0,0.0,0.0,0.0,0.0,0.0,0.0,0.0,0.0,0.0,0.0,0.0,0.0,0.0,0.0,0.0,0.0,0.0,0.0,0.0,0.0,0.0,0.0,0.0,0.0,0.0,0.0,0.0,0.0,0.0,0.0,0.0,0.0,0.0,0.0,0.0,0.0,0.0,0.0,0.0,0.0,0.0,0.0,0.0,0.0,0.0,0.0,0.0,0.0,0.0,0.0,0.0,0.0,0.0,0.0,0.0,0.0,0.0,0.0,0.0,0.0,0.0,0.0,0.0,0.0,0.0,0.0,0.0,0.0,0.0,0.0,0.0,0.0,0.0,0.0,0.0,0.0,0.0,0.0,0.0,0.0,0.0,0.0,0.0,0.0,0.0,0.0,0.0,0.0,0.0,0.0,0.0,0.0,0.0,0.0,0.0,0.0,0.0,0.0,0.0,0.0,0.0,0.0,0.0,0.0,0.0,0.0,0.0,0.0,0.0,0.0,0.0,0.0,0.0,0.0,0.0,0.0,0.0,0.0,0.0,0.0,0.0,0.0,0.0,0.0,0.0,0.0,0.0,0.0,0.0,0.0,0.0,0.0,0.0,0.0,0.0,0.0,0.0,0.0,0.0,0.0,0.0,0.0,0.0,0.0,0.0,0.0,0.0,0.0,0.0,0.0,0.0,0.0,0.0,0.0,0.0,0.0,0.0,0.0,0.0,0.0,0.0,0.0,0.0,0.0,0.0,0.0,0.0,0.0,0.0,0.0,0.0,0.0,0.0,0.0,0.0,0.0,0.0,0.0,0.0,0.0,0.0,0.0,0.0,0.0,0.0,0.0,0.0,0.0,0.0,0.0,0.0,0.0,0.0,0.0,0.0,0.0,0.0,0.0,0.0,0.0,0.0,0.0,0.0,0.0,0.0,0.0,0.0,0.0,0.0,0.0,0.0,0.0,0.0,0.0,0.0,0.0,0.0,0.0,0.0,0.0,0.0,0.0,0.0,0.0,0.0,0.0,0.0,0.0,0.0,0.0,0.0,0.0,0.0,0.0,0.0,0.0,0.0,0.0,0.0,0.0,0.0,0.0,0.0,0.0,0.0,0.0,0.0,0.0,0.0,0.0,0.0,0.0,0.0,0.0,0.0,0.0,0.0,0.0,0.0,0.0,0.0,0.0,0.0,0.0,0.0,0.0,0.0,0.0,0.0,0.0,0.0,0.0,0.0,0.0,0.0,0.0,0.0,0.0,0.0,0.0,0.0,0.0,0.0,0.0,0.0,0.0,0.0,0.0,0.0,0.0,0.0,0.0,0.0,0.0,0.0,0.0,0.0,0.0,0.0,0.0,0.0,0.0,0.0,0.0,0.0,0.0,0.0,0.0,0.0,0.0,0.0,0.0,0.0,0.0,0.0,0.0,0.0,0.0,0.0,0.0,0.0,0.0,0.0,0.0,0.0,0.0,0.0,0.0,0.0,0.0,0.0,0.0,0.0,0.0,0.0,0.0,0.0,0.0,0.0,0.0,0.0,0.0,0.0,0.0,0.0,0.0,0.0,0.0,0.0,0.0,0.0,0.0,0.0,0.0,0.0,0.0,0.0,0.0,0.0,0.0,0.0,0.0,0.0,0.0,0.0,0.0,0.0,0.0,0.0,0.0,0.0,0.0,0.0,0.0,0.0,0.0,0.0,0.0,0.0,0.0,0.0,0.0,0.0,0.0,0.0,0.0,0.0,0.0,0.0,0.0,0.0,0.0,0.0,0.0,0.0,0.0,0.0,0.0,0.0,0.0,0.0,0.0,0.0,0.0,0.0,0.0,0.0,0.0,0.0,0.0,0.0,0.0,0.0,0.0,0.0,0.0,0.0,0.0,0.0,0.0,0.0,0.0,0.0,0.0,0.0,0.0,0.0,0.0,0.0,0.0,0.0,0.0,0.0,0.0,0.0,0.0,0.0,0.0,0.0,0.0,0.0,0.0,0.0,0.0,0.0,0.0,0.0,0.0,0.0,0.0,0.0,0.0,0.0,0.0,0.0,0.0,0.0,0.0,0.0,0.0,0.0,0.0,0.0,0.0,0.0,0.0,0.0,0.0,0.0,0.0,0.0,0.0,0.0,0.0,0.0,0.0,0.0,0.0,0.0,0.0,0.0,0.0,0.0,0.0,0.0,0.0,0.0,0.0,0.0,0.0,0.0,0.0,0.0,0.0,0.0,0.0,0.0,0.0,0.0,0.0,0.0,0.0,0.0,0.0,0.0,0.0,0.0,0.0,0.0,0.0,0.0,0.0,0.0,0.0,0.0,0.0,0.0,0.0,0.0,0.0,0.0,0.0,0.0,0.0,0.0,0.0,0.0,0.0,0.0,0.0,0.0,0.0,0.0,0.0,0.0,0.0,0.0,0.0,0.0,0.0,0.0,0.0,-2.3552,0.0,0.0,0.0,0.0,0.0,0.0,0.0,0.0,0.0,0.0,0.0,0.0,0.0,0.0,0.0,0.0,0.0,0.0,0.0,0.0,0.0,0.0,0.0,0.0,0.0,0.0,0.0,0.0,0.0,0.0,0.0,0.0,0.0,0.0,0.0,0.0,0.0,0.0,0.0,0.0,0.0,0.0,0.0,0.0,0.0,0.0,0.0,0.0,0.0,0.0,0.0,0.0,0.0,0.0,0.0,0.0,0.0,0.0,0.0,0.0,0.0,0.0,0.0,0.0,0.0,0.0,0.0,0.0,0.0,0.0,0.0,0.0,0.0,0.0,0.0,0.0,0.0,0.0,0.0,0.0,0.0,0.0,0.0,0.0,0.0,0.0,0.0,0.0,0.0,0.0,0.0,0.0,0.0,0.0,0.0,0.0,0.0,0.0,0.0,0.0,0.0,0.0,0.0,0.0,0.0,0.0,0.0,0.0,0.0,0.0,0.0,0.0,0.0,0.0,0.0,0.0,-2.4406,0.0,0.0,0.0,0.0,0.0,0.0,0.0,0.0,0.0,0.0,0.0,0.0,0.0,0.0,0.0,0.0,0.0,0.0,0.0,0.0,0.0,0.0,0.0,0.0,0.0,0.0,0.0,0.0,0.0,0.0,0.0,0.0,0.0,0.0,0.0,0.0,0.0,0.0,0.0,0.0,0.0,0.0,0.0,0.0,0.0,0.0,0.0,0.0,0.0,0.0,0.0,0.0,0.0,0.0,0.0,0.0,0.0,0.0,0.0,0.0,0.0,0.0,0.0,0.0,0.0,0.0,0.0,0.0,0.0,0.0,0.0,0.0,0.0,0.0,0.0,0.0,0.0,0.0,0.0,0.0,0.0,0.0,0.0,0.0,0.0,0.0,0.0,0.0,0.0,0.0,0.0,0.0,0.0,0.0,0.0,0.0,0.0,0.0,0.0,0.0,0.0,0.0,0.0,0.0,0.0,0.0,0.0,0.0,-3.4391,-3.5045,-3.6678,-3.5741,-3.4323,-3.2364,-2.931,-2.6696,-2.4757,0.0,0.0,0.0,0.0,0.0,0.0,0.0,0.0,0.0,0.0,0.0,0.0,0.0,0.0,0.0,0.0,0.0,0.0,0.0,0.0,0.0,0.0,0.0,0.0,0.0,0.0,0.0,0.0,0.0,0.0,0.0,0.0,0.0,0.0,0.0,0.0,0.0,0.0,0.0,0.0,0.0,0.0,0.0,0.0,0.0,0.0,0.0,0.0,0.0,0.0,0.0,0.0,0.0,0.0,0.0,0.0,0.0,0.0,0.0,0.0,0.0,0.0,0.0,0.0,0.0,0.0,0.0,0.0,0.0,0.0,0.0,0.0,0.0,0.0,0.0,0.0,0.0,0.0,0.0,0.0,0.0,0.0,0.0,0.0,0.0,0.0,0.0,-3.3237,-3.3867,0.0,0.0,0.0,0.0,0.0,0.0,0.0,0.0,0.0,0.0,0.0,0.0,0.0,0.0,-3.6577,-3.8293,-3.871,-3.7863,-3.8681,-3.8919,-3.861,-3.7596,-3.6972,-3.6579,-3.4594,0.0,-2.7469,-2.6138,0.0,0.0,0.0,0.0,0.0,0.0,0.0,0.0,0.0,0.0,0.0,0.0,0.0,0.0,0.0,0.0,0.0,0.0,0.0,0.0,0.0,0.0,0.0,0.0,0.0,0.0,0.0,0.0,0.0,0.0,0.0,0.0,0.0,0.0,0.0,0.0,0.0,0.0,0.0,0.0,0.0,0.0,0.0,0.0,0.0,0.0,0.0,0.0,0.0,0.0,0.0,0.0,0.0,0.0,0.0,0.0,0.0,0.0,0.0,0.0,0.0,0.0,0.0,0.0,0.0,0.0,0.0,0.0,0.0,0.0,0.0,0.0,0.0,0.0,0.0,0.0,0.0,0.0,0.0,0.0,0.0,0.0,0.0,0.0,0.0,-3.4518,-3.525,-3.4053,-3.5489,-3.6178,0.0,0.0,0.0,0.0,0.0,0.0,0.0,0.0,0.0,-3.8661,-3.905,-3.92,-3.908,-4.0337,-4.1025,-4.1205,-4.1655,-4.2119,-4.2533,-4.2099,-4.1336,-4.0275,-3.849,-3.5838,-3.2602,-2.9631,-2.8197,-2.772,0.0,0.0,0.0,0.0,-2.5937,-2.6289,0.0,0.0,0.0,0.0,0.0,0.0,0.0,0.0,0.0,0.0,0.0,0.0,0.0,0.0,0.0,0.0,0.0,0.0,0.0,0.0,0.0,0.0,0.0,0.0,0.0,0.0,0.0,0.0,0.0,0.0,0.0,0.0,0.0,0.0,0.0,0.0,0.0,0.0,0.0,0.0,0.0,0.0,0.0,0.0,0.0,0.0,0.0,0.0,0.0,0.0,0.0,0.0,0.0,0.0,0.0,0.0,0.0,0.0,0.0,0.0,0.0,0.0,0.0,0.0,0.0,0.0,0.0,0.0,0.0,0.0,0.0,0.0,0.0,0.0,0.0,0.0,0.0,-3.5818,-3.6327,-3.4023,-3.6207,-3.7285,0.0,0.0,0.0,0.0,0.0,0.0,-3.911,-4.0098,-4.0816,-4.1145,-4.1624,-4.1803,-4.1654,-4.2312,-4.315,-4.4137,-4.4287,-4.4855,-4.5813,-4.5633,-4.4739,-4.3193,-4.1096,-3.9152,-3.7037,-3.2777,-3.0532,-2.9615,-2.8574,-2.8222,-2.8273,-2.7907,-2.8033,-2.8423,0.0,0.0,0.0,0.0,0.0,0.0,0.0,0.0,0.0,0.0,0.0,0.0,0.0,0.0,0.0,0.0,0.0,0.0,0.0,0.0,0.0,0.0,0.0,0.0,0.0,0.0,0.0,0.0,0.0,0.0,0.0,0.0,0.0,0.0,0.0,0.0,0.0,0.0,0.0,0.0,0.0,0.0,0.0,0.0,0.0,0.0,0.0,0.0,0.0,0.0,0.0,0.0,0.0,0.0,0.0,0.0,0.0,0.0,0.0,0.0,0.0,0.0,0.0,0.0,0.0,0.0,0.0,0.0,0.0,0.0,0.0,0.0,0.0,0.0,0.0,0.0,0.0,0.0,0.0,-3.4623,-3.7315,0.0,0.0,0.0,0.0,-3.9134,-3.9828,-4.0516,-4.1242,-4.1294,-4.1893,-4.311,-4.317,-4.3808,-4.5035,-4.5723,-4.607,-4.613,-4.68,-4.713,-4.7189,-4.6561,-4.5861,-4.4977,-4.2049,-4.0355,-3.9337,-3.4202,-3.2089,-3.1938,-3.0859,-3.0758,-3.1185,-3.116,-3.116,-3.111,0.0,0.0,0.0,0.0,0.0,0.0,0.0,0.0,0.0,0.0,0.0,0.0,0.0,0.0,0.0,0.0,0.0,0.0,0.0,0.0,0.0,0.0,0.0,0.0,0.0,0.0,0.0,0.0,0.0,0.0,0.0,0.0,0.0,0.0,0.0,0.0,0.0,0.0,0.0,0.0,0.0,0.0,0.0,0.0,0.0,0.0,0.0,0.0,0.0,0.0,0.0,0.0,0.0,0.0,0.0,0.0,0.0,0.0,0.0,0.0,0.0,0.0,0.0,0.0,0.0,0.0,0.0,0.0,0.0,0.0,0.0,0.0,0.0,0.0,0.0,0.0,0.0,0.0,0.0,-3.9026,-4.1085,0.0,0.0,-3.9768,-4.0127,-4.1235,-4.1572,-4.2351,-4.3808,-4.4317,-4.4975,-4.5873,-4.5873,-4.6112,-4.6591,-4.683,-4.695,-4.695,-4.7189,-4.7309,-4.7309,-4.707,-4.6352,-4.5191,-4.3387,-4.1574,-3.9672,-3.7087,-3.5135,-3.3721,-3.2616,-3.2315,-3.2466,-3.2466,-3.2466,-3.2441,0.0,0.0,0.0,0.0,0.0,0.0,0.0,0.0,0.0,0.0,0.0,0.0,0.0,0.0,0.0,0.0,0.0,0.0,0.0,0.0,0.0,0.0,0.0,0.0,0.0,0.0,0.0,0.0,0.0,0.0,0.0,0.0,0.0,0.0,0.0,0.0,0.0,0.0,0.0,0.0,0.0,0.0,-4.0574,0.0,0.0,0.0,0.0,0.0,0.0,0.0,0.0,0.0,0.0,0.0,0.0,0.0,0.0,0.0,0.0,0.0,0.0,0.0,0.0,0.0,0.0,0.0,0.0,0.0,0.0,0.0,0.0,0.0,0.0,0.0,0.0,0.0,0.0,0.0,-4.2192,-4.1811,-4.3838,-4.4706,-4.3219,-4.2641,-4.2851,-4.3998,-4.4267,-4.4956,-4.6232,-4.6741,-4.707,-4.7309,-4.7309,-4.7309,-4.7309,-4.7309,-4.7309,-4.7309,-4.7309,-4.7309,-4.7309,-4.7309,-4.6711,-4.555,-4.4194,-4.2567,-4.0684,-3.9309,-3.7595,-3.5768,-3.4628,-3.4218,-3.4218,-3.4218,-3.4218,-3.4167,0.0,0.0,0.0,0.0,0.0,0.0,0.0,0.0,0.0,0.0,0.0,0.0,0.0,0.0,0.0,0.0,0.0,0.0,0.0,0.0,0.0,0.0,0.0,0.0,0.0,0.0,0.0,0.0,0.0,0.0,0.0,0.0,0.0,0.0,0.0,0.0,0.0,0.0,0.0,0.0,0.0,0.0,-4.4068,0.0,0.0,0.0,0.0,0.0,0.0,0.0,0.0,0.0,0.0,0.0,0.0,0.0,0.0,0.0,0.0,0.0,0.0,0.0,0.0,0.0,0.0,0.0,0.0,0.0,0.0,0.0,0.0,0.0,0.0,0.0,0.0,0.0,-3.8691,-4.1983,-4.3988,-4.283,-4.5484,-4.6681,-4.4706,-4.5622,-4.6681,-4.7339,-4.7967,-4.8327,-4.8356,-4.8297,-4.7997,-4.7369,-4.7309,-4.7309,-4.7309,-4.7309,-4.7309,-4.7309,-4.7309,-4.7309,-4.7309,-4.7309,-4.692,-4.6177,-4.4412,-4.3228,-4.2408,-4.0699,-3.9227,-3.8017,-3.6896,-3.6452,-3.6405,-3.6405,-3.638,-3.6204,0.0,0.0,0.0,0.0,0.0,0.0,0.0,0.0,0.0,0.0,0.0,0.0,0.0,0.0,0.0,0.0,0.0,0.0,0.0,0.0,0.0,0.0,0.0,0.0,0.0,0.0,0.0,0.0,0.0,0.0,0.0,0.0,0.0,0.0,0.0,0.0,0.0,0.0,0.0,0.0,0.0,0.0,-4.5555,0.0,0.0,0.0,0.0,0.0,0.0,0.0,0.0,0.0,0.0,0.0,0.0,0.0,0.0,0.0,0.0,0.0,0.0,0.0,0.0,0.0,0.0,0.0,0.0,0.0,0.0,0.0,0.0,0.0,0.0,0.0,0.0,-4.3599,-4.3419,-4.5574,-4.7578,-4.8656,-4.9583,-4.9912,-4.9374,-4.8805,-4.8716,-4.9329,-4.9164,-4.9194,-4.9628,-4.8805,-4.8207,-4.8027,-4.7549,-4.7309,-4.7309,-4.7309,-4.7309,-4.7309,-4.7309,-4.7309,-4.7309,-4.7309,-4.6681,-4.5574,-4.5072,-4.3717,-4.1846,-4.1339,-4.0447,-3.9271,-3.8107,-3.715,-3.6405,-3.6405,-3.5855,-3.5077,0.0,0.0,0.0,0.0,0.0,0.0,0.0,0.0,0.0,0.0,0.0,0.0,0.0,0.0,0.0,0.0,0.0,0.0,0.0,0.0,0.0,0.0,0.0,0.0,0.0,0.0,0.0,0.0,0.0,0.0,0.0,0.0,0.0,0.0,0.0,0.0,0.0,0.0,0.0,0.0,0.0,0.0,-5.0022,-4.6356,-4.5039,-4.4864,-4.3302,-4.2988,-4.296,-4.0619,0.0,0.0,0.0,0.0,0.0,0.0,0.0,0.0,0.0,0.0,0.0,0.0,0.0,0.0,0.0,0.0,0.0,0.0,0.0,0.0,0.0,0.0,0.0,0.0,-4.4706,-4.704,-4.8416,-4.8895,-4.9733,-5.1439,-5.1379,-5.1439,-5.1977,-5.084,-5.0361,-5.102,-5.0451,-5.0122,-5.0196,-4.9254,-4.8566,-4.8297,-4.7638,-4.7309,-4.7309,-4.7309,-4.7309,-4.7309,-4.7309,-4.7309,-4.7309,-4.7309,-4.689,0.0,-4.5843,-4.4721,-4.3106,-4.2315,-4.1185,0.0,0.0,0.0,0.0,0.0,-3.5655,-3.4675,0.0,0.0,0.0,0.0,0.0,0.0,0.0,0.0,0.0,0.0,0.0,0.0,0.0,0.0,0.0,0.0,0.0,0.0,0.0,0.0,0.0,0.0,0.0,0.0,0.0,0.0,0.0,0.0,0.0,0.0,0.0,0.0,0.0,0.0,0.0,0.0,0.0,0.0,0.0,0.0,0.0,0.0,-5.5337,-5.0628,-4.9631,-5.039,-4.7092,-4.5601,-4.4917,-4.3153,0.0,0.0,0.0,0.0,0.0,0.0,0.0,0.0,0.0,0.0,0.0,0.0,0.0,0.0,0.0,0.0,0.0,0.0,0.0,0.0,0.0,0.0,0.0,0.0,-4.7788,-4.9883,-5.2875,-5.1798,-5.1092,-5.2396,-5.1947,-5.1977,-5.3084,-5.2067,-5.1528,-5.2067,-5.1558,-5.0883,-5.0226,0.0,0.0,0.0,0.0,-4.7309,-4.7309,-4.7309,-4.7309,-4.7309,-4.7309,-4.7309,-4.7309,-4.7309,-4.7279,-4.716,-4.6591,-4.5848,-4.4965,-4.342,-4.1739,-3.9929,-3.8469,-3.788,-3.7815,-3.6756,-3.5655,-3.468,0.0,0.0,0.0,0.0,0.0,0.0,0.0,0.0,0.0,0.0,0.0,0.0,0.0,0.0,0.0,0.0,0.0,0.0,0.0,0.0,0.0,0.0,0.0,0.0,0.0,0.0,0.0,0.0,0.0,0.0,0.0,0.0,0.0,0.0,0.0,0.0,0.0,0.0,0.0,0.0,0.0,0.0,-5.4734,-5.4035,-5.1326,-4.7876,-4.7639,-4.773,-4.7628,-4.5023,-4.5019,-4.5834,-4.3958,0.0,0.0,0.0,0.0,0.0,0.0,0.0,0.0,0.0,0.0,0.0,0.0,0.0,0.0,0.0,0.0,0.0,0.0,0.0,0.0,-4.6688,-5.0002,-5.2636,-5.3832,-5.3683,-5.3743,-5.4521,-5.4042,-5.3503,-5.3204,-5.2486,-5.1858,-5.1439,-5.1289,-5.0883,-5.0226,-4.9613,0.0,-4.8297,-4.7638,-4.7309,-4.7309,-4.7309,-4.7309,-4.7309,0.0,0.0,-4.7309,-4.7309,-4.701,-4.6501,-4.6339,-4.5322,-4.3776,-4.3909,-4.2901,-4.1,-3.7952,-3.6709,-3.6709,-3.6499,-3.5655,-3.468,0.0,0.0,0.0,0.0,0.0,0.0,0.0,0.0,0.0,0.0,0.0,0.0,0.0,0.0,0.0,0.0,0.0,0.0,0.0,0.0,0.0,0.0,0.0,0.0,0.0,0.0,0.0,0.0,0.0,0.0,0.0,0.0,0.0,0.0,0.0,0.0,0.0,0.0,0.0,0.0,0.0,0.0,-5.6282,-5.6539,-5.5436,-5.3606,-5.1896,-5.1671,-5.183,-4.9849,-4.9055,-4.8666,-4.7757,-4.5448,-4.2866,0.0,0.0,0.0,0.0,0.0,0.0,0.0,0.0,0.0,0.0,0.0,0.0,0.0,0.0,-3.8803,0.0,0.0,-4.679,-5.019,-5.2426,-5.4042,-5.5059,-5.491,-5.482,-5.5149,-5.4012,-5.3473,-5.4132,-5.2995,-5.2187,-5.2187,-5.1887,-5.1439,-5.0734,-4.9793,-4.9179,-4.882,-4.7818,-4.7309,-4.7309,-4.7309,-4.7309,-4.7309,-4.7309,-4.7309,-4.7309,-4.7309,-4.713,-4.68,-4.68,-4.5695,-4.3803,-4.2263,-4.0935,-3.9683,-3.7926,-3.7243,-3.7196,-3.6615,-3.583,-3.5082,0.0,0.0,0.0,0.0,0.0,0.0,0.0,0.0,0.0,0.0,0.0,0.0,0.0,0.0,0.0,0.0,0.0,0.0,0.0,0.0,0.0,0.0,0.0,0.0,0.0,0.0,0.0,0.0,0.0,0.0,0.0,0.0,0.0,0.0,0.0,0.0,0.0,0.0,0.0,0.0,0.0,0.0,-5.8946,-5.8634,-5.8918,-5.9115,-5.6396,-5.5298,-5.5058,-5.4121,-5.2162,-5.0111,-5.0436,-4.8709,-4.6,-4.3245,-4.2335,0.0,0.0,0.0,0.0,0.0,0.0,0.0,0.0,0.0,-3.6088,-3.7537,-3.8769,-4.0812,-4.4696,-4.6624,-4.9017,-5.3496,-5.4311,-5.476,-5.5837,-5.5418,-5.4999,-5.4999,-5.3683,-5.3354,-5.485,-5.3414,-5.2546,-5.2965,-5.2366,-5.1708,-5.105,-4.9912,-4.9239,-4.912,-4.7938,-4.7309,-4.7309,-4.7309,-4.7309,-4.7309,-4.7309,-4.7309,-4.7309,-4.7309,-4.7309,-4.7309,-4.7019,-4.5991,-4.4129,-4.106,-3.9409,-3.8917,-3.881,-3.8756,-3.8577,-3.7243,-3.6193,-3.5508,0.0,0.0,0.0,0.0,0.0,0.0,0.0,0.0,0.0,0.0,0.0,0.0,0.0,0.0,0.0,0.0,0.0,0.0,0.0,0.0,0.0,0.0,0.0,0.0,0.0,0.0,0.0,0.0,0.0,0.0,0.0,0.0,0.0,0.0,0.0,0.0,0.0,0.0,0.0,0.0,0.0,0.0,-6.238,-6.081,-5.8453,-5.6149,-5.7599,-5.6392,-5.4144,-5.4006,-5.2789,-5.1549,-5.3038,-5.0539,-4.6925,-4.6382,0.0,-3.8819,-3.6858,-3.5141,0.0,-3.5152,-3.5031,-3.5604,0.0,0.0,-3.9472,-4.0581,-4.2095,-4.3836,-4.5894,-4.8069,-5.0614,-5.3704,-5.47,-5.5119,-5.5269,-5.473,-5.4311,-5.4311,-5.464,-5.473,-5.4371,-5.3563,-5.2845,-5.2336,-5.1708,-5.1003,-5.0345,-4.9673,-4.906,-4.8416,-4.7698,-4.7309,-4.7309,-4.7309,-4.7309,-4.7309,-4.7309,-4.7309,-4.7309,-4.7309,-4.7309,-4.7266,-4.6121,-4.5133,-4.432,-4.331,-4.2494,-4.1867,-4.1411,-4.1211,-4.093,-3.8711,-3.6882,-3.5508,0.0,0.0,0.0,0.0,0.0,0.0,0.0,0.0,0.0,0.0,0.0,0.0,0.0,0.0,0.0,0.0,0.0,0.0,0.0,0.0,0.0,0.0,0.0,0.0,0.0,0.0,0.0,0.0,0.0,0.0,0.0,0.0,0.0,0.0,0.0,0.0,0.0,0.0,0.0,0.0,0.0,0.0,-6.1497,-6.1028,-5.8664,-5.5631,-5.6507,-5.5253,0.0,0.0,-5.2463,-5.0844,-5.3303,-5.0674,-4.6556,-4.6223,-4.3072,0.0,-3.7753,0.0,0.0,0.0,-3.7061,-3.8115,-4.0074,-4.0601,-4.0953,-4.2057,-4.3614,-4.5648,-4.8515,-5.0353,-5.2403,0.0,-5.5807,-5.5777,-5.5777,-5.488,-5.4072,-5.3653,-5.3503,-5.3503,-5.3593,-5.2995,-5.2486,-5.2217,-5.1947,-5.1498,-5.084,-4.9823,-4.9179,-4.891,-4.7848,-4.7309,-4.7309,-4.7309,-4.7309,-4.7309,-4.7309,-4.7309,-4.7309,-4.7309,-4.7309,-4.7222,-4.5958,-4.5043,-4.4438,-4.3409,-4.2817,-4.2509,-4.2292,-4.1946,-4.1337,-3.8979,-3.7658,-3.6928,0.0,0.0,0.0,0.0,0.0,0.0,0.0,0.0,0.0,0.0,0.0,0.0,0.0,0.0,0.0,0.0,0.0,0.0,0.0,0.0,0.0,0.0,0.0,0.0,0.0,0.0,0.0,0.0,0.0,0.0,0.0,0.0,0.0,0.0,0.0,0.0,0.0,0.0,0.0,0.0,0.0,0.0,-6.0647,-6.0357,-5.8065,-5.4923,-5.4923,-5.3419,0.0,0.0,-5.0527,-4.8729,-5.1252,-4.9284,-4.59,-4.5271,-4.2492,-3.9296,-3.7761,0.0,0.0,-3.7638,-3.9019,-4.0375,-4.1229,-4.1856,-4.2559,-4.3664,-4.4995,-4.7008,-5.046,-5.1736,0.0,-5.6562,-5.6436,-5.5897,-5.5897,-5.461,-5.3414,-5.2725,-5.1738,-5.1379,-5.2037,-5.2007,-5.1917,-5.1917,-5.1917,-5.1708,-5.1259,-4.9972,-4.9299,-4.9299,-4.7997,-4.7309,-4.7309,-4.7309,-4.7309,-4.7309,-4.7309,-4.7309,-4.7309,-4.7309,-4.7309,-4.7266,-4.6299,-4.5518,-4.4742,-4.4003,-4.345,-4.3142,-4.3267,-4.3044,-4.2386,-4.0355,-3.9186,-3.8424,0.0,0.0,0.0,0.0,0.0,0.0,0.0,0.0,0.0,0.0,0.0,0.0,0.0,0.0,0.0,0.0,0.0,0.0,0.0,0.0,0.0,0.0,0.0,0.0,0.0,0.0,0.0,0.0,0.0,0.0,0.0,0.0,0.0,0.0,0.0,0.0,0.0,0.0,0.0,0.0,0.0,0.0,-6.0898,-5.8925,-5.6115,-5.3275,-5.3275,0.0,0.0,0.0,-4.6371,-4.5192,-4.649,-4.62,0.0,-4.4157,-4.079,0.0,0.0,0.0,-3.6935,-3.9069,-4.045,-4.1652,-4.3338,-4.4116,-4.4844,-4.5974,-4.6677,-4.8,-5.1115,-5.1652,-5.2826,-5.6473,-5.6047,-5.5209,-5.5209,-5.3503,-5.2007,-5.1349,-4.9583,-4.8656,0.0,-5.0511,-5.1259,-5.1259,-5.1259,-5.1229,-5.1229,-4.9972,-4.9299,-4.9299,-4.7997,-4.7309,-4.7309,-4.7309,-4.7309,-4.7309,-4.7309,-4.7309,-4.7309,-4.7309,-4.7309,-4.7309,-4.7266,-4.6521,-4.5421,-4.5973,-4.5461,-4.4396,-4.498,-4.5203,-4.5049,-4.3877,-4.192,-3.9667,0.0,0.0,0.0,0.0,0.0,0.0,0.0,0.0,0.0,0.0,0.0,0.0,0.0,0.0,0.0,0.0,0.0,0.0,0.0,0.0,0.0,0.0,0.0,0.0,0.0,0.0,0.0,0.0,0.0,0.0,0.0,0.0,0.0,0.0,0.0,0.0,0.0,0.0,0.0,0.0,0.0,0.0,-5.886,-5.6436,-5.3473,-5.0407,0.0,0.0,0.0,0.0,0.0,0.0,-4.3351,0.0,0.0,-3.8792,0.0,0.0,0.0,0.0,-4.0147,-4.2409,-4.3539,-4.4443,-4.5723,-4.5598,-4.5196,-4.5196,-4.5045,-4.5668,-4.8162,-4.9358,-5.0935,-5.403,-5.488,-5.5029,-5.461,-5.3952,-5.2785,-5.0764,-4.9927,0.0,0.0,0.0,0.0,-5.0465,-5.0524,-5.0704,-5.1199,-4.9972,-4.9299,-4.9299,-4.7997,-4.7309,-4.7309,-4.7309,-4.7309,-4.7309,-4.7309,-4.7309,-4.7309,-4.7309,-4.7309,-4.7309,-4.7309,-4.7062,-4.6682,-4.6867,-4.6423,-4.5707,-4.5883,-4.5693,-4.5263,-4.4857,-4.4225,-4.3166,0.0,0.0,0.0,0.0,0.0,0.0,0.0,0.0,0.0,0.0,0.0,0.0,0.0,0.0,0.0,0.0,0.0,0.0,0.0,0.0,0.0,0.0,0.0,0.0,0.0,0.0,0.0,0.0,0.0,0.0,0.0,0.0,0.0,0.0,0.0,0.0,0.0,0.0,0.0,0.0,0.0,0.0,-5.5688,-5.2815,-4.9972,0.0,0.0,0.0,0.0,0.0,0.0,0.0,0.0,0.0,0.0,0.0,0.0,0.0,0.0,-4.0978,-4.293,-4.502,-4.5949,-4.6502,-4.7004,-4.6276,-4.5271,-4.4493,-4.3669,-4.3743,-4.5755,-4.654,-4.8063,-5.1583,-5.2456,-5.2995,-5.3743,-5.3025,-5.1977,-5.0704,-4.9717,0.0,0.0,0.0,0.0,-4.9793,-5.0076,-5.0465,-5.1169,-5.0212,-4.9494,-4.9329,-4.8207,-4.7549,-4.7309,-4.7309,-4.7309,-4.7309,-4.7309,-4.7309,-4.7309,-4.7309,-4.7309,-4.7309,-4.7309,-4.7309,-4.7309,-4.7309,-4.707,-4.6681,-4.6681,-4.6411,-4.6022,-4.6022,-4.5873,-4.5263,0.0,0.0,0.0,0.0,0.0,0.0,0.0,0.0,0.0,0.0,0.0,0.0,0.0,0.0,0.0,0.0,0.0,0.0,0.0,0.0,0.0,0.0,0.0,0.0,0.0,0.0,0.0,0.0,0.0,0.0,0.0,0.0,0.0,0.0,0.0,0.0,0.0,0.0,0.0,0.0,0.0,0.0,-5.1558,-4.8356,0.0,0.0,0.0,0.0,0.0,0.0,0.0,0.0,0.0,0.0,0.0,0.0,0.0,-4.0311,-4.1983,-4.3589,-4.5271,-4.6842,-4.7631,-4.7807,-4.723,-4.62,-4.502,-4.379,-4.2511,-4.2071,0.0,0.0,-4.4527,-4.925,-4.9194,-4.9583,-5.2785,-5.1156,-5.0002,0.0,0.0,0.0,0.0,0.0,0.0,-4.9269,0.0,-5.0435,-5.1169,-5.0554,-4.9942,-4.9389,-4.8656,-4.7997,-4.7369,-4.7309,-4.7309,-4.7309,-4.7309,-4.7309,-4.7309,-4.7309,-4.7309,-4.7309,-4.7309,-4.7309,-4.7309,-4.7309,-4.7309,-4.7309,-4.7309,-4.7309,-4.7309,-4.7309,-4.692,-4.6003,0.0,0.0,0.0,0.0,0.0,0.0,0.0,0.0,0.0,0.0,0.0,0.0,0.0,0.0,0.0,0.0,0.0,0.0,0.0,0.0,0.0,0.0,0.0,0.0,0.0,0.0,0.0,0.0,0.0,0.0,0.0,0.0,0.0,0.0,0.0,0.0,0.0,0.0,0.0,0.0,0.0,0.0,-4.7608,0.0,0.0,0.0,0.0,0.0,0.0,0.0,0.0,0.0,0.0,0.0,-3.8626,0.0,0.0,-4.2645,-4.4709,-4.6753,-4.8535,-4.9364,-4.9063,-4.8209,-4.6828,-4.502,-4.2961,-4.0601,-3.8894,-3.8032,0.0,0.0,0.0,-4.7332,-4.9823,0.0,-5.3683,-5.3803,0.0,0.0,0.0,-5.1229,-5.0092,-4.9628,0.0,0.0,-4.9703,-5.0002,-5.1169,-5.0554,-5.0106,-5.0002,-4.8865,-4.8207,-4.8027,-4.7549,-4.7309,-4.7309,-4.7309,-4.7309,-4.7309,-4.7309,-4.7309,-4.7309,-4.7309,-4.7309,-4.7309,-4.7309,-4.7309,-4.7309,-4.7309,-4.7309,-4.7309,-4.7309,-4.7189,-4.6877,0.0,0.0,0.0,0.0,0.0,0.0,0.0,0.0,0.0,0.0,0.0,0.0,0.0,0.0,0.0,0.0,0.0,0.0,0.0,0.0,0.0,0.0,0.0,0.0,0.0,0.0,0.0,0.0,0.0,0.0,0.0,0.0,0.0,0.0,0.0,0.0,0.0,0.0,0.0,0.0,0.0,0.0,0.0,0.0,0.0,0.0,0.0,0.0,0.0,0.0,0.0,-3.9216,-3.9384,-3.9649,-4.0283,-4.2185,0.0,-4.492,-4.7154,-4.9012,-5.0343,-5.0393,-4.959,-4.8159,-4.5748,-4.3489,-4.1053,-3.804,-3.655,0.0,0.0,0.0,0.0,0.0,0.0,0.0,-5.2965,-5.3384,-5.3354,0.0,-5.2875,0.0,-5.1618,-5.1259,-5.1109,0.0,-5.0212,-5.0152,-5.1169,-5.0823,-5.0495,-5.0196,-4.9523,-4.8865,-4.8297,-4.7638,-4.7309,-4.7309,-4.7309,-4.7309,-4.7309,-4.7309,-4.7309,-4.7309,0.0,-4.7309,-4.7309,-4.7309,-4.7309,-4.7309,-4.7309,-4.7309,-4.7309,-4.7309,-4.7309,-4.7249,0.0,0.0,0.0,0.0,0.0,0.0,0.0,0.0,0.0,0.0,0.0,0.0,0.0,0.0,0.0,0.0,0.0,0.0,0.0,0.0,0.0,0.0,0.0,0.0,0.0,0.0,0.0,0.0,0.0,0.0,0.0,0.0,0.0,0.0,0.0,0.0,0.0,0.0,0.0,0.0,0.0,0.0,0.0,0.0,0.0,0.0,0.0,0.0,0.0,0.0,-3.9303,-3.977,-4.0569,-4.1438,-4.2479,-4.4669,-4.6024,-4.7305,-4.9364,-5.0695,-5.1348,-5.0695,-4.959,-4.7757,-4.4367,-4.1806,-3.922,-3.5759,0.0,0.0,-3.4947,0.0,-3.9354,-4.2871,0.0,-4.7878,-5.1887,-5.1977,-5.2306,-5.4132,-5.3294,-5.2785,-5.3264,-5.2815,-5.2396,-5.2217,-5.1139,-5.0674,-5.1199,-5.1229,-5.0853,-5.0226,-5.0106,-4.9553,-4.8416,-4.7668,-4.7339,-4.7429,-4.7339,-4.7309,-4.7309,-4.7309,-4.7309,-4.7309,0.0,0.0,-4.7309,-4.7309,-4.7309,-4.7309,-4.7309,-4.7309,-4.7309,-4.7309,-4.7309,-4.7309,0.0,0.0,0.0,0.0,0.0,0.0,0.0,0.0,0.0,0.0,0.0,0.0,0.0,0.0,0.0,0.0,0.0,0.0,0.0,0.0,0.0,0.0,0.0,0.0,0.0,0.0,0.0,0.0,0.0,0.0,0.0,0.0,0.0,0.0,0.0,0.0,0.0,0.0,0.0,0.0,0.0,0.0,0.0,0.0,0.0,0.0,0.0,0.0,0.0,0.0,-4.2628,-4.3691,-4.3313,-4.4508,-4.6416,-4.8209,-4.9188,-4.9992,-5.1322,-5.2151,-5.2402,-5.1373,-4.959,-4.7079,-4.3369,-4.0375,0.0,0.0,0.0,-3.3177,-3.3074,0.0,0.0,-4.3389,0.0,0.0,0.0,0.0,0.0,0.0,0.0,0.0,0.0,0.0,0.0,0.0,0.0,0.0,-5.1229,-5.1229,-5.0853,-5.0226,-4.9733,-4.9359,-4.9149,-4.7908,-4.7578,-4.8117,-4.7549,-4.7309,-4.7309,-4.7309,-4.7309,-4.7309,0.0,0.0,-4.7309,-4.7309,-4.7309,-4.7309,-4.7309,-4.7309,-4.7309,-4.7309,-4.7309,-4.7309,0.0,0.0,0.0,0.0,0.0,0.0,0.0,0.0,0.0,0.0,0.0,0.0,0.0,0.0,0.0,0.0,0.0,0.0,0.0,0.0,0.0,0.0,0.0,0.0,0.0,0.0,0.0,0.0,0.0,0.0,0.0,0.0,0.0,0.0,0.0,0.0,0.0,0.0,0.0,0.0,0.0,0.0,0.0,0.0,0.0,0.0,0.0,0.0,0.0,0.0,-4.3217,-4.5818,-4.617,-4.724,-4.8686,-5.0067,-5.067,-5.1122,-5.2226,-5.2729,-5.2653,-5.1548,-4.9163,-4.5974,-4.1831,0.0,0.0,0.0,0.0,-3.2808,-3.3234,0.0,0.0,0.0,0.0,0.0,0.0,0.0,0.0,0.0,0.0,0.0,0.0,0.0,0.0,0.0,0.0,0.0,-5.1259,-5.1229,-5.1079,-5.0704,-5.0122,-4.9613,-4.9299,-4.8297,-4.7967,-4.8267,-4.7608,-4.7489,-4.7818,-4.7459,-4.7309,-4.7309,-4.7309,0.0,-4.7309,-4.7309,-4.7309,-4.7309,-4.7309,-4.7309,-4.7309,-4.7309,-4.7309,-4.7309,0.0,0.0,0.0,0.0,0.0,0.0,0.0,0.0,0.0,0.0,0.0,0.0,0.0,0.0,0.0,0.0,0.0,0.0,0.0,0.0,0.0,0.0,0.0,0.0,0.0,0.0,0.0,0.0,0.0,0.0,0.0,0.0,0.0,0.0,0.0,0.0,0.0,0.0,0.0,0.0,0.0,0.0,0.0,0.0,0.0,0.0,0.0,0.0,0.0,0.0,-4.2667,-4.5562,-4.7026,-4.8845,-5.0436,-5.0966,-5.1509,-5.2117,-5.2722,-5.2929,-5.2628,-5.1398,-4.8586,-4.497,-4.0526,-3.6935,0.0,0.0,0.0,-3.2876,-3.3842,0.0,0.0,0.0,0.0,0.0,0.0,0.0,0.0,0.0,0.0,0.0,0.0,0.0,0.0,0.0,0.0,0.0,-5.1289,-5.1229,-5.1229,-5.1229,-5.0524,-5.0062,-4.9703,-4.8895,-4.8506,-4.8476,-4.7818,-4.7698,-4.8057,-4.7549,-4.7309,-4.7309,-4.7309,0.0,0.0,-4.7309,-4.7309,-4.7309,-4.7309,-4.7309,-4.7309,-4.7309,-4.7309,-4.7309,0.0,0.0,0.0,0.0,0.0,0.0,0.0,0.0,0.0,0.0,0.0,0.0,0.0,0.0,0.0,0.0,0.0,0.0,0.0,0.0,0.0,0.0,0.0,0.0,0.0,0.0,0.0,0.0,0.0,0.0,0.0,0.0,0.0,0.0,0.0,0.0,0.0,0.0,0.0,0.0,0.0,0.0,0.0,0.0,0.0,0.0,0.0,0.0,0.0,0.0,0.0,-4.1071,-4.3517,-4.8215,-5.2496,-5.1023,0.0,0.0,-5.3139,-5.2929,-5.2528,-5.0896,-4.8008,-4.4392,-3.9948,0.0,0.0,0.0,-3.1947,-3.2876,-3.3842,-3.4986,0.0,0.0,0.0,0.0,0.0,0.0,0.0,0.0,0.0,0.0,0.0,0.0,0.0,0.0,0.0,0.0,0.0,-5.1229,-5.1229,-5.1229,-5.0524,-5.0465,-5.102,-4.9793,-4.9209,-4.9209,-4.8506,-4.7908,-4.7399,-4.7339,-4.7309,-4.7309,0.0,0.0,0.0,-4.7309,-4.7309,-4.7309,-4.7309,-4.7309,-4.7309,-4.7309,-4.7309,-4.7309,0.0,0.0,0.0,0.0,0.0,0.0,0.0,0.0,0.0,0.0,0.0,0.0,0.0,0.0,0.0,0.0,0.0,0.0,0.0,0.0,0.0,0.0,0.0,0.0,0.0,0.0,0.0,0.0,0.0,0.0,0.0,0.0,0.0,0.0,0.0,0.0,0.0,0.0,0.0,0.0,0.0,0.0,0.0,0.0,0.0,0.0,0.0,0.0,0.0,0.0,0.0,0.0,-4.0383,-4.3935,0.0,0.0,-5.1089,-5.2734,-5.3622,-5.4107,-5.3752,-5.1084,-4.7431,-4.3489,-3.9722,0.0,0.0,-3.2176,-3.2343,-3.308,-3.461,-3.5231,-3.6058,0.0,0.0,0.0,0.0,0.0,0.0,0.0,0.0,0.0,0.0,0.0,0.0,0.0,0.0,0.0,0.0,-5.1229,-5.1229,-5.1229,-5.096,-5.0734,-5.0584,-4.9733,-4.9299,-4.9299,-4.8207,-4.7758,-4.7878,-4.7489,-4.7309,-4.7309,0.0,0.0,0.0,-4.7309,-4.7309,-4.7309,-4.7309,-4.7309,-4.7309,-4.7309,-4.7309,-4.7309,0.0,0.0,0.0,0.0,0.0,0.0,0.0,0.0,0.0,0.0,0.0,0.0,0.0,0.0,0.0,0.0,0.0,0.0,0.0,0.0,0.0,0.0,0.0,0.0,0.0,0.0,0.0,0.0,0.0,0.0,0.0,0.0,0.0,0.0,0.0,0.0,0.0,0.0,0.0,0.0,0.0,0.0,0.0,0.0,0.0,0.0,0.0,0.0,0.0,0.0,0.0,0.0,0.0,0.0,0.0,0.0,-4.9522,-5.1954,-5.3662,-5.4981,-5.5161,-5.2074,-4.7735,-4.3435,0.0,0.0,0.0,-3.298,-3.3017,-3.3533,-3.5166,-3.5519,-3.5729,0.0,0.0,0.0,0.0,0.0,0.0,0.0,0.0,0.0,0.0,0.0,0.0,0.0,0.0,0.0,0.0,-5.1229,-5.1229,-5.1229,-5.0973,-5.0674,-5.0196,-4.9583,-4.9209,-4.903,-4.8237,-4.7908,-4.7997,-4.7728,-4.7489,-4.7309,0.0,0.0,0.0,-4.7309,-4.7309,-4.7309,-4.7309,-4.7309,-4.7309,-4.7309,-4.7309,-4.7309,0.0,0.0,0.0,0.0,0.0,0.0,0.0,0.0,0.0,0.0,0.0,0.0,0.0,0.0,0.0,0.0,0.0,0.0,0.0,0.0,0.0,0.0,0.0,0.0,0.0,0.0,0.0,0.0,0.0,0.0,0.0,0.0,0.0,0.0,0.0,0.0,0.0,0.0,0.0,0.0,0.0,0.0,0.0,0.0,0.0,0.0,0.0,0.0,0.0,0.0,0.0,0.0,0.0,0.0,0.0,0.0,-4.8011,-5.2665,-5.3035,-5.5029,-5.639,-5.3964,-4.9357,-4.4592,0.0,0.0,0.0,-3.3965,-3.3979,-3.4279,-3.5326,-3.5519,-3.5729,-3.6387,0.0,0.0,0.0,0.0,0.0,0.0,0.0,0.0,0.0,0.0,0.0,0.0,0.0,0.0,0.0,-5.1229,-5.1229,-5.1229,-5.0554,-5.0196,-5.0196,-4.9583,-4.9,-4.8297,-4.9,-4.8566,-4.7339,-4.7967,-4.7908,0.0,0.0,0.0,0.0,-4.7309,-4.7309,-4.7309,-4.7309,-4.7309,-4.7309,-4.7309,-4.7309,-4.7309,0.0,0.0,0.0,0.0,0.0,0.0,0.0,0.0,0.0,0.0,0.0,0.0,0.0,0.0,0.0,0.0,0.0,0.0,0.0,0.0,0.0,0.0,0.0,0.0,0.0,0.0,0.0,0.0,0.0,0.0,0.0,0.0,0.0,0.0,0.0,0.0,0.0,0.0,0.0,0.0,0.0,0.0,0.0,0.0,0.0,0.0,0.0,0.0,0.0,0.0,0.0,0.0,0.0,0.0,0.0,0.0,0.0,0.0,-4.8509,-5.0009,-5.0444,-4.687,-4.3557,-4.0618,-3.848,0.0,0.0,-3.3905,-3.3979,-3.4312,-3.5326,-3.5519,-3.5848,-3.6956,-3.7135,0.0,0.0,0.0,0.0,0.0,0.0,0.0,0.0,0.0,0.0,0.0,0.0,0.0,0.0,-5.1229,-5.1229,-5.1229,-5.0524,-5.0405,-5.09,-4.9823,-4.9209,-4.9,-4.8716,-4.8147,-4.7309,-4.7519,0.0,0.0,0.0,0.0,0.0,-4.7309,-4.7309,-4.7309,-4.7309,-4.7309,-4.7309,-4.7309,-4.7722,-4.8335,0.0,0.0,0.0,0.0,0.0,0.0,0.0,0.0,0.0,0.0,0.0,0.0,0.0,0.0,0.0,0.0,0.0,0.0,0.0,0.0,0.0,0.0,0.0,0.0,0.0,0.0,0.0,0.0,0.0,0.0,0.0,0.0,0.0,0.0,0.0,0.0,0.0,0.0,0.0,0.0,0.0,0.0,0.0,0.0,0.0,0.0,0.0,0.0,0.0,0.0,0.0,0.0,0.0,0.0,0.0,0.0,0.0,0.0,0.0,-4.7143,-4.7796,-4.4723,-4.1859,0.0,0.0,0.0,0.0,-3.4491,-3.4576,-3.4773,-3.5392,-3.5519,-3.5759,-3.6567,-3.6896,0.0,0.0,0.0,0.0,0.0,0.0,0.0,0.0,0.0,0.0,0.0,0.0,0.0,0.0,0.0,-5.1229,-5.1229,-5.0524,-5.0375,-5.084,-4.9793,-4.9179,-4.894,-4.879,-4.8177,-4.7309,-4.7549,0.0,0.0,0.0,0.0,0.0,-4.7399,-4.7309,-4.7309,-4.7309,-4.7538,-4.7892,-4.7892,-4.8543,-4.9416,0.0,0.0,0.0,0.0,0.0,0.0,0.0,0.0,0.0,0.0,0.0,0.0,0.0,0.0,0.0,0.0,0.0,0.0,0.0,0.0,0.0,0.0,0.0,0.0,0.0,0.0,0.0,0.0,-4.4646,-4.5304,-4.5394,0.0,0.0,0.0,0.0,0.0,0.0,0.0,0.0,0.0,0.0,0.0,0.0,0.0,0.0,0.0,0.0,0.0,0.0,0.0,0.0,0.0,0.0,0.0,0.0,0.0,0.0,0.0,0.0,0.0,0.0,0.0,0.0,0.0,0.0,0.0,0.0,0.0,0.0,-3.5519,-3.5579,-3.5549,-3.5549,-3.5699,-3.6267,0.0,0.0,0.0,0.0,0.0,0.0,0.0,0.0,0.0,0.0,0.0,0.0,0.0,0.0,0.0,-5.1229,-5.1229,-5.0584,-5.0255,-5.0255,-4.9613,-4.9,-4.8356,-4.897,-4.8536,-4.7339,-4.8055,0.0,0.0,0.0,0.0,0.0,-4.7679,-4.7409,-4.7409,-4.7495,-4.8115,-4.8891,-4.8891,-4.9575,-5.0512,0.0,0.0,0.0,0.0,0.0,0.0,0.0,0.0,0.0,0.0,0.0,0.0,0.0,0.0,0.0,0.0,0.0,0.0,0.0,0.0,0.0,0.0,0.0,0.0,0.0,0.0,0.0,-4.329,-4.4646,-4.5574,-4.6082,-4.6411,0.0,0.0,0.0,0.0,-4.2351,-4.1692,-4.0995,0.0,0.0,-4.0008,0.0,0.0,0.0,0.0,0.0,0.0,0.0,0.0,0.0,0.0,0.0,0.0,0.0,0.0,0.0,0.0,0.0,0.0,0.0,0.0,0.0,0.0,0.0,0.0,0.0,0.0,0.0,0.0,0.0,0.0,-3.5998,-3.7464,0.0,0.0,0.0,0.0,0.0,0.0,0.0,0.0,0.0,0.0,0.0,0.0,0.0,0.0,0.0,0.0,-5.1229,-5.1229,-5.1079,-5.0943,-5.0943,-4.9853,-4.9239,-4.909,-4.8686,-4.8087,-4.7382,-4.8828,0.0,0.0,0.0,0.0,-4.8675,-4.8521,-4.846,-4.8512,-4.9336,-4.9813,-5.0009,-5.0009,-5.0665,-5.1557,0.0,0.0,0.0,0.0,0.0,0.0,0.0,0.0,0.0,0.0,0.0,0.0,0.0,0.0,0.0,0.0,0.0,0.0,0.0,0.0,0.0,0.0,0.0,0.0,0.0,0.0,0.0,0.0,0.0,-4.686,0.0,0.0,0.0,0.0,0.0,0.0,-4.2791,-4.2432,-4.1893,-4.1265,-4.0965,0.0,0.0,0.0,0.0,0.0,-3.7973,-3.7674,0.0,-3.7315,-3.7315,-3.7285,0.0,0.0,0.0,0.0,-3.5519,0.0,0.0,0.0,0.0,0.0,0.0,0.0,0.0,0.0,0.0,0.0,0.0,0.0,0.0,0.0,0.0,0.0,0.0,0.0,0.0,0.0,0.0,0.0,0.0,0.0,0.0,0.0,0.0,0.0,0.0,0.0,0.0,0.0,-5.0853,-5.1199,-5.0883,-5.0734,-5.0734,-5.0062,-4.9404,-4.885,-4.8446,-4.817,-4.7988,-4.8964,0.0,0.0,0.0,0.0,-5.0007,-5.0048,-4.9859,-4.9575,-5.0165,-5.0665,-5.1112,-5.1474,-5.2003,-5.2727,0.0,0.0,0.0,0.0,0.0,0.0,0.0,0.0,0.0,0.0,0.0,0.0,0.0,0.0,0.0,0.0,0.0,0.0,0.0,0.0,0.0,0.0,0.0,0.0,0.0,0.0,0.0,0.0,0.0,0.0,0.0,0.0,0.0,0.0,0.0,0.0,-4.314,-4.326,-4.288,-4.2201,0.0,0.0,0.0,0.0,0.0,0.0,0.0,0.0,0.0,-3.8571,-3.8631,-3.8212,-3.8003,0.0,0.0,0.0,0.0,0.0,0.0,0.0,0.0,0.0,0.0,0.0,0.0,0.0,0.0,0.0,0.0,0.0,0.0,0.0,0.0,0.0,0.0,0.0,0.0,0.0,0.0,0.0,0.0,0.0,0.0,0.0,0.0,0.0,0.0,0.0,0.0,0.0,0.0,-5.09,-5.0391,-4.9986,-4.9897,-5.0076,-4.9643,-4.8446,-4.8473,-4.8688,-4.8965,-4.9291,-5.0184,0.0,0.0,0.0,-5.1488,-5.1533,-5.118,-5.0659,-5.0946,-5.1573,-5.2401,-5.3165,-5.3601,-5.4025,0.0,0.0,0.0,0.0,0.0,0.0,0.0,0.0,0.0,0.0,0.0,0.0,0.0,0.0,0.0,0.0,0.0,0.0,0.0,0.0,0.0,0.0,0.0,0.0,0.0,0.0,0.0,0.0,0.0,0.0,-5.0196,-5.072,-4.8656,0.0,0.0,-4.4077,-4.259,-4.309,-4.2641,-4.1534,0.0,0.0,0.0,0.0,0.0,0.0,0.0,0.0,0.0,-3.6866,-3.7225,-3.7375,-3.6297,0.0,0.0,0.0,0.0,0.0,0.0,0.0,0.0,0.0,0.0,0.0,0.0,0.0,0.0,0.0,0.0,0.0,0.0,0.0,0.0,0.0,0.0,0.0,0.0,0.0,0.0,0.0,0.0,0.0,0.0,0.0,0.0,0.0,0.0,0.0,0.0,0.0,0.0,-4.9599,-4.9509,-4.9164,-4.8596,-4.9628,-4.9853,-4.9149,-4.9451,-4.9592,-4.9719,-5.1501,-5.2146,0.0,0.0,-5.2393,-5.1798,-5.1798,-5.1769,-5.1842,-5.3363,-5.4053,-5.4258,-5.5033,-5.5306,-5.5377,0.0,0.0,0.0,0.0,0.0,0.0,0.0,0.0,0.0,0.0,0.0,0.0,0.0,0.0,0.0,0.0,0.0,0.0,0.0,0.0,0.0,0.0,0.0,0.0,0.0,0.0,0.0,0.0,0.0,-5.2456,-5.3384,-5.1199,-4.8057,-4.4287,0.0,-4.3249,-4.241,-4.2671,-4.2671,-4.2372,0.0,0.0,0.0,0.0,0.0,0.0,0.0,0.0,0.0,0.0,-3.7943,-3.8272,-3.6956,0.0,0.0,0.0,0.0,0.0,-3.6596,0.0,0.0,0.0,0.0,0.0,0.0,0.0,0.0,0.0,0.0,0.0,0.0,0.0,0.0,0.0,0.0,0.0,0.0,0.0,0.0,0.0,0.0,0.0,0.0,0.0,0.0,0.0,0.0,0.0,0.0,0.0,0.0,0.0,-4.9299,-4.9432,-4.9726,-5.1025,-5.0964,-4.9634,-4.9766,-5.064,-5.2123,-5.273,-5.3102,-5.3402,0.0,-5.3837,-5.2799,-5.3202,-5.3369,-5.3437,-5.4293,-5.4837,-5.5243,-5.5581,-5.6224,-5.6833,0.0,0.0,0.0,0.0,0.0,0.0,0.0,0.0,0.0,0.0,0.0,0.0,0.0,0.0,0.0,0.0,0.0,0.0,0.0,0.0,0.0,0.0,0.0,0.0,0.0,0.0,0.0,-5.2157,-5.3982,-5.5239,-5.5837,-5.1725,-4.7878,0.0,0.0,-4.259,-4.2171,-4.2171,-4.2432,-4.2761,0.0,0.0,0.0,0.0,0.0,0.0,0.0,0.0,0.0,0.0,0.0,0.0,0.0,0.0,0.0,0.0,0.0,-3.5818,-3.6297,-3.7255,0.0,0.0,0.0,0.0,0.0,0.0,0.0,0.0,0.0,0.0,0.0,0.0,0.0,0.0,0.0,0.0,0.0,0.0,0.0,0.0,0.0,0.0,0.0,0.0,0.0,0.0,0.0,0.0,0.0,0.0,0.0,0.0,-4.9042,-4.9657,-5.0661,-5.2087,-5.2121,-5.0767,-5.0932,-5.2093,-5.403,-5.3596,-5.3735,-5.4363,-5.4938,-5.4566,-5.3551,-5.4093,-5.4431,-5.46,-5.4769,-5.5412,-5.6224,-5.6224,-5.6934,-5.7814,0.0,0.0,0.0,0.0,0.0,0.0,0.0,0.0,0.0,0.0,0.0,0.0,0.0,0.0,0.0,0.0,0.0,0.0,0.0,0.0,0.0,0.0,0.0,0.0,0.0,-4.9763,-5.1156,-5.491,-5.6226,-5.6346,-5.5209,-5.2396,-4.8985,-4.5185,0.0,-4.315,-4.1444,-4.1444,-4.1512,-4.1444,-4.0756,0.0,0.0,0.0,0.0,0.0,0.0,0.0,0.0,0.0,0.0,0.0,0.0,0.0,0.0,0.0,0.0,-3.6806,-3.8631,-3.9649,0.0,0.0,0.0,0.0,0.0,0.0,0.0,0.0,0.0,0.0,0.0,0.0,0.0,0.0,0.0,0.0,0.0,0.0,0.0,0.0,0.0,0.0,0.0,0.0,0.0,0.0,0.0,0.0,0.0,0.0,0.0,0.0,0.0,-4.9192,-4.9947,-5.1656,-5.2812,-5.3332,-5.4254,-5.4465,-5.403,-5.4347,-5.4126,-5.3585,-5.3653,-5.3619,-5.3518,-5.3551,-5.3991,-5.4668,-5.5344,-5.6494,-5.7712,-5.7712,-5.7814,-5.7881,0.0,0.0,0.0,0.0,0.0,0.0,0.0,0.0,0.0,0.0,0.0,0.0,0.0,0.0,0.0,0.0,0.0,0.0,0.0,0.0,0.0,0.0,0.0,-4.7429,-5.1139,-5.2755,-5.491,-5.7633,-5.853,-5.7453,-5.4521,-5.181,0.0,0.0,0.0,-4.2312,-4.1961,-4.1115,-4.1235,-4.1931,-4.0816,-4.0397,0.0,0.0,0.0,0.0,0.0,0.0,0.0,0.0,0.0,0.0,0.0,0.0,0.0,0.0,0.0,0.0,-3.7404,-3.8362,0.0,0.0,0.0,0.0,0.0,0.0,0.0,0.0,0.0,0.0,0.0,0.0,0.0,0.0,0.0,0.0,0.0,0.0,0.0,0.0,0.0,0.0,0.0,0.0,0.0,0.0,0.0,0.0,0.0,0.0,0.0,0.0,0.0,-5.0879,-5.2494,-5.3558,-5.4585,-5.5563,-5.4802,-5.4891,-5.5719,-5.4933,-5.4431,-5.416,-5.416,-5.3923,-5.3551,-5.3991,-5.4634,-5.5412,-5.6596,-5.7408,-5.7881,-5.7881,-5.7881,-5.7881,0.0,0.0,0.0,0.0,0.0,0.0,0.0,0.0,0.0,0.0,0.0,0.0,0.0,0.0,0.0,0.0,0.0,0.0,0.0,0.0,0.0,0.0,0.0,-4.686,-5.0212,-5.3324,-5.6196,-5.88,-5.9458,-5.7752,-5.3832,0.0,0.0,0.0,0.0,0.0,0.0,-4.1743,-4.1452,-4.1991,-4.0846,-4.0397,0.0,0.0,0.0,0.0,0.0,0.0,0.0,0.0,0.0,0.0,0.0,0.0,0.0,0.0,0.0,0.0,-3.6537,-3.7135,0.0,0.0,0.0,0.0,0.0,0.0,0.0,0.0,0.0,0.0,0.0,0.0,0.0,0.0,0.0,0.0,0.0,0.0,0.0,0.0,0.0,0.0,0.0,0.0,0.0,0.0,0.0,0.0,0.0,0.0,0.0,0.0,0.0,-5.2019,-5.3733,-5.4759,-5.5673,-5.6461,-5.5171,-5.5108,-5.6055,-5.504,-5.4465,-5.4262,-5.4262,-5.4093,-5.389,-5.4397,-5.5175,-5.619,-5.7408,-5.7881,-5.7881,-5.7881,-5.7881,-5.7881,0.0,0.0,0.0,0.0,0.0,0.0,0.0,0.0,0.0,0.0,0.0,0.0,0.0,0.0,0.0,0.0,0.0,0.0,0.0,0.0,0.0,0.0,0.0,-4.6202,-4.8207,-5.081,-5.4102,-5.8082,-5.874,-5.7034,-5.3144,-5.2486,0.0,0.0,0.0,0.0,0.0,-4.3519,-4.2021,-4.1324,-4.0666,-4.0397,-4.0337,0.0,0.0,0.0,0.0,0.0,0.0,0.0,0.0,0.0,0.0,0.0,0.0,0.0,0.0,-3.7285,-3.6656,0.0,0.0,0.0,0.0,0.0,0.0,0.0,0.0,0.0,0.0,0.0,0.0,0.0,0.0,0.0,0.0,0.0,0.0,0.0,0.0,0.0,0.0,0.0,0.0,0.0,0.0,0.0,0.0,0.0,0.0,0.0,0.0,0.0,0.0,0.0,-5.3012,-5.4785,-5.5716,-5.5716,-5.5647,-5.531,-5.46,-5.4566,-5.4194,-5.3518,-5.3518,-5.3923,-5.46,-5.46,-5.548,-5.69,-5.7611,-5.7881,-5.7881,-5.7881,-5.7881,-5.7915,0.0,0.0,0.0,0.0,0.0,0.0,0.0,0.0,0.0,0.0,0.0,0.0,0.0,0.0,0.0,0.0,0.0,0.0,0.0,0.0,0.0,0.0,0.0,0.0,0.0,0.0,-5.1379,-5.5359,-5.5568,-5.3862,0.0,0.0,0.0,-4.7415,0.0,0.0,0.0,0.0,-4.2291,-4.2051,-4.1354,-4.1085,-4.1025,0.0,0.0,0.0,0.0,0.0,0.0,0.0,0.0,0.0,0.0,0.0,0.0,0.0,-3.7883,-3.7853,-3.6776,0.0,0.0,0.0,0.0,0.0,0.0,0.0,0.0,0.0,0.0,0.0,0.0,0.0,0.0,0.0,0.0,0.0,0.0,0.0,0.0,0.0,0.0,0.0,0.0,0.0,0.0,0.0,0.0,0.0,0.0,0.0,0.0,0.0,0.0,0.0,-5.4116,-5.4664,-5.4938,-5.4905,-5.4397,-5.4296,-5.4566,-5.4059,-5.3721,-5.3518,-5.3518,-5.3923,-5.4668,-5.5716,-5.6697,-5.7577,-5.7814,-5.7881,-5.7881,-5.7881,-5.822,-5.8592,0.0,0.0,0.0,0.0,0.0,0.0,0.0,0.0,0.0,0.0,0.0,0.0,0.0,0.0,0.0,0.0,0.0,0.0,0.0,0.0,0.0,0.0,0.0,0.0,0.0,-4.68,-4.8805,0.0,0.0,0.0,0.0,0.0,0.0,-4.9075,0.0,-4.9164,0.0,0.0,-4.3998,-4.2701,-4.2312,-4.2013,-4.1722,0.0,0.0,0.0,0.0,0.0,0.0,0.0,0.0,0.0,0.0,0.0,0.0,0.0,-3.7734,-3.7644,0.0,0.0,0.0,0.0,0.0,0.0,0.0,0.0,0.0,0.0,0.0,0.0,0.0,0.0,0.0,0.0,0.0,0.0,0.0,0.0,0.0,0.0,0.0,0.0,0.0,0.0,0.0,0.0,0.0,0.0,0.0,0.0,0.0,0.0,0.0,0.0,-5.416,-5.4431,-5.4431,-5.416,-5.4025,-5.4025,-5.416,-5.3687,-5.3518,-5.3551,-5.4126,-5.4634,-5.5141,-5.663,-5.7476,-5.7881,-5.7881,-5.7881,-5.7881,-5.7881,-5.8355,-5.8896,0.0,0.0,0.0,0.0,0.0,0.0,0.0,0.0,0.0,0.0,0.0,0.0,0.0,0.0,0.0,0.0,0.0,0.0,0.0,0.0,0.0,0.0,0.0,0.0,0.0,0.0,0.0,0.0,0.0,0.0,0.0,0.0,-5.3683,-5.3144,0.0,-5.3533,0.0,-4.8805,-4.6142,-4.329,-4.329,-4.297,-4.241,-4.1692,0.0,0.0,0.0,0.0,0.0,0.0,0.0,0.0,0.0,0.0,0.0,0.0,0.0,0.0,0.0,0.0,0.0,0.0,0.0,0.0,0.0,0.0,0.0,0.0,0.0,0.0,0.0,0.0,0.0,0.0,0.0,0.0,0.0,0.0,0.0,0.0,0.0,0.0,0.0,0.0,0.0,0.0,0.0,0.0,0.0,0.0,0.0,0.0,0.0,0.0,-5.3518,-5.416,-5.416,0.0,-5.416,-5.416,-5.3518,-5.3518,-5.3518,-5.3585,-5.5074,-5.5681,-5.5818,-5.7273,-5.7881,-5.7881,-5.7881,-5.7881,-5.7918,-5.7991,-5.8428,-5.8896,0.0,0.0,0.0,0.0,0.0,0.0,0.0,0.0,0.0,0.0,0.0,0.0,0.0,0.0,0.0,0.0,0.0,0.0,0.0,0.0,0.0,0.0,0.0,0.0,0.0,0.0,0.0,0.0,0.0,0.0,0.0,0.0,0.0,-5.2456,0.0,-5.2157,0.0,-4.6441,-4.4466,-4.329,-4.329,-4.32,-4.3,-4.1833,-4.1294,0.0,0.0,0.0,0.0,0.0,0.0,0.0,0.0,-3.7225,-3.7165,-3.6956,0.0,0.0,0.0,0.0,0.0,0.0,0.0,0.0,0.0,0.0,0.0,0.0,0.0,0.0,0.0,0.0,0.0,0.0,0.0,0.0,0.0,0.0,0.0,0.0,0.0,0.0,0.0,0.0,0.0,0.0,0.0,0.0,0.0,0.0,0.0,0.0,0.0,-5.3518,-5.3518,-5.3653,-5.3653,0.0,-5.3653,-5.3653,-5.3518,-5.3518,-5.3518,-5.3585,-5.5074,-5.5681,-5.5818,-5.7273,-5.7881,-5.7881,-5.7881,-5.7881,-5.7991,-5.8633,-5.8937,-5.897,0.0,0.0,0.0,0.0,0.0,0.0,0.0,0.0,0.0,0.0,0.0,0.0,0.0,0.0,0.0,0.0,0.0,0.0,0.0,0.0,0.0,0.0,0.0,0.0,0.0,0.0,0.0,0.0,0.0,0.0,0.0,0.0,0.0,-5.3053,0.0,-5.2497,-4.9179,-4.707,-4.5274,-4.3768,-4.3768,-4.3768,-4.3618,-4.2342,-4.1692,-4.1175,-3.9529,0.0,0.0,0.0,0.0,0.0,0.0,0.0,-3.6567,-3.6836,-3.6956,0.0,0.0,0.0,0.0,0.0,0.0,0.0,0.0,0.0,0.0,0.0,0.0,0.0,0.0,0.0,0.0,0.0,0.0,0.0,0.0,0.0,0.0,0.0,0.0,0.0,0.0,0.0,0.0,0.0,0.0,0.0,0.0,0.0,0.0,0.0,-5.3518,-5.3518,-5.3518,-5.3518,-5.3518,-5.3518,-5.3518,-5.3518,-5.3518,-5.3518,-5.3518,-5.3551,-5.4702,-5.5378,-5.5818,-5.69,-5.7577,-5.7954,-5.8317,-5.8459,-5.8563,-5.9391,-6.0116,-6.0739,0.0,0.0,0.0,0.0,0.0,0.0,0.0,0.0,0.0,0.0,0.0,0.0,0.0,0.0,0.0,0.0,0.0,0.0,0.0,0.0,0.0,0.0,0.0,0.0,0.0,0.0,0.0,0.0,0.0,0.0,0.0,0.0,0.0,-5.4095,0.0,0.0,-4.9239,-4.8087,-4.6262,-4.4137,-4.4137,-4.4137,-4.4018,-4.2701,-4.1901,-4.1183,-3.923,-3.8482,-3.8212,-3.7045,0.0,0.0,0.0,0.0,-3.5699,-3.6776,-3.6417,-3.6417,0.0,0.0,0.0,0.0,0.0,0.0,0.0,0.0,0.0,0.0,0.0,0.0,0.0,0.0,0.0,0.0,0.0,0.0,0.0,0.0,0.0,0.0,0.0,0.0,0.0,0.0,0.0,0.0,0.0,0.0,0.0,0.0,-5.3518,-5.3518,-5.3518,-5.3518,-5.3518,-5.3518,-5.3518,-5.3518,-5.3518,-5.3518,-5.3518,-5.3518,-5.3518,-5.3551,-5.4397,-5.5141,-5.5749,-5.663,-5.7448,-5.8173,-5.8668,-5.9181,-5.9622,-6.0283,-6.1445,-6.2634,0.0,0.0,0.0,0.0,0.0,0.0,0.0,0.0,0.0,0.0,0.0,0.0,0.0,0.0,0.0,0.0,0.0,0.0,0.0,0.0,0.0,0.0,0.0,0.0,0.0,0.0,0.0,0.0,0.0,0.0,0.0,0.0,0.0,0.0,0.0,0.0,0.0,-4.6112,-4.4317,-4.3409,-4.3409,-4.3409,-4.329,-4.2013,-4.1482,-4.1205,-3.9798,-3.8901,-3.8272,-3.7524,-3.6926,0.0,0.0,0.0,0.0,0.0,0.0,0.0,0.0,0.0,0.0,0.0,0.0,0.0,0.0,0.0,0.0,0.0,0.0,0.0,0.0,0.0,0.0,0.0,0.0,0.0,0.0,0.0,0.0,0.0,0.0,0.0,0.0,0.0,0.0,0.0,0.0,0.0,0.0,-5.3518,-5.3518,-5.3518,-5.3518,-5.3518,-5.3518,-5.3518,-5.3518,-5.3518,-5.3518,-5.3518,-5.3518,-5.3518,-5.3518,-5.3585,-5.4972,-5.5615,-5.5818,-5.7171,-5.8214,-5.8875,-5.8281,-5.9391,-6.1263,-6.1404,-6.1994,-6.2888,0.0,0.0,0.0,0.0,0.0,0.0,0.0,0.0,0.0,0.0,0.0,0.0,0.0,0.0,0.0,0.0,0.0,0.0,0.0,0.0,0.0,0.0,0.0,0.0,0.0,0.0,0.0,0.0,0.0,0.0,0.0,-5.1162,-5.2578,0.0,0.0,0.0,0.0,0.0,0.0,-4.329,-4.329,-4.329,0.0,0.0,-4.1752,-4.1205,-3.9888,-3.923,-3.8751,-3.7375,-3.6926,-3.6836,-3.5818,0.0,0.0,0.0,0.0,0.0,0.0,0.0,0.0,0.0,0.0,0.0,0.0,0.0,0.0,0.0,0.0,0.0,0.0,0.0,0.0,0.0,0.0,0.0,0.0,0.0,0.0,0.0,0.0,0.0,0.0,0.0,0.0,0.0,0.0,0.0,-5.2841,-5.3281,-5.3518,-5.3518,-5.3518,-5.3518,-5.3518,-5.3518,-5.3518,-5.3518,-5.3518,-5.3518,-5.3518,-5.3518,-5.3518,-5.3551,-5.4194,-5.4938,-5.5749,-5.6393,-5.7636,-5.9111,-5.9246,-6.0266,-6.1693,-6.2558,-6.3458,-6.4339,0.0,0.0,0.0,0.0,0.0,0.0,0.0,0.0,0.0,0.0,0.0,0.0,0.0,0.0,0.0,0.0,0.0,0.0,0.0,0.0,0.0,0.0,0.0,0.0,0.0,0.0,0.0,0.0,0.0,0.0,-5.0237,-5.0395,-5.2056,0.0,-5.3154,0.0,0.0,0.0,0.0,0.0,0.0,0.0,0.0,0.0,0.0,-4.1684,-4.1127,-4.038,-3.9496,-3.8084,-3.7627,-3.75,-3.6154,-3.5639,0.0,0.0,0.0,0.0,0.0,0.0,0.0,0.0,0.0,0.0,0.0,0.0,0.0,0.0,0.0,0.0,0.0,0.0,0.0,0.0,0.0,0.0,0.0,0.0,0.0,0.0,0.0,0.0,0.0,0.0,0.0,0.0,0.0,0.0,-5.2334,-5.3078,-5.3518,-5.3518,-5.3518,-5.3518,-5.3518,-5.3518,-5.3518,-5.3518,-5.3518,-5.3518,-5.3518,-5.3518,-5.3518,-5.3518,-5.389,-5.4803,-5.6021,-5.6402,-5.7706,-5.9509,-6.0149,-6.1169,-6.2386,-6.3502,-6.462,-6.57,0.0,0.0,0.0,0.0,0.0,0.0,0.0,0.0,0.0,0.0,0.0,0.0,0.0,0.0,0.0,0.0,0.0,0.0,0.0,0.0,0.0,0.0,0.0,0.0,0.0,0.0,0.0,0.0,0.0,0.0,-5.1025,-4.9907,-5.1394,-5.4974,-5.5257,-5.2696,-4.8293,0.0,0.0,0.0,0.0,0.0,0.0,0.0,0.0,0.0,0.0,0.0,-4.0656,-4.0569,-3.9701,-3.839,-3.6926,-3.5998,0.0,0.0,0.0,0.0,0.0,0.0,0.0,0.0,0.0,0.0,0.0,0.0,0.0,0.0,0.0,0.0,0.0,0.0,0.0,0.0,0.0,0.0,0.0,0.0,0.0,0.0,0.0,0.0,0.0,0.0,0.0,0.0,0.0,0.0,-5.23,-5.3078,-5.3518,-5.3518,-5.3518,-5.3518,-5.3518,-5.3518,-5.3518,-5.3518,-5.3518,-5.3518,-5.3518,-5.3518,-5.3518,-5.3585,-5.5006,-5.6055,-5.687,-5.8325,-5.9471,-6.0335,-6.0366,-6.1846,-6.3962,-6.3981,-6.5039,-6.6549,0.0,0.0,0.0,0.0,0.0,0.0,0.0,0.0,0.0,0.0,0.0,0.0,0.0,0.0,0.0,0.0,0.0,0.0,0.0,0.0,0.0,0.0,0.0,0.0,0.0,0.0,0.0,0.0,0.0,-4.512,-4.8025,-4.8457,-4.9373,-5.0786,-5.2618,-5.1853,-4.9309,-4.9807,0.0,0.0,0.0,0.0,0.0,0.0,0.0,0.0,0.0,0.0,0.0,-3.9734,-3.9977,0.0,0.0,0.0,0.0,0.0,0.0,0.0,0.0,0.0,0.0,0.0,0.0,0.0,0.0,0.0,0.0,0.0,0.0,0.0,0.0,0.0,0.0,0.0,0.0,0.0,0.0,0.0,0.0,0.0,0.0,0.0,0.0,0.0,0.0,0.0,0.0,0.0,-5.1589,-5.2334,-5.2976,-5.3484,-5.3518,-5.3518,-5.3518,-5.3518,-5.3518,-5.3518,-5.3518,-5.3518,-5.3518,-5.3518,-5.4022,-5.4958,-5.6022,-5.6606,-5.6915,-5.7453,-5.9077,-6.1171,-6.1171,-6.2367,-6.4174,-6.4646,-6.553,-6.6623,0.0,0.0,0.0,0.0,0.0,0.0,0.0,0.0,0.0,0.0,0.0,0.0,0.0,0.0,0.0,0.0,0.0,0.0,0.0,0.0,0.0,0.0,0.0,0.0,0.0,0.0,0.0,0.0,0.0,0.0,0.0,0.0,-4.8287,-4.8685,-5.005,0.0,0.0,0.0,0.0,-4.7394,0.0,0.0,-4.6937,0.0,0.0,0.0,0.0,0.0,0.0,0.0,0.0,0.0,0.0,0.0,0.0,0.0,0.0,0.0,0.0,0.0,0.0,0.0,0.0,0.0,0.0,0.0,0.0,0.0,0.0,0.0,0.0,0.0,0.0,0.0,0.0,0.0,0.0,0.0,0.0,0.0,0.0,0.0,0.0,0.0,0.0,0.0,0.0,0.0,-5.1217,-5.1894,-5.2672,-5.3484,-5.3518,-5.3518,-5.3518,-5.3518,-5.3518,-5.3518,-5.3518,-5.3518,-5.3518,-5.375,-5.4413,-5.5403,-5.6446,-5.7196,-5.772,-5.8277,-5.971,-6.1632,-6.1915,-6.286,-6.42,-6.5007,-6.5815,-6.6623,0.0,0.0,0.0,0.0,0.0,0.0,0.0,0.0,0.0,0.0,0.0,0.0,0.0,0.0,0.0,0.0,0.0,0.0,0.0,0.0,0.0,0.0,0.0,0.0,0.0,0.0,0.0,0.0,0.0,0.0,0.0,0.0,-4.8179,0.0,-4.811,-4.7862,-4.8323,0.0,-5.0225,-4.8451,0.0,-4.9606,-4.9662,0.0,0.0,0.0,-5.2236,-5.0459,0.0,0.0,0.0,0.0,0.0,0.0,0.0,0.0,0.0,0.0,0.0,0.0,0.0,0.0,0.0,0.0,0.0,0.0,0.0,0.0,0.0,0.0,0.0,0.0,0.0,0.0,0.0,0.0,0.0,0.0,0.0,0.0,0.0,0.0,0.0,0.0,0.0,0.0,0.0,-5.0405,-5.115,-5.1894,-5.2672,-5.3484,-5.3518,-5.3518,-5.3518,-5.3518,-5.3518,-5.3518,-5.3518,-5.3484,-5.3551,-5.4264,-5.4603,-5.473,-5.6276,-5.78,-5.9354,-6.0927,-6.1596,-6.1715,-6.249,-6.3392,-6.4237,-6.5044,-6.5852,-6.6659,0.0,0.0,0.0,0.0,0.0,0.0,0.0,0.0,0.0,0.0,0.0,0.0,0.0,0.0,0.0,0.0,0.0,0.0,0.0,0.0,0.0,0.0,0.0,0.0,0.0,0.0,0.0,0.0,0.0,0.0,0.0,0.0,0.0,0.0,-4.6907,-4.6406,-4.5548,-4.812,0.0,0.0,-5.0322,-5.0788,0.0,0.0,0.0,0.0,0.0,-4.872,0.0,0.0,-4.6716,-4.6848,0.0,0.0,0.0,0.0,0.0,0.0,-3.6207,0.0,0.0,0.0,0.0,0.0,0.0,0.0,0.0,0.0,0.0,0.0,0.0,0.0,0.0,0.0,0.0,0.0,0.0,0.0,0.0,0.0,0.0,0.0,0.0,0.0,0.0,0.0,-4.9187,-4.9627,-5.0371,-5.1623,-5.2672,-5.3484,-5.3518,-5.3518,-5.3518,-5.3518,-5.3518,-5.3518,-5.3518,-5.3783,-5.4296,-5.4513,-5.5208,-5.633,-5.7326,-5.8635,-6.0114,-6.0612,-6.1461,-6.2526,-6.339,-6.4237,-6.5081,-6.5888,-6.6659,-6.7393,0.0,0.0,0.0,0.0,0.0,0.0,0.0,0.0,0.0,0.0,0.0,0.0,0.0,0.0,0.0,0.0,0.0,0.0,0.0,0.0,0.0,0.0,0.0,0.0,0.0,0.0,0.0,0.0,0.0,0.0,0.0,0.0,0.0,0.0,0.0,0.0,0.0,0.0,0.0,0.0,-5.0986,0.0,0.0,-5.2988,-5.2664,0.0,0.0,0.0,-5.1393,-4.9487,-4.8497,0.0,0.0,0.0,0.0,0.0,0.0,0.0,0.0,0.0,0.0,0.0,0.0,0.0,0.0,-3.9828,0.0,0.0,0.0,0.0,0.0,0.0,0.0,0.0,0.0,0.0,0.0,0.0,0.0,0.0,0.0,0.0,0.0,0.0,0.0,0.0,-4.9018,-4.9323,-5.0067,-5.1488,-5.2503,-5.2976,-5.3315,-5.3518,-5.3518,-5.3518,-5.3518,-5.3518,-5.3816,-5.4168,-5.4603,-5.5267,-5.6039,-5.6984,-5.8413,-5.9565,-6.0469,-6.1157,-6.1974,-6.2853,-6.3356,-6.4273,-6.5375,-6.5852,-6.6733,-6.7687,0.0,0.0,0.0,0.0,0.0,0.0,0.0,0.0,0.0,0.0,0.0,0.0,0.0,0.0,0.0,0.0,0.0,0.0,0.0,0.0,0.0,0.0,0.0,0.0,0.0,0.0,0.0,0.0,0.0,0.0,0.0,0.0,0.0,0.0,0.0,0.0,0.0,0.0,0.0,-4.7697,-5.1559,-5.3647,0.0,0.0,-5.8084,0.0,-5.8423,-5.7577,-5.548,-5.3213,-4.999,0.0,0.0,0.0,0.0,0.0,-4.0155,0.0,0.0,0.0,0.0,0.0,0.0,0.0,-3.8482,-3.908,-3.9493,0.0,0.0,0.0,0.0,0.0,0.0,0.0,0.0,0.0,0.0,0.0,0.0,0.0,0.0,0.0,0.0,0.0,-4.9018,-4.9018,-4.9018,-4.9323,-5.0067,-5.1319,-5.2131,-5.23,-5.2976,-5.3416,-5.3518,-5.3518,-5.3518,-5.3518,-5.4136,-5.4575,-5.4757,-5.615,-5.6861,-5.7112,-5.9335,-6.0309,-6.0529,-6.2034,-6.2707,-6.2817,-6.3,-6.3991,-6.5338,-6.5521,-6.6476,-6.7687,0.0,0.0,0.0,0.0,0.0,0.0,0.0,0.0,0.0,0.0,0.0,0.0,0.0,0.0,0.0,0.0,0.0,0.0,0.0,0.0,0.0,0.0,0.0,0.0,0.0,0.0,0.0,0.0,0.0,0.0,0.0,0.0,0.0,0.0,0.0,0.0,0.0,0.0,0.0,-5.034,-5.2865,0.0,-5.6412,-5.764,-5.7915,-5.7712,-5.8017,-5.7442,-5.6258,0.0,-5.143,-4.9122,0.0,0.0,0.0,0.0,0.0,0.0,0.0,0.0,0.0,0.0,0.0,0.0,-3.9978,-4.0098,-4.0217,0.0,0.0,0.0,0.0,0.0,0.0,0.0,0.0,0.0,0.0,0.0,0.0,0.0,0.0,0.0,0.0,0.0,-4.9018,-4.9018,-4.9018,-4.9323,-5.0067,-5.0371,-5.1082,-5.2266,-5.2469,-5.2841,-5.3484,-5.3518,-5.3518,-5.3518,-5.3651,-5.4328,-5.5495,-5.5808,-5.6606,-5.787,-5.8954,-5.9795,-6.0493,-6.1447,-6.2218,-6.2927,-6.431,-6.5007,-6.5485,-6.6733,-6.743,-6.7687,0.0,0.0,0.0,0.0,0.0,0.0,0.0,0.0,0.0,0.0,0.0,0.0,0.0,0.0,0.0,0.0,0.0,0.0,0.0,0.0,0.0,0.0,0.0,0.0,0.0,0.0,0.0,0.0,0.0,0.0,0.0,0.0,0.0,0.0,0.0,0.0,0.0,0.0,-5.1262,-5.183,-5.4804,0.0,-5.7543,-5.9404,-5.9674,-5.9032,-5.9438,-5.8626,-5.707,-5.5243,-5.328,0.0,0.0,-4.9057,-4.8032,0.0,-4.6435,-4.56,0.0,0.0,0.0,-4.1984,0.0,0.0,0.0,-4.1346,-4.1261,0.0,0.0,0.0,0.0,0.0,0.0,0.0,0.0,0.0,0.0,0.0,0.0,0.0,0.0,0.0,0.0,0.0,-4.8071,-4.8443,-4.8477,-4.8781,-4.9492,-5.0236,-5.0811,-5.1183,-5.23,-5.2909,-5.2909,-5.3315,-5.3518,-5.3518,-5.4267,-5.4999,-5.5752,-5.6527,-5.7508,-5.8657,-5.9465,-6.0272,-6.1043,-6.1887,-6.2438,-6.2853,-6.3723,-6.4541,-6.5411,-6.6219,-6.699,-6.7687,0.0,0.0,0.0,0.0,0.0,0.0,0.0,0.0,0.0,0.0,0.0,0.0,0.0,0.0,0.0,0.0,0.0,0.0,0.0,0.0,0.0,0.0,0.0,-5.0425,0.0,0.0,0.0,0.0,0.0,0.0,0.0,0.0,0.0,0.0,0.0,0.0,0.0,0.0,0.0,-5.3044,0.0,-5.7577,-5.778,-6.0655,-6.096,-5.9979,-6.0622,-5.9573,-5.7679,-5.6224,0.0,-5.3315,-5.1192,-5.0827,0.0,0.0,0.0,0.0,0.0,0.0,0.0,0.0,0.0,-4.3528,0.0,0.0,0.0,0.0,0.0,0.0,0.0,0.0,0.0,0.0,0.0,0.0,0.0,0.0,0.0,0.0,0.0,0.0,0.0,0.0,-4.7056,-4.7635,-4.7804,-4.8173,-4.8781,-5.0067,-5.0574,-5.0101,-5.2029,-5.2807,-5.23,-5.3112,-5.3551,-5.3717,-5.4909,-5.5638,-5.5976,-5.7241,-5.832,-5.9221,-6.0052,-6.086,-6.1667,-6.2475,-6.278,-6.2817,-6.3147,-6.4127,-6.5338,-6.5668,-6.6586,-6.7687,0.0,0.0,0.0,0.0,0.0,0.0,0.0,0.0,0.0,0.0,0.0,0.0,0.0,0.0,0.0,0.0,0.0,0.0,-5.8984,0.0,0.0,0.0,0.0,0.0,-4.9883,0.0,0.0,0.0,0.0,0.0,0.0,0.0,0.0,0.0,-5.1125,0.0,0.0,0.0,-5.2369,0.0,-5.6224,-5.6528,0.0,-5.8524,-5.9302,-5.9167,-5.9235,-5.866,-5.7679,0.0,-5.5141,-5.4329,0.0,-5.2201,0.0,0.0,0.0,0.0,0.0,0.0,0.0,0.0,-4.7325,0.0,0.0,0.0,0.0,0.0,0.0,0.0,0.0,0.0,0.0,0.0,0.0,0.0,0.0,0.0,0.0,0.0,0.0,0.0,0.0,0.0,0.0,-4.6921,-4.753,-4.7939,-4.8007,-4.8815,-4.9526,-5.0067,-5.098,-5.1725,-5.23,-5.3112,-5.3815,-5.4482,-5.4634,-5.5443,-5.6747,-5.6938,-5.7812,-5.9221,-6.0052,-6.086,-6.1667,-6.2475,-6.278,-6.2952,-6.4457,-6.5154,-6.5485,-6.688,-6.754,-6.7687,0.0,0.0,0.0,0.0,0.0,0.0,0.0,0.0,0.0,0.0,0.0,0.0,0.0,0.0,0.0,0.0,0.0,-5.8389,0.0,0.0,0.0,0.0,0.0,0.0,0.0,0.0,0.0,0.0,-5.0292,0.0,0.0,0.0,0.0,0.0,-5.115,0.0,-5.2164,0.0,0.0,0.0,0.0,0.0,0.0,-5.849,-5.937,-5.9032,-5.9032,-5.8795,-5.8389,0.0,-5.6494,0.0,0.0,0.0,0.0,0.0,0.0,0.0,0.0,0.0,0.0,0.0,0.0,0.0,0.0,0.0,-4.6867,0.0,0.0,0.0,0.0,0.0,0.0,0.0,0.0,0.0,0.0,0.0,0.0,0.0,0.0,0.0,0.0,0.0,0.0,0.0,0.0,-4.7462,-4.7872,-4.9018,-4.9593,-4.9458,-5.1014,-5.2017,-5.2351,-5.3553,-5.4513,-5.5232,-5.5695,-5.6259,-5.6912,-5.7824,-5.8835,-5.9942,-6.075,-6.1557,-6.2328,-6.2658,-6.278,-6.2964,-6.4677,-6.5301,-6.5448,-6.6586,-6.7283,-6.7687,0.0,0.0,0.0,0.0,0.0,0.0,0.0,0.0,0.0,0.0,0.0,0.0,-6.7793,-6.7151,0.0,0.0,0.0,-6.1467,0.0,0.0,-5.4534,0.0,0.0,0.0,0.0,0.0,0.0,0.0,0.0,0.0,0.0,0.0,0.0,0.0,0.0,-5.1623,-5.1894,0.0,0.0,-5.4769,-5.5513,-5.5919,-5.6325,-5.8423,-5.8998,-5.8693,-5.8693,-5.8693,-5.8592,-5.7848,-5.7374,0.0,-5.5378,0.0,0.0,0.0,0.0,0.0,-5.2909,0.0,0.0,0.0,0.0,0.0,0.0,0.0,0.0,0.0,0.0,0.0,0.0,0.0,0.0,0.0,0.0,0.0,0.0,0.0,0.0,0.0,0.0,0.0,0.0,0.0,0.0,0.0,-4.6075,-4.6819,-4.7564,-4.8815,-4.9424,-4.9323,-5.1269,-5.2429,-5.2726,-5.4156,-5.5262,-5.6031,-5.6616,-5.7098,-5.7554,-5.8701,-5.9735,-6.075,-6.1337,-6.2071,-6.278,-6.278,-6.2952,-6.3319,-6.4751,-6.5448,-6.5742,-6.6512,-6.7173,-6.7687,-5.2232,-5.1657,0.0,0.0,0.0,0.0,0.0,0.0,0.0,0.0,0.0,0.0,0.0,0.0,0.0,0.0,0.0,-6.5053,-6.6406,0.0,-5.6121,0.0,0.0,-5.2774,0.0,0.0,0.0,0.0,0.0,0.0,0.0,0.0,0.0,0.0,0.0,-5.2706,-5.3518,-5.5006,-5.6427,-5.7814,-5.8558,-5.9302,-5.9708,0.0,-5.734,-5.7915,-5.7915,0.0,0.0,-5.707,-5.7273,0.0,0.0,0.0,0.0,0.0,0.0,0.0,0.0,0.0,0.0,-5.3619,0.0,0.0,0.0,0.0,-5.0882,0.0,0.0,0.0,0.0,0.0,0.0,0.0,0.0,0.0,0.0,0.0,0.0,0.0,0.0,0.0,0.0,0.0,0.0,-4.4649,-4.5331,-4.6075,-4.6786,-4.7564,-4.8612,-4.9999,-5.1584,-5.2731,-5.3459,-5.4934,-5.6059,-5.6861,-5.6887,-5.7676,-5.9124,-5.9184,-6.0052,-6.1557,-6.1594,-6.2071,-6.278,-6.278,-6.3319,-6.4127,-6.4971,-6.5778,-6.6549,-6.7357,-6.7677,-6.7687,-5.382,0.0,0.0,0.0,0.0,0.0,0.0,-5.818,0.0,0.0,0.0,0.0,0.0,0.0,-7.5331,0.0,0.0,-6.9654,-6.7658,-6.3802,0.0,0.0,0.0,-5.5953,0.0,0.0,0.0,0.0,0.0,0.0,0.0,0.0,0.0,0.0,0.0,-5.2097,0.0,0.0,0.0,0.0,0.0,-5.8998,-5.9979,0.0,0.0,-5.8626,-5.8626,-5.8626,0.0,-5.8355,-5.8423,-5.8457,-5.7476,-5.734,-5.734,-5.6359,-5.6562,0.0,0.0,0.0,-5.5886,-5.5141,0.0,0.0,0.0,0.0,0.0,0.0,0.0,0.0,0.0,0.0,0.0,0.0,0.0,0.0,0.0,0.0,0.0,0.0,0.0,0.0,0.0,0.0,0.0,-4.4615,-4.5263,-4.6204,0.0,-4.8145,-4.928,-5.0763,-5.179,-5.2933,-5.4218,-5.5221,-5.6331,-5.7631,-5.7631,-5.8189,-5.9221,-5.9758,-6.0566,-6.163,-6.2144,-6.2548,-6.2842,-6.3429,-6.3833,-6.4237,-6.5558,-6.6256,-6.6586,-6.7393,-6.7687,-6.7687,-5.4741,-5.4011,-5.3348,0.0,0.0,0.0,0.0,0.0,0.0,0.0,-7.1514,0.0,-7.7546,0.0,-7.8672,0.0,-7.5879,-7.3443,-6.8639,-6.7049,0.0,-6.1467,-6.0385,0.0,0.0,0.0,0.0,0.0,0.0,-5.2029,0.0,0.0,0.0,0.0,0.0,0.0,0.0,0.0,-5.6867,0.0,0.0,-6.0047,0.0,0.0,-5.9235,-5.8998,0.0,-5.8626,-5.8626,-5.8626,-5.8964,-5.9268,-5.8524,-5.866,-5.8896,-5.7881,-5.8118,-5.8457,-5.7442,-5.7374,0.0,-5.6359,-5.575,0.0,-5.4126,0.0,0.0,0.0,0.0,0.0,0.0,0.0,0.0,0.0,0.0,0.0,0.0,0.0,0.0,0.0,0.0,0.0,0.0,0.0,-4.4615,-4.4615,-4.5026,-4.6045,0.0,0.0,-4.9855,-5.1926,-5.3015,-5.4146,-5.5419,-5.6134,-5.7029,-5.7997,-5.829,-5.8841,-5.9625,-6.0456,-6.1263,-6.2071,-6.2585,-6.278,-6.2842,-6.3429,-6.398,-6.464,-6.5668,-6.6402,-6.699,-6.7504,-6.7871,-6.8128,-5.4915,-5.4011,-5.3551,-5.3551,-5.479,0.0,0.0,0.0,-6.7325,0.0,-7.4291,-7.774,-7.9034,-8.0379,-8.0455,-7.8555,-7.8936,0.0,-7.0046,-7.0781,0.0,0.0,-6.3091,-6.2042,-5.8287,0.0,0.0,0.0,0.0,0.0,0.0,0.0,0.0,0.0,-5.3112,0.0,-5.4769,-5.7679,-5.937,-6.0216,-6.1704,-6.2279,-6.211,-6.0588,-5.9573,-5.893,-5.8152,-5.7881,-5.7881,-5.7881,-5.8863,-5.9911,-5.9235,-6.008,-6.0994,-5.9505,-5.9607,-5.9911,-5.8457,-5.8592,-5.8761,-5.7273,0.0,0.0,0.0,0.0,-5.4499,0.0,0.0,0.0,0.0,0.0,0.0,0.0,0.0,0.0,0.0,0.0,0.0,0.0,0.0,0.0,0.0,-4.4615,-4.4615,-4.4615,-4.4649,-4.5589,0.0,0.0,-5.043,-5.3343,-5.4974,-5.6169,-5.6912,-5.7607,-5.801,-5.807,-5.8877,-5.9661,-6.0493,-6.1263,-6.2034,-6.278,-6.278,-6.2817,-6.2879,-6.289,-6.3906,-6.5375,-6.5411,-6.6366,-6.7687,-6.7687,-6.8164,-6.8862,-5.478,-5.4422,-5.4329,0.0,-5.5101,-5.62,0.0,0.0,0.0,0.0,-7.682,-8.0914,-8.5692,-8.5726,-8.4994,-8.3987,-8.2245,0.0,0.0,0.0,0.0,-6.9688,-6.8335,-6.617,-6.2956,-6.1264,0.0,-5.5953,0.0,0.0,-5.3484,0.0,0.0,0.0,0.0,0.0,-5.4702,-5.6596,-5.8423,-6.0148,-6.052,-6.0689,0.0,0.0,-5.8693,-5.893,-5.8152,-5.7881,-5.7881,-5.7881,-5.8524,-5.9268,-5.9066,-6.008,-6.1095,-6.0114,-6.0757,-6.1603,-6.0689,-6.0554,-6.0351,-5.8829,-5.8017,-5.7239,0.0,0.0,0.0,0.0,0.0,0.0,0.0,0.0,0.0,0.0,0.0,0.0,0.0,0.0,0.0,0.0,0.0,0.0,0.0,-4.4919,-4.4615,-4.4615,-4.5094,-4.6357,0.0,0.0,0.0,-5.4158,-5.5188,-5.6082,-5.6912,-5.767,-5.8323,-5.8891,-5.9722,-6.0529,-6.13,-6.152,-6.2034,-6.278,-6.278,-6.3172,-6.3796,-6.442,-6.5264,-6.6256,-6.6843,-6.732,-6.7687,-6.7687,-6.7834,-6.8091,-5.5854,-5.585,0.0,-5.5615,0.0,0.0,-6.1099,0.0,0.0,-7.516,-7.9383,0.0,-8.584,-8.7162,-8.6936,-8.4823,-8.3265,0.0,0.0,0.0,0.0,-7.2496,-7.121,-6.9113,-6.6102,-6.3226,0.0,-5.7273,0.0,0.0,-5.3484,0.0,0.0,0.0,0.0,-5.3484,0.0,-5.6528,-5.8761,-6.1061,-6.0757,0.0,0.0,-5.9302,-5.893,-5.893,-5.8152,-5.7881,-5.7881,-5.7881,-5.8389,-5.9032,-5.9032,-5.9844,-6.0757,-6.0655,-6.1231,-6.1839,-6.14,-6.1535,-6.14,-5.9877,-5.9438,-5.8896,-5.707,-5.6968,-5.6968,0.0,0.0,0.0,0.0,0.0,0.0,0.0,0.0,0.0,0.0,0.0,0.0,0.0,0.0,0.0,-4.6718,-4.5974,-4.5563,-4.5563,-4.594,-4.7127,0.0,0.0,0.0,-5.4916,-5.6758,-5.7801,-5.7885,-5.9037,-5.965,-5.9735,-6.0529,-6.1153,-6.1594,-6.1961,-6.2365,-6.2817,-6.3209,-6.3649,-6.4163,-6.4971,-6.5778,-6.6586,-6.7393,-6.7687,-6.7687,-6.7687,-6.8128,-6.8788,0.0,0.0,0.0,0.0,0.0,0.0,0.0,-6.9236,0.0,-7.7657,0.0,-8.4597,-8.3874,-8.6686,-8.7288,-8.3966,0.0,-8.1471,-7.71,-7.7768,-7.6809,-7.3198,-7.2824,-7.1345,-6.8402,-6.4613,0.0,0.0,0.0,0.0,0.0,0.0,0.0,0.0,0.0,0.0,0.0,-5.6934,-5.9404,0.0,-6.1434,-6.1197,-6.0926,-6.0216,-5.9505,-5.8795,-5.8118,-5.7881,-5.7881,-5.7881,-5.8321,-5.8863,-5.8863,-5.937,-6.0114,-6.0926,-6.1231,-6.1298,-6.1298,-6.1772,-6.1873,-6.0351,-6.0554,-6.0554,-5.8389,-5.7949,-5.7645,-5.6292,-5.5412,-5.4837,0.0,0.0,0.0,0.0,0.0,0.0,0.0,0.0,0.0,0.0,0.0,0.0,0.0,-4.7361,-4.6786,-4.6786,-4.6887,-4.782,0.0,0.0,0.0,-5.5552,-5.8621,0.0,-5.9515,0.0,-6.1374,-6.0896,-6.1484,-6.1814,-6.1961,-6.2658,-6.3,-6.3172,-6.3943,-6.431,-6.4457,-6.5191,-6.5925,-6.6733,-6.743,-6.7687,-6.7687,-6.7797,-6.8788,-7.011,0.0,0.0,0.0,0.0,0.0,-6.9753,-7.3621,-7.6087,-7.8923,-8.2794,-8.5195,-8.7264,-8.9057,-8.8346,-8.7673,-8.7338,-8.5817,0.0,0.0,0.0,0.0,-7.6543,-7.5014,-7.3138,-7.077,-6.644,-6.3362,0.0,-5.7509,-5.5141,0.0,0.0,0.0,0.0,0.0,0.0,-5.4735,-5.6934,0.0,-5.8829,-6.0588,-6.0554,-5.9404,-5.9268,-5.8727,-5.8084,-5.7949,-5.7881,-5.7881,-5.7881,-5.7983,-5.8084,-5.8084,-5.8592,-5.9336,-6.008,-6.0791,-6.1298,-6.1298,-6.14,-6.1129,-5.9573,-5.9776,-5.9877,-5.8254,-5.8355,-5.8558,-5.7679,-5.6934,-5.6224,-5.5649,0.0,0.0,0.0,0.0,0.0,0.0,0.0,0.0,0.0,0.0,0.0,0.0,0.0,0.0,0.0,0.0,-4.8403,0.0,0.0,0.0,0.0,-5.807,0.0,0.0,0.0,-6.2218,-6.3429,-6.2879,-6.2989,-6.3649,-6.3796,-6.4237,-6.4897,-6.5044,-6.5485,-6.6072,-6.6219,-6.6769,-6.7504,-6.7614,-6.7687,-6.776,-6.8458,-6.9302,-7.011,0.0,0.0,0.0,0.0,0.0,0.0,0.0,-8.1889,0.0,-8.3958,-8.464,-8.5381,-8.6159,-8.723,-8.7594,-8.6793,-8.5475,-8.4253,-8.3307,-8.0945,-7.893,-7.7361,-7.5174,0.0,-7.1921,-6.7083,-6.4072,-6.2956,-5.8118,-5.5344,0.0,0.0,0.0,0.0,0.0,-5.4329,0.0,0.0,0.0,-5.9167,-6.0689,-6.0622,-5.9573,-5.9573,-5.9099,-5.8457,-5.8457,-5.8727,-5.893,-5.8152,-5.7881,-5.7881,-5.7881,-5.8152,-5.8558,-5.9302,-5.981,-6.0114,-6.0114,-6.0385,-6.052,-5.9776,-5.9844,-5.9911,-5.9201,-5.9032,-5.8795,-5.8051,-5.7306,-5.6461,-5.5344,-5.4228,0.0,0.0,0.0,0.0,0.0,0.0,0.0,0.0,0.0,0.0,0.0,0.0,0.0,0.0,0.0,-4.9061,-5.0503,0.0,0.0,0.0,0.0,0.0,0.0,0.0,0.0,-6.4714,-6.431,-6.431,-6.4714,-6.4714,-6.4934,-6.5338,-6.5742,-6.6145,-6.6512,-6.6953,-6.7357,-6.7687,-6.7687,-6.7944,-6.8385,-6.8752,-6.9669,-7.0734,0.0,-6.5287,0.0,0.0,-7.5359,0.0,-8.2356,-8.5986,-8.7545,-8.5013,-8.4458,-8.4134,-8.3514,-8.6297,-8.752,-8.5841,-8.4931,-8.4013,-8.2942,-8.0563,-7.864,-7.7441,-7.5288,-7.3617,-7.2428,-6.781,-6.4754,0.0,-5.8761,-5.5784,0.0,0.0,0.0,0.0,0.0,0.0,0.0,0.0,-5.8118,-5.9979,-6.1095,-6.1061,-6.0351,-6.0351,-5.9911,-5.9235,-5.9235,-5.9607,-5.9911,-5.8761,-5.8254,-5.8084,-5.7949,-5.7881,-5.8017,-5.8795,-5.9032,-5.9032,-5.9032,-5.9438,-5.9877,-5.9877,-5.9979,-6.0047,-5.9911,-5.9539,-5.9032,-5.8287,-5.7543,-5.663,-5.531,-5.4938,0.0,0.0,0.0,0.0,0.0,0.0,0.0,0.0,0.0,0.0,0.0,0.0,0.0,0.0,0.0,-4.961,-5.1034,-5.2626,0.0,0.0,0.0,-6.2401,-6.2108,0.0,-6.6109,0.0,-6.5485,-6.5411,-6.5558,-6.5558,-6.5668,-6.5852,-6.6659,-6.71,-6.732,-6.7944,-6.8201,-6.8201,-6.8201,-6.8605,-6.9192,-6.9376,-7.022,-7.1293,0.0,0.0,0.0,0.0,0.0,0.0,-8.4214,-8.7146,-8.9197,-8.8868,-8.8209,-8.7696,-8.7655,-8.7986,-8.7841,-8.6929,-8.6086,-8.5282,-8.4481,-8.2577,-8.0383,-7.7877,-7.6835,-7.5088,-7.244,-6.9488,-6.647,0.0,0.0,-5.7306,-5.46,0.0,0.0,0.0,0.0,0.0,0.0,-5.6934,-5.8287,-5.9302,-6.1434,-6.1839,-6.1197,-6.1197,-6.0689,-6.0013,-6.0013,-6.0047,-6.008,-5.9945,-5.9471,-5.8795,-5.8084,-5.7881,-5.8017,-5.8795,-5.9032,-5.9032,-5.9032,-5.9066,-5.9133,-5.9133,-5.9607,-5.9911,-5.9268,-5.9573,-5.981,-5.9066,-5.8321,-5.7543,-5.6731,-5.6055,-5.5378,0.0,0.0,0.0,0.0,0.0,0.0,0.0,0.0,0.0,0.0,0.0,0.0,0.0,0.0,-4.961,-5.1034,-5.2626,-5.4133,-5.5552,0.0,-6.2401,-6.3833,-6.4897,0.0,-6.7467,-6.5999,-6.5705,-6.6402,-6.6402,-6.6769,-6.7504,-6.8348,-6.9082,-6.9779,-6.9853,-6.9889,-6.9889,-6.9889,-6.9926,-7.0073,-7.0807,-7.1146,-7.1431,0.0,0.0,0.0,0.0,0.0,0.0,0.0,-8.8169,-8.8683,-8.8683,-8.839,-8.8023,-8.7545,-8.7472,-8.7043,-8.6101,-8.5436,-8.4348,-8.2706,-8.1198,-7.939,-7.7185,-7.6328,-7.5121,-7.3577,-7.161,-6.9002,0.0,0.0,-6.0102,-5.6562,-5.5987,0.0,0.0,0.0,-5.575,-5.6697,-5.8457,-5.9404,-5.981,-6.1637,-6.1941,-6.1298,-6.1298,-6.1095,-6.0825,-6.0825,-6.1095,-6.14,-6.096,-6.0317,-5.9539,-5.8795,-5.8558,-5.8626,-5.893,-5.9032,-5.9032,-5.9032,-5.9032,-5.9133,-5.9573,-5.9573,-5.9607,-6.025,-6.025,-6.0013,-5.9708,-5.9066,-5.8321,-5.7577,-5.6867,-5.6122,0.0,0.0,0.0,0.0,0.0,0.0,0.0,0.0,0.0,0.0,0.0,0.0,0.0,0.0,0.0,-5.1034,-5.3054,0.0,-5.5552,0.0,-6.2658,-6.3319,-6.5595,-6.7063,-6.7687,-6.7026,-6.6916,-6.721,-6.721,-6.765,-6.8458,-6.9265,-6.9816,-7.011,-7.011,-7.011,-7.011,-7.011,-7.0403,-7.0881,-7.1211,-7.1615,-7.2092,-7.7084,0.0,-7.9727,0.0,-8.538,-8.6407,-8.8978,-8.872,-8.8133,-8.7876,-8.7839,-8.7619,-8.7068,-8.6995,-8.6536,-8.5429,-8.4791,-8.3702,-8.1889,-8.0719,-7.9177,-7.7146,-7.6835,0.0,-7.3885,-7.2924,-7.0828,-6.7541,-6.5437,0.0,-5.8624,0.0,0.0,0.0,-5.6662,-5.7374,-5.8626,-5.9911,-6.0689,-6.1197,-6.2279,-6.2415,-6.1941,-6.1704,-6.1637,-6.1637,-6.1637,-6.1941,-6.2313,-6.1806,-6.1264,-6.0622,-5.9641,-5.9336,-5.9336,-5.9336,-5.9336,-5.9336,-5.9336,-5.9336,-5.9505,-6.025,-6.008,-5.9979,-6.1061,-6.0858,-6.0385,-6.0148,-5.9877,-5.9438,-5.8693,-5.8118,-5.7476,-5.6494,0.0,0.0,0.0,0.0,0.0,0.0,0.0,-5.3179,0.0,0.0,0.0,0.0,0.0,0.0,0.0,0.0,0.0,0.0,0.0,0.0,0.0,-6.6182,-6.7687,-6.7687,-6.7687,-6.7797,-6.8054,-6.8274,-6.8825,-6.9633,-7.022,-7.0587,-7.0807,-7.0807,-7.0807,-7.0807,-7.0807,-7.1138,-7.1651,-7.1651,-7.2018,-7.2496,-8.0131,-8.2223,-8.4609,-8.8611,-9.0005,-9.0262,-8.9492,-8.872,-8.7912,-8.7142,-8.7031,-8.7031,-8.6995,-8.6995,-8.6536,-8.5429,-8.4556,-8.3762,-8.2931,-8.2137,-8.0622,0.0,0.0,-7.7551,-7.2914,-7.3038,-7.1566,-6.8305,0.0,0.0,-6.0422,0.0,-5.8254,-5.8964,-5.8964,-5.937,-6.0148,-6.0926,-6.2144,-6.3463,-6.3497,-6.3497,-6.3396,-6.2651,-6.2381,-6.2381,-6.2381,-6.2381,-6.2381,-6.2381,-6.2381,-6.2076,-6.0554,-6.008,-6.008,-6.008,-6.008,-6.008,-6.008,-6.008,-6.0283,-6.1095,-6.1298,-6.1298,-6.1298,-6.1298,-6.1061,-6.025,-6.0723,-6.1028,-6.0216,-6.008,-5.9573,-5.8084,0.0,0.0,0.0,0.0,0.0,0.0,-5.3518,-5.3179,-5.2367,0.0,0.0,0.0,0.0,0.0,0.0,0.0,0.0,-5.79,-6.1117,0.0,-6.4053,-6.6476,-6.7687,-6.7687,-6.7687,-6.8128,-6.8898,-6.9706,-7.0513,-7.1256,-7.1256,-7.1762,-7.2459,-7.2459,-7.2459,-7.2459,-7.2459,-7.2496,-7.2496,-7.2496,-7.2496,-7.2496,-8.2884,-8.3875,-8.4976,-8.7362,-8.8426,-8.8867,-8.861,-8.8353,-8.8096,-8.7839,-8.7362,-8.6995,-8.6995,-8.6995,-8.6536,0.0,-8.5264,-8.4282,0.0,-8.1925,-8.0897,-7.8313,-7.8727,-7.7989,-7.5927,-7.5943,-7.4624,-7.1903,0.0,0.0,0.0,-6.204,-6.1095,-6.1332,-6.1332,-6.1738,-6.2482,-6.3226,-6.3835,-6.4208,-6.37,-6.3531,-6.3429,-6.2685,-6.2381,-6.2448,-6.2956,-6.2821,-6.2482,-6.299,-6.2821,-6.2313,-6.1806,-6.1332,-6.0926,-6.0926,-6.0926,-6.0926,-6.0926,-6.0926,-6.0994,-6.1231,-6.1298,-6.1434,-6.1941,-6.2042,-6.1975,-6.1704,-6.1467,-6.1231,-6.096,-6.0486,-5.9776,-5.8829,-5.7611,0.0,0.0,0.0,0.0,0.0,-5.3518,-5.3416,0.0,-5.3112,0.0,0.0,0.0,0.0,0.0,0.0,0.0,0.0,-6.1998,0.0,-6.5705,-6.7577,-6.8788,-6.9339,-6.9339,-6.9449,-6.9743,-7.055,-7.1064,-7.1329,-7.1872,-7.2275,-7.2496,-7.2496,-7.2496,-7.2496,-7.2496,-7.2496,-7.2496,-7.2496,-7.2496,-7.2569,-8.4682,-8.5306,-8.6004,-8.7619,-8.8316,-8.8647,-8.8647,-8.839,-8.8096,-8.7802,-8.7325,-8.6995,-8.6995,-8.6995,0.0,-8.5429,-8.5191,-8.4245,-8.2045,-8.1998,-8.1219,-7.9342,-7.9109,-7.8468,-7.7198,0.0,0.0,-7.4444,-7.3573,-7.1396,-6.7896,-6.5769,-6.4587,-6.42,-6.42,-6.4234,-6.4377,-6.4816,-6.5155,-6.5358,-6.4613,-6.4343,-6.4241,-6.3193,-6.2821,-6.2854,-6.3328,-6.3193,-6.2922,-6.3666,-6.3429,-6.2854,-6.3125,-6.2719,-6.2076,-6.1806,-6.1704,-6.1704,-6.1704,-6.1907,-6.2144,-6.2144,-6.2347,-6.2651,-6.3125,-6.3226,-6.3226,-6.3226,-6.2651,-6.2144,-6.2144,-6.1501,-6.0622,-5.9573,-5.8186,-5.6867,-5.5817,0.0,0.0,0.0,0.0,0.0,0.0,-5.4262,0.0,0.0,0.0,0.0,0.0,0.0,0.0,-6.0505,-6.3466,0.0,-6.7393,-6.8715,-6.9743,-7.055,-7.0844,-7.0844,-7.0587,-7.1394,-7.1945,-7.2239,-7.2716,-7.312,-7.3413,-7.3413,-7.3413,-7.3413,-7.3413,-7.3413,-7.3377,-7.3046,-7.3156,-7.345,-8.5637,-8.6407,-8.7435,0.0,-8.9308,0.0,-8.9382,-8.8757,-8.7986,-8.7215,-8.7105,-8.7068,-8.7031,-8.6995,-8.6571,-8.5506,0.0,0.0,0.0,-8.2321,-8.1633,-8.0943,-8.0204,-7.8934,-7.7044,-7.6287,-7.5925,-7.5925,-7.3754,-7.2238,-7.1304,-6.9741,-6.8505,-6.762,-6.7551,-6.6975,-6.6045,-6.6045,-6.6377,-6.6837,-6.6091,-6.5779,-6.5527,-6.414,-6.3599,-6.3599,-6.3632,-6.3632,-6.37,-6.4444,-6.4208,-6.37,-6.4377,-6.414,-6.3463,-6.2753,-6.2516,-6.2482,-6.2516,-6.3024,-6.3531,-6.3565,-6.4106,-6.4613,-6.4613,-6.4613,-6.4613,-6.4613,-6.4072,-6.3565,-6.3531,-6.2956,-6.1941,-6.0283,-5.8829,-5.7374,-5.5852,0.0,0.0,0.0,0.0,0.0,0.0,-5.5547,-5.5955,0.0,0.0,0.0,0.0,0.0,-6.1557,-6.2927,-6.5375,-6.7467,-6.9119,-6.9889,-7.0697,-7.155,-7.2312,-7.2275,-7.1505,-7.2312,-7.3046,-7.3707,-7.3744,-7.4221,-7.4918,-7.4918,-7.4918,-7.4918,-7.4918,-7.4918,-7.4808,-7.4074,-7.4258,-7.4808,0.0,0.0,-8.6591,-8.8206,-8.85,-8.8683,-8.9344,-8.9271,-8.883,-8.8023,-8.7912,-8.7692,-8.7068,-8.6995,-8.6891,-8.6607,-8.6425,-8.5694,-8.4268,-8.4012,-8.2761,-8.0204,-7.9874,-7.8972,-7.7249,-7.7029,-7.6956,-7.6956,-7.565,-7.4889,-7.4612,-7.2941,-7.2008,-7.175,-7.1186,-7.0439,-6.9689,-6.9689,-6.8955,-6.7798,-6.7079,-6.6365,-6.5595,-6.4681,-6.4343,-6.441,-6.4986,-6.4816,-6.4444,-6.5189,-6.4952,-6.4377,-6.4546,-6.4478,-6.4309,-6.414,-6.3666,-6.3362,-6.3937,-6.3802,-6.3666,-6.4208,-6.4478,-6.4613,-6.4613,-6.4613,-6.4613,-6.4613,-6.4478,-6.4174,-6.3632,-6.3362,-6.2381,-5.9708,-5.849,-5.7171,-5.5141,-5.4566,0.0,0.0,-5.548,-5.6224,-5.6055,-5.5987,-5.6779,0.0,0.0,0.0,0.0,-6.4329,-6.5595,-6.4725,-6.7063,-6.9412,-7.1615,-7.1835,-7.2642,-7.4074,-7.4258,-7.3927,-7.3156,-7.3964,-7.4111,-7.3707,-7.4368,-7.4735,-7.4918,-7.4918,-7.4918,-7.4918,-7.4918,-7.4918,-7.4882,-7.4698,-7.4735,-7.4955,-8.6738,-8.6885,-8.7399,-8.9014,-8.9014,-8.9014,-8.9858,-8.9674,-8.9271,-8.883,-8.8426,-8.8023,-8.7619,-8.7215,-8.6995,-8.6995,-8.6334,-8.5527,-8.4646,-8.3911,-8.27,-8.0975,-8.0534,-7.9764,-7.8479,-7.8075,-7.7708,-7.7273,-7.6761,-7.6498,-7.6461,-7.5525,-7.4648,-7.3868,-7.3475,-7.2406,-7.0912,-7.0912,-7.0128,-6.8838,-6.8455,-6.798,-6.7411,-6.6181,-6.5749,-6.5739,-6.5732,-6.5425,-6.5222,-6.5933,-6.5696,-6.5155,-6.5493,-6.5358,-6.5155,-6.5527,-6.485,-6.4106,-6.4478,-6.4546,-6.4681,-6.5425,-6.5628,-6.5628,-6.5628,-6.5628,-6.5628,-6.5628,-6.5324,-6.4986,-6.458,-6.3666,-6.2245,-5.9877,-5.8321,-5.6731,-5.4837,-5.4296,0.0,-5.548,-5.6596,-5.7577,-5.8254,-5.9268,-6.0044,-6.0426,0.0,0.0,-6.3964,-6.7761,-6.8972,-6.7026,-6.9633,-7.1908,-7.3597,-7.3964,-7.4404,-7.4918,-7.5285,-7.5028,-7.4258,-7.4698,-7.4882,-7.4808,-7.5249,-7.5652,-7.5989,-7.5989,-7.5989,-7.5989,-7.5989,-7.5989,-7.5983,-7.5579,-7.5689,-7.6019,-8.8059,-8.8316,-8.8867,-9.0335,-8.9931,-8.9711,-9.0629,-9.0115,-8.9565,-8.9565,-8.9014,-8.8463,-8.8243,-8.7582,-8.7142,-8.7031,-8.5637,-8.4792,-8.4792,-8.3398,-8.2443,-8.2186,-8.1415,-8.0608,-7.98,-7.8993,-7.8185,-7.7273,-7.7273,-7.7273,-7.7273,-7.7273,-7.6527,-7.5083,-7.5083,-7.3814,-7.1693,-7.1693,-7.1054,-7.0096,-7.0096,-6.9955,-6.9566,-6.8062,-6.7481,-6.7367,-6.6616,-6.6208,-6.6147,-6.6826,-6.6498,-6.5967,-6.6609,-6.644,-6.6136,-6.6643,-6.6,-6.5087,-6.4952,-6.5459,-6.6203,-6.6981,-6.7151,-6.7151,-6.7151,-6.7151,-6.7151,-6.7151,-6.6643,-6.6136,-6.5899,-6.414,-6.2144,-6.0385,-5.8254,-5.6292,-5.4803,0.0,-5.4735,-5.6731,-5.8017,-5.9343,-6.0887,-6.3489,-6.4213,-6.2191,-6.626,-6.8144,0.0,-7.0522,-7.1945,-6.9889,-7.2459,-7.4258,-7.5065,-7.5873,-7.5946,-7.5285,-7.5946,-7.5873,-7.5102,-7.5212,-7.5579,-7.6093,-7.624,-7.668,-7.7273,-7.7273,-7.7273,-7.7273,-7.7273,-7.7273,-7.72,-7.6533,-7.6717,-7.72,-8.8169,-8.8757,-8.9528,-9.0445,-8.9931,-8.9931,-9.14,-9.0922,-9.0408,-9.0408,-9.0298,-8.9711,-8.8353,-8.8096,-8.7729,-8.7068,-8.6151,-8.56,-8.56,-8.4756,-8.3618,-8.226,-8.1415,-8.0608,-7.98,-7.8993,-7.8185,-7.7273,-7.7273,-7.7273,-7.7273,-7.7273,-7.7138,-7.6899,-7.6899,-7.6324,-7.5286,-7.5286,-7.3965,-7.1873,-7.1873,-7.1006,-6.9672,-6.9388,-6.9317,-6.9281,-6.9137,-6.8511,-6.7851,-6.799,-6.7426,-6.6643,-6.6779,-6.7151,-6.7455,-6.6948,-6.7083,-6.7252,-6.6643,-6.7015,-6.776,-6.8538,-6.8741,-6.8741,-6.8741,-6.8741,-6.8741,-6.8741,-6.8639,-6.8166,-6.688,-6.5324,-6.3362,-6.0554,-5.8254,-5.6292,-5.4803,0.0,-5.6664,-5.7611,-6.0622,-6.3315,-6.5026,-6.563,-6.6917,-6.9336,-6.9178,-6.9648,-7.1296,-7.3392,-7.4368,-7.4001,-7.4478,-7.5102,-7.5909,-7.6717,-7.7053,-7.6907,-7.7053,-7.6717,-7.5946,-7.6644,-7.6644,-7.613,-7.6827,-7.7163,-7.7273,-7.7273,-7.7273,-7.7273,-7.7273,-7.7273,-7.7273,-7.7163,-7.7163,-7.7273,-8.9417,-8.9784,-9.0298,-9.1106,-9.0959,-9.0959,-9.1693,-9.1473,-9.1253,-9.1253,-9.0886,-9.0335,-8.9564,-8.872,-8.8059,-8.7692,-8.6921,-8.6444,-8.6444,-8.5306,-8.4095,-8.292,-8.248,-8.1525,-7.9869,-7.8993,-7.8185,-7.7273,-7.7273,-7.7273,-7.7273,-7.7273,-7.7273,-7.7273,-7.7273,-7.6864,-7.6093,-7.6093,-7.5184,-7.3713,-7.3713,-7.3239,-7.246,-7.1924,-7.1754,-7.1614,-7.0665,-7.0057,-6.9619,-6.9196,-6.872,-6.8374,-6.8374,-6.886,-6.9337,-6.8464,-6.7781,-6.732,-6.7387,-6.7658,-6.8098,-6.891,-6.9113,-6.9113,-6.9113,-6.9113,-6.9113,-6.9113,-6.9113,-6.8876,-6.8166,-6.617,-6.4275,-6.326,-5.9877,0.0,0.0,-5.7205,-5.8339,-6.0829,-6.2872,-6.5227,-6.8223,-6.9008,-6.974,-7.087,-7.135,-7.2174,-7.3714,-7.4515,-7.5322,-7.6203,-7.6173,-7.6387,-7.6754,-7.709,-7.7273,-7.7273,-7.7273,-7.709,-7.6754,-7.7127,-7.709,-7.679,-7.7127,-7.7273,-7.7273,-7.7273,-7.7273,-7.7273,-7.7273,-7.7273,-7.7273,-7.7273,-7.7273,-7.7273,-9.0482,-9.0739,-9.1069,-9.1693,-9.1803,-9.1803,-9.1803,-9.1803,-9.1803,-9.1803,-9.1253,-9.0812,-9.0629,-8.9491,-8.8683,-8.85,-8.7912,-8.7509,-8.7288,-8.6114,-8.5013,-8.4022,-8.3618,-8.2443,-8.0388,-7.9396,-7.8479,-7.7598,-7.7384,-7.7273,-7.7273,-7.7273,-7.7273,-7.7273,-7.7273,-7.6943,-7.6387,-7.6387,-7.5909,-7.5175,-7.5175,-7.5065,-7.4792,-7.4097,-7.3805,-7.3667,-7.2285,-7.1692,-7.141,-7.077,-7.0452,-7.0274,-7.0274,-7.0806,-7.1227,-7.0301,-6.9065,-6.8056,-6.837,-6.8436,-6.8605,-6.9417,-6.962,-6.962,-6.962,-6.962,-6.962,-6.962,-6.962,-6.9553,-6.9383,-6.7184,-6.5392,-6.5425,0.0,0.0,0.0,-5.9619,-6.0766,-6.4036,-6.5558,-6.7615,-7.0902,-7.2211,-7.2656,-7.2083,-7.3593,-7.4735,-7.5175,-7.5359,-7.5989,-7.7237,-7.7273,-7.7273,-7.7273,-7.7273,-7.7273,-7.7273,-7.7273,-7.7273,-7.7273,-7.7273,-7.7273,-7.7273,-7.7273,-7.7273,-7.7273,-7.7273,-7.7273,-7.7273,-7.7273,-7.7273,-7.7273,-7.7273,-7.7273,-7.7273,-9.0592,-9.1216,-9.173,-9.1803,-9.1803,-9.1803,-9.1803,-9.1803,-9.1803,-9.1803,-9.173,-9.1436,-9.0702,-9.0482,-9.0115,-8.9381,-8.9235,-8.894,-8.8169,-8.7986,-8.7252,-8.5673,-8.4205,-8.2994,-8.2039,-8.0498,-7.9323,-7.8516,-7.7708,-7.7273,-7.7273,-7.7273,-7.7273,-7.7273,-7.7273,-7.7273,-7.72,-7.72,-7.6754,-7.6019,-7.6019,-7.5579,-7.4888,-7.4822,-7.4792,-7.4792,-7.4659,-7.4056,-7.33,-7.3264,-7.2615,-7.1905,-7.1905,-7.2436,-7.286,-7.215,-7.1829,-7.145,-7.0328,-7.0026,-7.0195,-7.0973,-7.1142,-7.1142,-7.1142,-7.1142,-7.1142,-7.1142,-7.1142,-7.0939,-7.0229,-6.8774,-6.7015,-6.5019,0.0,0.0,-6.1502,-6.3302,-6.4946,-6.5741,-6.9233,-7.1934,-7.289,-7.4547,-7.5554,-7.5702,-7.6515,-7.6754,-7.6056,-7.6717,-7.7163,-7.7273,-7.7273,-7.7273,-7.7273,-7.7273,-7.7273,-7.7273,-7.7273,-7.7273,-7.7273,-7.7273,-7.7273,-7.7273,-7.7273,-7.7273,-7.7273,-7.7273,-7.7273,-7.7273,-7.7273,-7.7273,-7.7273,-7.7273,-7.7273,-7.7273,-9.1326,-9.1583,-9.1803,-9.1803,-9.1803,-9.1803,-9.1803,-9.1803,-9.1803,-9.1803,-9.1803,-9.1693,-9.1363,-9.0922,-9.0482,-9.0188,-8.9675,-8.9235,-8.8977,-8.85,-8.7472,-8.5857,-8.4756,-8.3544,-8.2223,-8.1599,-8.0645,-7.9323,-7.8516,-7.8112,-7.8112,-7.753,-7.7273,-7.7273,-7.7273,-7.7273,-7.7273,-7.7273,-7.7127,-7.6864,-7.6864,-7.665,-7.6393,-7.6393,-7.6393,-7.6319,-7.5836,-7.5434,-7.5041,-7.4535,-7.4128,-7.3841,-7.3841,-7.4348,-7.4938,-7.4505,-7.3939,-7.3345,-7.2848,-7.2405,-7.207,-7.2199,-7.2236,-7.2056,-7.1412,-7.1312,-7.1312,-7.1312,-7.1312,-7.121,-7.0939,-6.9654,-6.8673,-6.8741,0.0,-6.5699,-6.6396,-6.7411,-6.8602,-6.9875,-7.1659,-7.333,-7.469,-7.54,-7.5815,-7.5894,-7.6773,-7.7163,-7.6864,-7.7127,-7.7273,-7.7273,-7.7273,-7.7273,-7.7273,-7.7273,-7.7273,-7.7273,-7.7273,-7.7273,-7.7273,-7.7273,-7.7273,-7.7273,-7.7273,-7.7273,-7.7273,-7.7273,-7.7273,-7.7273,-7.7273,-7.7273,-7.7273,-7.7273,-7.7273,-7.7273,-9.1803,-9.1803,-9.1803,-9.1803,-9.1803,-9.1803,-9.1803,-9.1803,-9.1803,-9.1803,-9.1803,-9.1803,-9.1803,-9.1326,-9.0996,-9.0996,-9.0482,-9.0078,-8.9821,-8.9014,-8.7876,-8.6261,-8.5416,-8.4462,-8.3361,-8.259,-8.1636,-8.0534,-7.925,-7.8589,-7.8589,-7.7708,-7.7273,-7.7273,-7.7273,-7.7273,-7.7273,-7.7273,-7.7273,-7.7273,-7.7273,-7.7273,-7.7273,-7.7273,-7.7273,-7.7237,-7.668,-7.6497,-7.6387,-7.5836,-7.5652,-7.5652,-7.5652,-7.6056,-7.6448,-7.6316,-7.5789,-7.5263,-7.5263,-7.4869,-7.4189,-7.3072,-7.2797,-7.254,-7.1546,-7.1546,-7.1688,-7.1356,-7.1786,-7.2013,-7.1446,-7.0741,-7.0361,-7.0578,-6.9514,-6.8967,-6.9805,-7.0807,-7.1912,-7.3002,-7.3962,-7.4829,-7.5716,-7.6094,-7.6264,-7.6264,-7.6888,-7.7273,-7.7273,-7.7273,-7.7273,-7.7273,-7.7273,-7.7273,-7.7273,-7.7273,-7.7273,-7.7273,-7.7273,-7.7273,-7.7273,-7.7273,-7.7273,-7.7273,-7.7273,-7.7273,-7.7273,-7.7273,-7.7273,-7.7273,-7.7273,-7.7273,-7.7273,-7.7273,-7.7273,-7.7273,-9.1803,-9.1803,-9.1803,-9.1803,-9.1803,-9.1803,-9.1803,-9.1803,-9.1803,-9.1803,-9.1803,-9.1803,-9.1803,-9.1803,-9.1803,-9.1803,-9.1803,-9.1473,-9.0665,-8.9858,-8.8685,-8.7105,-8.6261,-8.5783,-8.5783,-8.3434,-8.2223,-8.2186,-7.98,-7.8626,-7.8589,-7.7745,-7.731,-7.731,-7.731,-7.731,-7.7273,-7.7273,-7.7273,-7.7273,-7.7273,-7.7273,-7.7273,-7.7273,-7.7273,-7.7273,-7.7273,-7.7273,-7.7273,-7.7273,-7.7273,-7.7273,-7.7273,-7.7273,-7.7273,-7.7273,-7.7273,-7.7273,-7.731,-7.731,-7.6599,-7.3576,-7.2838,-7.254,-7.1546,-7.2099,-7.254,-7.1546,-7.2914,-7.369,-7.1688,-7.2142,-7.2015,-6.9533,-7.0704,-7.1724,-7.1054,-7.3237,-7.4842,-7.4627,-7.6186,-7.6925,-7.5925,-7.6728,-7.731,-7.731,-7.731,-7.731,-7.731,-7.731,-7.731,-7.731,-7.731,-7.731,-7.7273,-7.7273,-7.7273,-7.7273,-7.7273,-7.7273,-7.7273,-7.7273,-7.7273,-7.7273,-7.7273,-7.7273,-7.7273,-7.7273,-7.7273,-7.7273,-7.7273,-7.7273,-7.7273,-7.7273,-7.7273,-7.7273,-9.1803,-9.1803,-9.1803,-9.1803,-9.1803,-9.1803,-9.1803,-9.1803,-9.1803,-9.1803,-9.1803,-9.1803,-9.1803,-9.1803,-9.1803,-9.1803,-9.1803,-9.1473,-9.0665,-9.0408,-8.9784,-8.8721,-8.7912,-8.6958,-8.582,-8.4535,-8.3618,-8.303,-8.1195,-8.0277,-8.0277,-7.9433,-7.8736,-7.8222,-7.8222,-7.7892,-7.7273,-7.7273,-7.7273,-7.7273,-7.7273,-7.7273,-7.7273,-7.7273,-7.7273,-7.7273,-7.7273,-7.7273,-7.7273,-7.7273,-7.7273,-7.7273,-7.7273,-7.7273,-7.7273,-7.7273,-7.7273,-7.742,-7.8075,-7.8222,-7.7687,-7.5478,-7.4903,-7.4647,-7.365,-7.4076,-7.462,-7.4337,-7.4738,-7.4971,-7.4377,-7.4041,-7.3593,-7.2858,-7.3824,-7.458,-7.4363,-7.5625,-7.6558,-7.6491,-7.6972,-7.7401,-7.7728,-7.8029,-7.8442,-7.8993,-7.9029,-7.9029,-7.9029,-7.9029,-7.8809,-7.8222,-7.8222,-7.7928,-7.731,-7.7273,-7.7273,-7.7273,-7.7273,-7.7273,-7.7273,-7.7273,-7.7273,-7.7273,-7.7273,-7.7273,-7.7273,-7.7273,-7.7273,-7.7273,-7.7273,-7.7273,-7.7273,-7.7273,-7.7273,-7.7273,-9.1803,-9.1803,-9.1803,-9.1803,-9.1803,-9.1803,-9.1803,-9.1803,-9.1803,-9.1803,-9.1803,-9.1803,-9.1803,-9.1803,-9.1803,-9.1803,-9.1803,-9.1583,-9.1106,-9.1069,-9.0739,-8.9931,-8.9417,-8.839,-8.6775,-8.5967,-8.5159,-8.4352,-8.2737,-8.1782,-8.1452,-8.0645,-7.9837,-7.9066,-7.9066,-7.8772,-7.8259,-7.7965,-7.7818,-7.7781,-7.742,-7.7273,-7.7273,-7.7273,-7.7273,-7.7273,-7.7273,-7.7273,-7.7273,-7.7273,-7.7273,-7.7273,-7.7273,-7.7273,-7.7347,-7.7708,-7.7818,-7.8002,-7.8846,-7.9066,-7.8793,-7.7655,-7.7036,-7.648,-7.5496,-7.5927,-7.647,-7.6057,-7.6619,-7.6948,-7.6133,-7.5929,-7.5613,-7.4882,-7.5908,-7.6617,-7.6292,-7.717,-7.7928,-7.8259,-7.8002,-7.8148,-7.8993,-7.9066,-7.9286,-7.9764,-7.98,-7.98,-7.98,-7.98,-7.9433,-7.8626,-7.8589,-7.8185,-7.731,-7.7273,-7.7273,-7.7273,-7.7273,-7.7273,-7.7273,-7.7273,-7.7273,-7.7273,-7.7273,-7.7273,-7.7273,-7.7273,-7.7273,-7.7273,-7.7273,-7.7273,-7.7273,-7.7273,-7.7273,-7.7273,-9.1803,-9.1803,-9.1803,-9.1803,-9.1803,-9.1803,-9.1803,-9.1803,-9.1803,-9.1803,-9.1803,-9.1803,-9.1803,-9.1803,-9.1803,-9.1803,-9.1803,-9.1803,-9.1803,-9.1803,-9.1473,-9.0739,-9.0702,-9.0005,-8.8463,-8.7509,-8.6628,-8.5783,-8.4278,-8.3104,-8.2296,-8.1562,-8.0755,-7.991,-7.991,-7.9874,-7.9727,-7.9029,-7.8699,-7.8626,-7.7855,-7.7494,-7.7494,-7.742,-7.7457,-7.7494,-7.742,-7.7457,-7.7494,-7.742,-7.7347,-7.731,-7.7384,-7.742,-7.7567,-7.8442,-7.8699,-7.8883,-7.969,-7.991,-7.991,-8.0094,-7.936,-7.8386,-7.7328,-7.7846,-7.8314,-7.7471,-7.8776,-7.953,-7.7549,-7.7882,-7.7918,-7.6146,-7.7272,-7.8056,-7.7368,-7.8074,-7.8993,-7.969,-7.914,-7.9029,-7.98,-8.0021,-8.0131,-8.0204,-8.0204,-8.0204,-8.0131,-8.0094,-7.9727,-7.8846,-7.8809,-7.8405,-7.753,-7.7494,-7.742,-7.7273,-7.7273,-7.7273,-7.7273,-7.7273,-7.7273,-7.7273,-7.7273,-7.7273,-7.7273,-7.7273,-7.7273,-7.7273,-7.7273,-7.7273,-7.7273,-7.7273,-7.7273,-7.7273,-9.1803,-9.1803,-9.1803,-9.1803,-9.1803,-9.1803,-9.1803,-9.1803,-9.1803,-9.1803,-9.1803,-9.1803,-9.1803,-9.1803,-9.1803,-9.1803,-9.1803,-9.1803,-9.1803,-9.1803,-9.173,-9.1546,-9.1546,-9.1069,-9.0115,-8.8059,-8.6628,-8.5783,-8.4829,-8.3948,-8.3141,-8.2957,-8.2113,-8.0755,-8.0755,-8.0388,-7.9764,-7.958,-7.9543,-7.9507,-7.9323,-7.925,-7.9176,-7.8552,-7.8699,-7.9176,-7.8552,-7.8736,-7.914,-7.8516,-7.7855,-7.742,-7.8112,-7.8332,-7.8479,-7.9286,-7.9543,-7.969,-8.0534,-8.0755,-8.1048,-8.2296,-8.2458,-8.1892,-8.0409,-8.0728,-8.1453,-8.1868,-8.2288,-8.2308,-8.1209,-8.0655,-8.0064,-7.9026,-7.9194,-7.9397,-7.9214,-7.9411,-7.958,-7.9764,-7.9653,-7.9837,-8.0645,-8.1893,-8.2884,-8.3508,-8.3544,-8.3287,-8.2663,-8.2627,-8.1966,-8.0534,-8.0498,-8.0094,-7.925,-7.925,-7.8589,-7.7273,-7.7273,-7.7273,-7.7273,-7.7273,-7.7273,-7.7273,-7.7273,-7.7273,-7.7273,-7.7273,-7.7273,-7.7273,-7.7273,-7.7273,-7.7273,-7.7273,-7.7273,-7.7273,-9.1803,-9.1803,-9.1803,-9.1803,-9.1803,-9.1803,-9.1803,-9.1803,-9.1803,-9.1803,-9.1803,-9.1803,-9.1803,-9.1803,-9.1803,-9.1803,-9.1803,-9.1803,-9.1803,-9.1803,-9.1803,-9.1803,-9.1803,-9.1436,-9.0629,-8.9381,-8.8133,-8.6921,-8.6151,-8.5343,-8.4535,-8.4535,-8.3911,-8.27,-8.2333,-8.1929,-8.1452,-8.0681,-8.0351,-8.0351,-7.9947,-7.98,-7.9727,-7.9323,-7.9433,-7.9727,-7.9323,-7.9433,-7.9727,-7.9286,-7.8883,-7.8589,-7.9029,-7.9176,-7.9396,-8.0571,-8.0938,-8.1195,-8.2406,-8.2737,-8.292,-8.3765,-8.3985,-8.3765,-8.292,-8.303,-8.3471,-8.3911,-8.3985,-8.3838,-8.3434,-8.2994,-8.2443,-8.1636,-8.1819,-8.1966,-8.1562,-8.1525,-8.1672,-8.2039,-8.1746,-8.1819,-8.2627,-8.3471,-8.4168,-8.4572,-8.4609,-8.4425,-8.3985,-8.3985,-8.3251,-8.1636,-8.1562,-8.1012,-7.98,-7.98,-7.936,-7.8479,-7.8112,-7.7928,-7.7928,-7.7494,-7.7273,-7.7273,-7.7273,-7.7273,-7.7273,-7.7273,-7.7273,-7.7273,-7.7273,-7.7273,-7.7273,-7.7273,-7.7273,-7.7273,-9.2024,-9.2024,-9.2024,-9.2024,-9.2024,-9.2024,-9.2024,-9.1913,-9.1803,-9.1803,-9.1803,-9.1803,-9.1803,-9.1803,-9.1803,-9.1803,-9.1803,-9.1803,-9.1803,-9.1803,-9.1803,-9.1803,-9.1803,-9.1473,-9.0812,-9.0665,-8.9821,-8.8206,-8.7692,-8.6848,-8.5783,-8.593,-8.549,-8.4572,-8.3911,-8.3618,-8.3544,-8.2186,-8.1636,-8.1562,-8.0865,-8.0534,-8.0388,-8.0241,-8.0204,-8.0167,-8.0021,-7.9984,-8.0021,-8.0314,-8.0204,-8.0021,-8.0314,-8.0424,-8.0681,-8.2186,-8.259,-8.2884,-8.4242,-8.4609,-8.4646,-8.4756,-8.4792,-8.4866,-8.5159,-8.5013,-8.4829,-8.4976,-8.5013,-8.4976,-8.4829,-8.4792,-8.4535,-8.3765,-8.4168,-8.4389,-8.3728,-8.3618,-8.3875,-8.4535,-8.4022,-8.3911,-8.4719,-8.4657,-8.4659,-8.5013,-8.484,-8.4733,-8.4792,-8.4792,-8.4132,-8.2663,-8.248,-8.1746,-8.0424,-8.0277,-8.0204,-8.0204,-7.9396,-7.8919,-7.8772,-7.7928,-7.7494,-7.7494,-7.7347,-7.7273,-7.7273,-7.7273,-7.7273,-7.7273,-7.7273,-7.7273,-7.7273,-7.7273,-7.7273,-7.7273,-9.2941,-9.2941,-9.2941,-9.2941,-9.2941,-9.2941,-9.2941,-9.2281,-9.1803,-9.1803,-9.1803,-9.1803,-9.1803,-9.1803,-9.1803,-9.1803,-9.1803,-9.1803,-9.1803,-9.1803,-9.1803,-9.1803,-9.1803,-9.173,-9.1657,-9.0959,-8.9821,-8.8206,-8.8793,-8.7949,-8.582,-8.6518,-8.604,-8.4609,-8.4499,-8.4462,-8.4425,-8.4205,-8.4095,-8.4095,-8.3985,-8.3544,-8.2847,-8.215,-8.1856,-8.1782,-8.1085,-8.0828,-8.1048,-8.2443,-8.2003,-8.1085,-8.248,-8.292,-8.3104,-8.4022,-8.4278,-8.4315,-8.4535,-8.4609,-8.4756,-8.5453,-8.5637,-8.6004,-8.7399,-8.6628,-8.582,-8.6554,-8.6701,-8.6481,-8.5747,-8.5637,-8.538,-8.4572,-8.4535,-8.4572,-8.4462,-8.4462,-8.4499,-8.4609,-8.4499,-8.4756,-8.5563,-8.4755,-8.4864,-8.6559,-8.5774,-8.5337,-8.5603,-8.5637,-8.5196,-8.4315,-8.3618,-8.3141,-8.292,-8.2223,-8.1856,-8.1856,-8.1048,-8.0314,-7.958,-7.8809,-7.8405,-7.8369,-7.7635,-7.7273,-7.7273,-7.7273,-7.7273,-7.7273,-7.7273,-7.7273,-7.7273,-7.7273,-7.7273,-7.7273,-9.3749,-9.3749,-9.3749,-9.3749,-9.3418,-9.3088,-9.3088,-9.2758,-9.2354,-9.184,-9.2207,-9.2354,-9.184,-9.1803,-9.1803,-9.1803,-9.1803,-9.1803,-9.1803,-9.1803,-9.1803,-9.1803,-9.1803,-9.1803,-9.1803,-9.1436,-9.0702,-8.9528,-8.9454,-8.8867,-8.7802,-8.7729,-8.7288,-8.6554,-8.5673,-8.527,-8.5233,-8.4792,-8.4609,-8.4609,-8.4609,-8.4389,-8.4022,-8.3691,-8.3544,-8.3508,-8.3141,-8.303,-8.3141,-8.3838,-8.3618,-8.3141,-8.3875,-8.4058,-8.4242,-8.5013,-8.56,-8.604,-8.6481,-8.6958,-8.7362,-8.7729,-8.7802,-8.8023,-8.872,-8.8316,-8.7802,-8.7692,-8.7325,-8.6885,-8.6554,-8.6481,-8.6371,-8.6004,-8.6334,-8.6444,-8.6004,-8.6334,-8.6628,-8.6628,-8.6628,-8.6738,-8.7105,-8.57,-8.5144,-8.5991,-8.5582,-8.5361,-8.5519,-8.613,-8.6114,-8.5306,-8.4499,-8.3875,-8.3398,-8.259,-8.2186,-8.2186,-8.1819,-8.1232,-8.0424,-7.9617,-7.9029,-7.8589,-7.8185,-7.7781,-7.7273,-7.7273,-7.7273,-7.7273,-7.7273,-7.7273,-7.7273,-7.7273,-7.7273,-7.7273]},{"header":{"parameterUnit":"m.s-1","parameterCategory":1,"la1":30.6,"la2":28.766,"lo1":-90.7593,"lo2":-88.6598,"dx":0.0162,"dy":0.0183,"nx":116,"ny":114,"refTime":"2023-02-14T06:00:00:Z","depth":0,"parameterNumber":3,"parameterNumberName":"V-component_of_WINDS"},"data":[0.0,0.0,0.0,0.0,0.0,0.0,0.0,0.0,0.0,0.0,0.0,0.0,0.0,0.0,0.0,0.0,0.0,0.0,0.0,0.0,0.0,0.0,0.0,0.0,0.0,0.0,0.0,0.0,0.0,0.0,0.0,0.0,0.0,0.0,0.0,0.0,0.0,0.0,0.0,0.0,0.0,0.0,0.0,0.0,0.0,0.0,0.0,0.0,0.0,0.0,0.0,0.0,0.0,0.0,0.0,0.0,0.0,0.0,0.0,0.0,0.0,0.0,0.0,0.0,0.0,0.0,0.0,0.0,0.0,0.0,0.0,0.0,0.0,0.0,0.0,0.0,0.0,0.0,0.0,0.0,0.0,0.0,0.0,0.0,0.0,0.0,0.0,0.0,0.0,0.0,0.0,0.0,0.0,0.0,0.0,0.0,0.0,0.0,0.0,0.0,0.0,0.0,0.0,0.0,0.0,0.0,0.0,0.0,0.0,0.0,0.0,0.0,0.0,0.0,0.0,0.0,0.0,0.0,0.0,0.0,0.0,0.0,0.0,0.0,0.0,0.0,0.0,0.0,0.0,0.0,0.0,0.0,0.0,0.0,0.0,0.0,0.0,0.0,0.0,0.0,0.0,0.0,0.0,0.0,0.0,0.0,0.0,0.0,0.0,0.0,0.0,0.0,0.0,0.0,0.0,0.0,0.0,0.0,0.0,0.0,0.0,0.0,0.0,0.0,0.0,0.0,0.0,0.0,0.0,0.0,0.0,0.0,0.0,0.0,0.0,0.0,0.0,0.0,0.0,0.0,0.0,0.0,0.0,0.0,0.0,0.0,0.0,0.0,0.0,0.0,0.0,0.0,0.0,0.0,0.0,0.0,0.0,0.0,0.0,0.0,0.0,0.0,0.0,0.0,0.0,0.0,0.0,0.0,0.0,0.0,0.0,0.0,0.0,0.0,0.0,0.0,0.0,0.0,0.0,0.0,0.0,0.0,0.0,0.0,0.0,0.0,0.0,0.0,0.0,0.0,0.0,0.0,0.0,0.0,0.0,0.0,0.0,0.0,0.0,0.0,0.0,0.0,0.0,0.0,0.0,0.0,0.0,0.0,0.0,0.0,0.0,0.0,0.0,0.0,0.0,0.0,0.0,0.0,0.0,0.0,0.0,0.0,0.0,0.0,0.0,0.0,0.0,0.0,0.0,0.0,0.0,0.0,0.0,0.0,0.0,0.0,0.0,0.0,0.0,0.0,0.0,0.0,0.0,0.0,0.0,0.0,0.0,0.0,0.0,0.0,0.0,0.0,0.0,0.0,0.0,0.0,0.0,0.0,0.0,0.0,0.0,0.0,0.0,0.0,0.0,0.0,0.0,0.0,0.0,0.0,0.0,0.0,0.0,0.0,0.0,0.0,0.0,0.0,0.0,0.0,0.0,0.0,0.0,0.0,0.0,0.0,0.0,0.0,0.0,0.0,0.0,0.0,0.0,0.0,0.0,0.0,0.0,0.0,0.0,0.0,0.0,0.0,0.0,0.0,0.0,0.0,0.0,0.0,0.0,0.0,0.0,0.0,0.0,0.0,0.0,0.0,0.0,0.0,0.0,0.0,0.0,0.0,0.0,0.0,0.0,0.0,0.0,0.0,0.0,0.0,0.0,0.0,0.0,0.0,0.0,0.0,0.0,0.0,0.0,0.0,0.0,0.0,0.0,0.0,0.0,0.0,0.0,0.0,0.0,0.0,0.0,0.0,0.0,0.0,0.0,0.0,0.0,0.0,0.0,0.0,0.0,0.0,0.0,0.0,0.0,0.0,0.0,0.0,0.0,0.0,0.0,0.0,0.0,0.0,0.0,0.0,0.0,0.0,0.0,0.0,0.0,0.0,0.0,0.0,0.0,0.0,0.0,0.0,0.0,0.0,0.0,0.0,0.0,0.0,0.0,0.0,0.0,0.0,0.0,0.0,0.0,0.0,0.0,0.0,0.0,0.0,0.0,0.0,0.0,0.0,0.0,0.0,0.0,0.0,0.0,0.0,0.0,0.0,0.0,0.0,0.0,0.0,0.0,0.0,0.0,0.0,0.0,0.0,0.0,0.0,0.0,0.0,0.0,0.0,0.0,0.0,0.0,0.0,0.0,0.0,0.0,0.0,0.0,0.0,0.0,0.0,0.0,0.0,0.0,0.0,0.0,0.0,0.0,0.0,0.0,0.0,0.0,0.0,0.0,0.0,0.0,0.0,0.0,0.0,0.0,0.0,0.0,0.0,0.0,0.0,0.0,0.0,0.0,0.0,0.0,0.0,0.0,0.0,0.0,0.0,0.0,0.0,0.0,0.0,0.0,0.0,0.0,0.0,0.0,0.0,0.0,0.0,0.0,0.0,0.0,0.0,0.0,0.0,0.0,0.0,0.0,0.0,0.0,0.0,0.0,0.0,0.0,0.0,0.0,0.0,0.0,0.0,0.0,0.0,0.0,0.0,0.0,0.0,0.0,0.0,0.0,0.0,0.0,0.0,0.0,0.0,0.0,0.0,0.0,0.0,0.0,0.0,0.0,0.0,0.0,0.0,0.0,0.0,0.0,0.0,0.0,0.0,0.0,0.0,0.0,0.0,0.0,0.0,0.0,0.0,0.0,0.0,0.0,0.0,0.0,0.0,0.0,0.0,0.0,0.0,0.0,0.0,0.0,0.0,0.0,0.0,0.0,0.0,0.0,0.0,0.0,0.0,0.0,0.0,0.0,0.0,0.0,0.0,0.0,0.0,0.0,0.0,0.0,0.0,0.0,0.0,0.0,0.0,0.0,0.0,0.0,0.0,0.0,0.0,0.0,0.0,0.0,0.0,0.0,0.0,0.0,0.0,0.0,0.0,0.0,0.0,0.0,0.0,0.0,0.0,0.0,0.0,0.0,0.0,0.0,0.0,0.0,0.0,0.0,0.0,0.0,0.0,0.0,0.0,0.0,0.0,0.0,0.0,0.0,0.0,0.0,0.0,0.0,0.0,0.0,0.0,0.0,0.0,0.0,0.0,0.0,0.0,0.0,0.0,0.0,0.0,0.0,0.0,0.0,0.0,0.0,0.0,0.0,0.0,0.0,0.0,0.0,0.0,0.0,0.0,0.0,0.0,0.0,0.0,0.0,0.0,0.0,0.0,0.0,0.0,0.0,0.0,0.0,0.0,0.0,0.0,0.0,0.0,0.0,0.0,0.0,0.0,0.0,0.0,0.0,0.0,0.0,0.0,0.0,0.0,0.0,0.0,0.0,0.0,0.0,0.0,0.0,0.0,0.0,0.0,0.0,0.0,0.0,0.0,0.0,0.0,0.0,0.0,0.0,0.0,0.0,0.0,0.0,0.0,0.0,0.0,0.0,0.0,0.0,0.0,0.0,0.0,0.0,0.0,0.0,0.0,0.0,0.0,0.0,0.0,0.0,0.0,0.0,0.0,0.0,0.0,0.0,0.0,0.0,0.0,0.0,0.0,0.0,0.0,0.0,0.0,0.0,0.0,0.0,0.0,0.0,0.0,0.0,0.0,0.0,0.0,0.0,0.0,0.0,0.0,0.0,0.0,0.0,0.0,0.0,0.0,0.0,0.0,0.0,0.0,0.0,0.0,0.0,0.0,0.0,0.0,0.0,0.0,0.0,0.0,0.0,0.0,0.0,0.0,0.0,0.0,0.0,0.0,0.0,0.0,0.0,0.0,0.0,0.0,0.0,0.0,0.0,0.0,0.0,0.0,0.0,0.0,0.0,0.0,0.0,0.0,0.0,0.0,0.0,0.0,0.0,0.0,0.0,0.0,0.0,0.0,0.0,0.0,0.0,0.0,0.0,0.0,0.0,0.0,0.0,0.0,0.0,0.0,0.0,0.0,0.0,0.0,0.0,0.0,0.0,0.0,0.0,0.0,0.0,0.0,0.0,0.0,0.0,0.0,0.0,0.0,0.0,0.0,0.0,0.0,0.0,0.0,0.0,0.0,0.0,0.0,0.0,0.0,0.0,0.0,0.0,0.0,0.0,0.0,0.0,0.0,0.0,0.0,0.0,0.0,0.0,0.0,0.0,0.0,0.0,0.0,0.0,0.0,0.0,0.0,0.0,0.0,0.0,0.0,0.0,0.0,0.0,0.0,0.0,0.0,0.0,0.0,0.0,0.0,0.0,0.0,0.0,0.0,0.0,0.0,0.0,0.0,0.0,0.0,0.0,0.0,0.0,0.0,0.0,0.0,0.0,0.0,0.0,0.0,0.0,0.0,0.0,0.0,0.0,0.0,0.0,0.0,0.0,0.0,0.0,0.0,0.0,0.0,0.0,0.0,0.0,0.0,0.0,0.0,0.0,0.0,0.0,0.0,0.0,0.0,0.0,0.0,0.0,0.0,0.0,0.0,0.0,0.0,0.0,0.0,0.0,0.0,0.0,0.0,0.0,0.0,0.0,0.0,0.0,0.0,0.0,0.0,0.0,0.0,0.0,0.0,0.0,0.0,0.0,0.0,0.0,0.0,0.0,0.0,0.0,0.0,0.0,0.0,0.0,0.0,0.0,0.0,0.0,0.0,0.0,0.0,0.0,0.0,0.0,0.0,0.0,0.0,0.0,0.0,0.0,0.0,0.0,0.0,0.0,0.0,0.0,0.0,0.0,0.0,0.0,0.0,0.0,0.0,0.0,0.0,0.0,0.0,0.0,0.0,0.0,0.0,0.0,0.0,0.0,0.0,0.0,0.0,0.0,0.0,0.0,0.0,0.0,0.0,0.0,0.0,0.0,0.0,0.0,0.0,0.0,0.0,0.0,0.0,0.0,0.0,0.0,0.0,0.0,0.0,0.0,0.0,0.0,0.0,0.0,0.0,0.0,0.0,0.0,0.0,0.0,0.0,0.0,0.0,0.0,0.0,0.0,0.0,0.0,0.0,0.0,0.0,0.0,0.0,0.0,0.0,0.0,0.0,0.0,0.0,0.0,0.0,0.0,0.0,0.0,0.0,0.0,0.0,0.0,0.0,0.0,0.0,0.0,0.0,0.0,0.0,0.0,0.0,0.0,0.0,0.0,0.0,0.0,0.0,0.0,0.0,0.0,0.0,0.0,0.0,0.0,0.0,0.0,0.0,0.0,0.0,0.0,0.0,0.0,0.0,0.0,0.0,0.0,0.0,0.0,0.0,0.0,0.0,0.0,0.0,0.0,0.0,0.0,0.0,0.0,0.0,0.0,0.0,0.0,0.0,0.0,0.0,0.0,0.0,0.0,0.0,0.0,0.0,0.0,0.0,0.0,0.0,0.0,0.0,0.0,0.0,0.0,0.0,0.0,0.0,0.0,0.0,0.0,0.0,0.0,0.0,0.0,0.0,0.0,0.0,0.0,0.0,0.0,0.0,0.0,0.0,0.0,0.0,0.0,0.0,0.0,0.0,0.0,0.0,0.0,0.0,0.0,0.0,0.0,0.0,0.0,0.0,0.0,0.0,0.0,0.0,0.0,0.0,0.0,0.0,0.0,0.0,0.0,0.0,0.0,0.0,0.0,0.0,0.0,0.0,0.0,0.0,0.0,0.0,0.0,0.0,0.0,0.0,0.0,0.0,0.0,0.0,0.0,0.0,0.0,0.0,0.0,0.0,0.0,0.0,0.0,0.0,0.0,0.0,0.0,0.0,0.0,0.0,0.0,0.0,0.0,0.0,0.0,0.0,0.0,0.0,0.0,0.0,0.0,0.0,0.0,0.0,0.0,0.0,0.0,0.0,0.0,0.0,0.0,0.0,0.0,0.0,0.0,0.0,0.0,0.0,0.0,0.0,0.0,0.0,0.0,0.0,0.0,0.0,0.0,0.0,0.0,0.0,0.0,0.0,0.0,0.0,0.0,0.0,0.0,0.0,0.0,0.0,0.0,0.0,0.0,0.0,0.0,0.0,0.0,0.0,0.0,0.0,0.0,0.0,0.0,0.0,0.0,0.0,0.0,0.0,0.0,0.0,0.0,0.0,0.0,0.0,0.0,0.0,0.0,0.0,0.0,0.0,0.0,0.0,0.0,0.0,0.0,0.0,0.0,0.0,0.0,0.0,0.0,0.0,0.0,0.0,0.0,0.0,0.0,0.0,0.0,0.0,0.0,0.0,0.0,0.0,0.0,0.0,0.0,0.0,2.8068,0.0,0.0,0.0,0.0,0.0,0.0,0.0,0.0,0.0,0.0,0.0,0.0,0.0,0.0,0.0,0.0,0.0,0.0,0.0,0.0,0.0,0.0,0.0,0.0,0.0,0.0,0.0,0.0,0.0,0.0,0.0,0.0,0.0,0.0,0.0,0.0,0.0,0.0,0.0,0.0,0.0,0.0,0.0,0.0,0.0,0.0,0.0,0.0,0.0,0.0,0.0,0.0,0.0,0.0,0.0,0.0,0.0,0.0,0.0,0.0,0.0,0.0,0.0,0.0,0.0,0.0,0.0,0.0,0.0,0.0,0.0,0.0,0.0,0.0,0.0,0.0,0.0,0.0,0.0,0.0,0.0,0.0,0.0,0.0,0.0,0.0,0.0,0.0,0.0,0.0,0.0,0.0,0.0,0.0,0.0,0.0,0.0,0.0,0.0,0.0,0.0,0.0,0.0,0.0,0.0,0.0,0.0,0.0,0.0,0.0,0.0,0.0,0.0,0.0,0.0,0.0,2.9086,0.0,0.0,0.0,0.0,0.0,0.0,0.0,0.0,0.0,0.0,0.0,0.0,0.0,0.0,0.0,0.0,0.0,0.0,0.0,0.0,0.0,0.0,0.0,0.0,0.0,0.0,0.0,0.0,0.0,0.0,0.0,0.0,0.0,0.0,0.0,0.0,0.0,0.0,0.0,0.0,0.0,0.0,0.0,0.0,0.0,0.0,0.0,0.0,0.0,0.0,0.0,0.0,0.0,0.0,0.0,0.0,0.0,0.0,0.0,0.0,0.0,0.0,0.0,0.0,0.0,0.0,0.0,0.0,0.0,0.0,0.0,0.0,0.0,0.0,0.0,0.0,0.0,0.0,0.0,0.0,0.0,0.0,0.0,0.0,0.0,0.0,0.0,0.0,0.0,0.0,0.0,0.0,0.0,0.0,0.0,0.0,0.0,0.0,0.0,0.0,0.0,0.0,0.0,0.0,0.0,0.0,0.0,0.0,3.2423,3.3039,3.3171,3.4065,3.4398,3.4179,3.3057,3.1395,2.9505,0.0,0.0,0.0,0.0,0.0,0.0,0.0,0.0,0.0,0.0,0.0,0.0,0.0,0.0,0.0,0.0,0.0,0.0,0.0,0.0,0.0,0.0,0.0,0.0,0.0,0.0,0.0,0.0,0.0,0.0,0.0,0.0,0.0,0.0,0.0,0.0,0.0,0.0,0.0,0.0,0.0,0.0,0.0,0.0,0.0,0.0,0.0,0.0,0.0,0.0,0.0,0.0,0.0,0.0,0.0,0.0,0.0,0.0,0.0,0.0,0.0,0.0,0.0,0.0,0.0,0.0,0.0,0.0,0.0,0.0,0.0,0.0,0.0,0.0,0.0,0.0,0.0,0.0,0.0,0.0,0.0,0.0,0.0,0.0,0.0,0.0,0.0,2.845,2.8734,0.0,0.0,0.0,0.0,0.0,0.0,0.0,0.0,0.0,0.0,0.0,0.0,0.0,0.0,3.1034,3.2634,3.2988,3.2054,3.4448,3.5352,3.4994,3.5912,3.6332,3.6341,3.6694,0.0,3.2736,3.115,0.0,0.0,0.0,0.0,0.0,0.0,0.0,0.0,0.0,0.0,0.0,0.0,0.0,0.0,0.0,0.0,0.0,0.0,0.0,0.0,0.0,0.0,0.0,0.0,0.0,0.0,0.0,0.0,0.0,0.0,0.0,0.0,0.0,0.0,0.0,0.0,0.0,0.0,0.0,0.0,0.0,0.0,0.0,0.0,0.0,0.0,0.0,0.0,0.0,0.0,0.0,0.0,0.0,0.0,0.0,0.0,0.0,0.0,0.0,0.0,0.0,0.0,0.0,0.0,0.0,0.0,0.0,0.0,0.0,0.0,0.0,0.0,0.0,0.0,0.0,0.0,0.0,0.0,0.0,0.0,0.0,0.0,0.0,0.0,0.0,2.9416,2.9578,2.8574,2.9779,3.0357,0.0,0.0,0.0,0.0,0.0,0.0,0.0,0.0,0.0,3.2441,3.2767,3.2893,3.2792,3.3847,3.4424,3.4575,3.5734,3.6453,3.6811,3.7246,3.7629,3.797,3.8574,3.8097,3.6769,3.4693,3.3604,3.3036,0.0,0.0,0.0,0.0,3.0911,3.133,0.0,0.0,0.0,0.0,0.0,0.0,0.0,0.0,0.0,0.0,0.0,0.0,0.0,0.0,0.0,0.0,0.0,0.0,0.0,0.0,0.0,0.0,0.0,0.0,0.0,0.0,0.0,0.0,0.0,0.0,0.0,0.0,0.0,0.0,0.0,0.0,0.0,0.0,0.0,0.0,0.0,0.0,0.0,0.0,0.0,0.0,0.0,0.0,0.0,0.0,0.0,0.0,0.0,0.0,0.0,0.0,0.0,0.0,0.0,0.0,0.0,0.0,0.0,0.0,0.0,0.0,0.0,0.0,0.0,0.0,0.0,0.0,0.0,0.0,0.0,0.0,0.0,3.0055,3.0482,2.8549,3.0382,3.1286,0.0,0.0,0.0,0.0,0.0,0.0,3.2817,3.3646,3.4248,3.4525,3.4926,3.5077,3.4951,3.5504,3.6207,3.7036,3.7161,3.7638,3.8442,3.8291,3.838,3.8721,3.9599,3.9842,3.9544,3.7706,3.6387,3.5372,3.4053,3.3634,3.3694,3.3185,3.3334,3.3873,0.0,0.0,0.0,0.0,0.0,0.0,0.0,0.0,0.0,0.0,0.0,0.0,0.0,0.0,0.0,0.0,0.0,0.0,0.0,0.0,0.0,0.0,0.0,0.0,0.0,0.0,0.0,0.0,0.0,0.0,0.0,0.0,0.0,0.0,0.0,0.0,0.0,0.0,0.0,0.0,0.0,0.0,0.0,0.0,0.0,0.0,0.0,0.0,0.0,0.0,0.0,0.0,0.0,0.0,0.0,0.0,0.0,0.0,0.0,0.0,0.0,0.0,0.0,0.0,0.0,0.0,0.0,0.0,0.0,0.0,0.0,0.0,0.0,0.0,0.0,0.0,0.0,0.0,0.0,2.8988,3.1311,0.0,0.0,0.0,0.0,3.291,3.342,3.3997,3.453,3.465,3.5152,3.6254,3.6304,3.6759,3.7789,3.8366,3.8743,3.8793,3.927,3.9546,3.9597,3.9069,3.8567,3.816,3.9903,4.0355,3.9769,3.8743,3.8242,3.8063,3.6776,3.6656,3.7165,3.7135,3.7135,3.7075,0.0,0.0,0.0,0.0,0.0,0.0,0.0,0.0,0.0,0.0,0.0,0.0,0.0,0.0,0.0,0.0,0.0,0.0,0.0,0.0,0.0,0.0,0.0,0.0,0.0,0.0,0.0,0.0,0.0,0.0,0.0,0.0,0.0,0.0,0.0,0.0,0.0,0.0,0.0,0.0,0.0,0.0,0.0,0.0,0.0,0.0,0.0,0.0,0.0,0.0,0.0,0.0,0.0,0.0,0.0,0.0,0.0,0.0,0.0,0.0,0.0,0.0,0.0,0.0,0.0,0.0,0.0,0.0,0.0,0.0,0.0,0.0,0.0,0.0,0.0,0.0,0.0,0.0,0.0,3.2674,3.4474,0.0,0.0,3.337,3.3671,3.46,3.4806,3.5458,3.6759,3.7186,3.7739,3.8492,3.8492,3.8693,3.9094,3.9295,3.9396,3.9396,3.9597,3.9697,3.9697,3.9496,3.8894,3.8088,3.9496,4.006,3.9932,4.0297,4.0418,4.0187,3.8871,3.8512,3.8691,3.8691,3.8691,3.8661,0.0,0.0,0.0,0.0,0.0,0.0,0.0,0.0,0.0,0.0,0.0,0.0,0.0,0.0,0.0,0.0,0.0,0.0,0.0,0.0,0.0,0.0,0.0,0.0,0.0,0.0,0.0,0.0,0.0,0.0,0.0,0.0,0.0,0.0,0.0,0.0,0.0,0.0,0.0,0.0,0.0,0.0,4.3989,0.0,0.0,0.0,0.0,0.0,0.0,0.0,0.0,0.0,0.0,0.0,0.0,0.0,0.0,0.0,0.0,0.0,0.0,0.0,0.0,0.0,0.0,0.0,0.0,0.0,0.0,0.0,0.0,0.0,0.0,0.0,0.0,0.0,0.0,0.0,3.5403,3.5006,3.6784,3.7513,3.6185,3.578,3.5956,3.6837,3.7063,3.7639,3.8793,3.922,3.9496,3.9697,3.9697,3.9697,3.9697,3.9697,3.9697,3.9697,3.9697,3.9697,3.9697,3.9697,3.9195,3.839,3.9358,3.9694,3.9632,4.0617,4.1208,4.142,4.0904,4.0689,4.0689,4.0689,4.0689,4.0629,0.0,0.0,0.0,0.0,0.0,0.0,0.0,0.0,0.0,0.0,0.0,0.0,0.0,0.0,0.0,0.0,0.0,0.0,0.0,0.0,0.0,0.0,0.0,0.0,0.0,0.0,0.0,0.0,0.0,0.0,0.0,0.0,0.0,0.0,0.0,0.0,0.0,0.0,0.0,0.0,0.0,0.0,4.7568,0.0,0.0,0.0,0.0,0.0,0.0,0.0,0.0,0.0,0.0,0.0,0.0,0.0,0.0,0.0,0.0,0.0,0.0,0.0,0.0,0.0,0.0,0.0,0.0,0.0,0.0,0.0,0.0,0.0,0.0,0.0,0.0,0.0,3.2466,3.5228,3.691,3.5859,3.8165,3.917,3.7513,3.8366,3.917,3.9722,4.0249,4.0551,4.0576,4.0526,4.0275,3.9747,3.9697,3.9697,3.9697,3.9697,3.9697,3.9697,3.9697,3.9697,3.9697,3.9697,3.9371,3.8919,3.9466,3.9438,3.8945,3.9561,4.0532,4.167,4.282,4.325,4.329,4.329,4.326,4.305,0.0,0.0,0.0,0.0,0.0,0.0,0.0,0.0,0.0,0.0,0.0,0.0,0.0,0.0,0.0,0.0,0.0,0.0,0.0,0.0,0.0,0.0,0.0,0.0,0.0,0.0,0.0,0.0,0.0,0.0,0.0,0.0,0.0,0.0,0.0,0.0,0.0,0.0,0.0,0.0,0.0,0.0,4.6256,0.0,0.0,0.0,0.0,0.0,0.0,0.0,0.0,0.0,0.0,0.0,0.0,0.0,0.0,0.0,0.0,0.0,0.0,0.0,0.0,0.0,0.0,0.0,0.0,0.0,0.0,0.0,0.0,0.0,0.0,0.0,0.0,3.6584,3.6433,3.8241,3.9923,4.0827,4.1605,4.1882,4.143,4.0953,4.0877,4.1483,4.1254,4.1279,4.1735,4.0953,4.045,4.03,3.9898,3.9697,3.9697,3.9697,3.9697,3.9697,3.9697,3.9697,3.9697,3.9697,3.917,3.8241,3.841,3.8424,3.8345,3.8549,3.9316,4.049,4.1587,4.2548,4.329,4.329,4.2731,4.1803,0.0,0.0,0.0,0.0,0.0,0.0,0.0,0.0,0.0,0.0,0.0,0.0,0.0,0.0,0.0,0.0,0.0,0.0,0.0,0.0,0.0,0.0,0.0,0.0,0.0,0.0,0.0,0.0,0.0,0.0,0.0,0.0,0.0,0.0,0.0,0.0,0.0,0.0,0.0,0.0,0.0,0.0,5.0022,4.7275,4.7461,4.8853,4.5931,4.5798,4.6677,4.4425,0.0,0.0,0.0,0.0,0.0,0.0,0.0,0.0,0.0,0.0,0.0,0.0,0.0,0.0,0.0,0.0,0.0,0.0,0.0,0.0,0.0,0.0,0.0,0.0,3.7513,3.9471,4.0626,4.1028,4.1731,4.3162,4.3112,4.3162,4.3614,4.266,4.2258,4.2811,4.2333,4.2057,4.2213,4.1329,4.0752,4.0526,3.9973,3.9697,3.9697,3.9697,3.9697,3.9697,3.9697,3.9697,3.9697,3.9697,3.9346,0.0,3.8467,3.828,3.8054,3.8352,3.8998,0.0,0.0,0.0,0.0,0.0,4.2491,4.1324,0.0,0.0,0.0,0.0,0.0,0.0,0.0,0.0,0.0,0.0,0.0,0.0,0.0,0.0,0.0,0.0,0.0,0.0,0.0,0.0,0.0,0.0,0.0,0.0,0.0,0.0,0.0,0.0,0.0,0.0,0.0,0.0,0.0,0.0,0.0,0.0,0.0,0.0,0.0,0.0,0.0,0.0,5.57,5.2656,5.3223,5.5233,5.1844,4.9873,4.8698,4.7612,0.0,0.0,0.0,0.0,0.0,0.0,0.0,0.0,0.0,0.0,0.0,0.0,0.0,0.0,0.0,0.0,0.0,0.0,0.0,0.0,0.0,0.0,0.0,0.0,4.0099,4.1856,4.4367,4.3463,4.2967,4.3966,4.3589,4.3614,4.4543,4.3689,4.3237,4.3689,4.3263,4.2791,4.2238,0.0,0.0,0.0,0.0,3.9697,3.9697,3.9697,3.9697,3.9697,3.9697,3.9697,3.9697,3.9697,3.9672,3.9572,3.9094,3.8642,3.8235,3.8584,3.9093,3.9842,4.1253,4.1794,4.1906,4.2941,4.2491,4.1422,0.0,0.0,0.0,0.0,0.0,0.0,0.0,0.0,0.0,0.0,0.0,0.0,0.0,0.0,0.0,0.0,0.0,0.0,0.0,0.0,0.0,0.0,0.0,0.0,0.0,0.0,0.0,0.0,0.0,0.0,0.0,0.0,0.0,0.0,0.0,0.0,0.0,0.0,0.0,0.0,0.0,0.0,5.4259,5.139,5.2687,5.5686,5.2561,5.3477,5.5642,5.2832,5.3296,5.4142,4.9251,0.0,0.0,0.0,0.0,0.0,0.0,0.0,0.0,0.0,0.0,0.0,0.0,0.0,0.0,0.0,0.0,0.0,0.0,0.0,0.0,3.9525,4.1957,4.4166,4.5171,4.5045,4.5095,4.5748,4.5347,4.4895,4.4644,4.4041,4.3514,4.3162,4.3037,4.2791,4.2238,4.163,0.0,4.0526,3.9973,3.9697,3.9697,3.9697,3.9697,3.9697,0.0,0.0,3.9697,3.9697,3.9446,3.9019,3.8969,3.9138,3.9416,3.8085,3.7873,3.8738,4.1782,4.2981,4.2981,4.321,4.2491,4.1422,0.0,0.0,0.0,0.0,0.0,0.0,0.0,0.0,0.0,0.0,0.0,0.0,0.0,0.0,0.0,0.0,0.0,0.0,0.0,0.0,0.0,0.0,0.0,0.0,0.0,0.0,0.0,0.0,0.0,0.0,0.0,0.0,0.0,0.0,0.0,0.0,0.0,0.0,0.0,0.0,0.0,0.0,5.5915,5.448,5.4715,5.5753,5.5651,5.602,5.6192,5.3927,5.4124,5.4526,4.9997,4.8524,4.7712,0.0,0.0,0.0,0.0,0.0,0.0,0.0,0.0,0.0,0.0,0.0,0.0,0.0,0.0,4.0182,0.0,0.0,4.2315,4.2583,4.3991,4.5347,4.62,4.6075,4.5999,4.6276,4.5321,4.4869,4.5422,4.4468,4.379,4.379,4.3539,4.3162,4.2665,4.1781,4.1175,4.0874,4.0124,3.9697,3.9697,3.9697,3.9697,3.9697,3.9697,3.9697,3.9697,3.9697,3.9546,3.927,3.927,3.9722,4.0314,4.0018,3.9878,4.0031,4.1753,4.2467,4.2508,4.3061,4.2701,4.1901,0.0,0.0,0.0,0.0,0.0,0.0,0.0,0.0,0.0,0.0,0.0,0.0,0.0,0.0,0.0,0.0,0.0,0.0,0.0,0.0,0.0,0.0,0.0,0.0,0.0,0.0,0.0,0.0,0.0,0.0,0.0,0.0,0.0,0.0,0.0,0.0,0.0,0.0,0.0,0.0,0.0,0.0,5.7048,5.7369,5.7021,5.659,5.7892,5.6889,5.4819,5.3768,5.378,5.3737,5.0436,5.011,5.009,4.577,4.5499,0.0,0.0,0.0,0.0,0.0,0.0,0.0,0.0,0.0,4.2535,4.2521,4.3725,4.4247,4.2787,4.3763,4.4916,4.5388,4.5573,4.5949,4.6853,4.6502,4.615,4.615,4.5045,4.4769,4.6024,4.4819,4.4091,4.4443,4.394,4.3388,4.2836,4.1882,4.1225,4.1125,4.0224,3.9697,3.9697,3.9697,3.9697,3.9697,3.9697,3.9697,3.9697,3.9697,3.9697,3.9697,3.9981,4.0333,4.0882,4.1691,4.171,4.11,4.0986,4.093,4.1098,4.2467,4.2753,4.241,0.0,0.0,0.0,0.0,0.0,0.0,0.0,0.0,0.0,0.0,0.0,0.0,0.0,0.0,0.0,0.0,0.0,0.0,0.0,0.0,0.0,0.0,0.0,0.0,0.0,0.0,0.0,0.0,0.0,0.0,0.0,0.0,0.0,0.0,0.0,0.0,0.0,0.0,0.0,0.0,0.0,0.0,5.3632,5.5115,5.7442,5.9428,5.5744,5.4576,5.4738,5.4599,5.5507,5.6503,5.4564,5.4672,5.434,4.8663,0.0,4.2736,4.04,3.9894,0.0,4.1893,4.1841,4.2432,0.0,0.0,4.6937,4.8148,4.9835,4.9985,4.6195,4.7444,4.8241,4.5867,4.5899,4.625,4.6376,4.5924,4.5573,4.5573,4.5849,4.5924,4.5623,4.4945,4.4342,4.3915,4.3388,4.2891,4.2338,4.1681,4.1075,4.0626,4.0023,3.9697,3.9697,3.9697,3.9697,3.9697,3.9697,3.9697,3.9697,3.9697,3.9697,3.9749,4.0895,4.1176,4.079,4.0387,3.9887,3.9299,3.8701,3.8514,3.8756,4.0972,4.2056,4.241,0.0,0.0,0.0,0.0,0.0,0.0,0.0,0.0,0.0,0.0,0.0,0.0,0.0,0.0,0.0,0.0,0.0,0.0,0.0,0.0,0.0,0.0,0.0,0.0,0.0,0.0,0.0,0.0,0.0,0.0,0.0,0.0,0.0,0.0,0.0,0.0,0.0,0.0,0.0,0.0,0.0,0.0,5.4288,5.3402,5.3874,5.4907,5.304,5.1864,0.0,0.0,5.0996,5.2881,5.1813,5.1905,5.1592,4.7242,4.5987,0.0,4.3525,0.0,0.0,0.0,4.4167,4.5424,4.7758,4.8386,4.8805,5.0122,5.1977,5.2397,4.9262,5.0133,5.0384,0.0,4.6828,4.6803,4.6803,4.605,4.5372,4.502,4.4895,4.4895,4.497,4.4468,4.4041,4.3815,4.3589,4.3212,4.266,4.1806,4.1175,4.0949,4.0149,3.9697,3.9697,3.9697,3.9697,3.9697,3.9697,3.9697,3.9697,3.9697,3.9697,3.98,4.1019,4.1274,4.072,4.1194,4.0455,3.8952,3.8668,3.8352,3.8379,4.0718,4.1732,4.2016,0.0,0.0,0.0,0.0,0.0,0.0,0.0,0.0,0.0,0.0,0.0,0.0,0.0,0.0,0.0,0.0,0.0,0.0,0.0,0.0,0.0,0.0,0.0,0.0,0.0,0.0,0.0,0.0,0.0,0.0,0.0,0.0,0.0,0.0,0.0,0.0,0.0,0.0,0.0,0.0,0.0,0.0,5.4011,5.155,5.0142,4.9453,4.9453,4.8204,0.0,0.0,4.5695,4.7886,4.7793,4.8325,4.8474,4.5767,4.5567,4.5908,4.4803,0.0,0.0,4.4855,4.6501,4.8117,4.9134,4.9883,5.072,5.2037,5.3623,5.3958,5.1348,5.1623,0.0,4.8415,4.7355,4.6903,4.6903,4.5824,4.4819,4.4242,4.3413,4.3112,4.3664,4.3639,4.3564,4.3564,4.3564,4.3388,4.3011,4.1932,4.1275,4.1275,4.0275,3.9697,3.9697,3.9697,3.9697,3.9697,3.9697,3.9697,3.9697,3.9697,3.9697,3.9749,4.0693,4.0984,4.0909,4.1304,4.0695,3.9359,3.8872,3.8418,3.8332,4.0355,4.1114,4.1295,0.0,0.0,0.0,0.0,0.0,0.0,0.0,0.0,0.0,0.0,0.0,0.0,0.0,0.0,0.0,0.0,0.0,0.0,0.0,0.0,0.0,0.0,0.0,0.0,0.0,0.0,0.0,0.0,0.0,0.0,0.0,0.0,0.0,0.0,0.0,0.0,0.0,0.0,0.0,0.0,0.0,0.0,5.1213,4.9554,4.7191,4.4802,4.4802,0.0,0.0,0.0,4.1025,4.2606,4.3734,4.55,0.0,4.5328,4.2984,0.0,0.0,0.0,4.4018,4.6561,4.8207,4.9748,5.1648,5.2576,5.3443,5.479,5.5628,5.5217,5.2129,5.1652,5.0902,4.8339,4.7029,4.6326,4.6326,4.4895,4.3639,4.3087,4.1605,4.0827,0.0,4.2384,4.3011,4.3011,4.3011,4.2986,4.2986,4.1932,4.1275,4.1275,4.0275,3.9697,3.9697,3.9697,3.9697,3.9697,3.9697,3.9697,3.9697,3.9697,3.9697,3.9697,3.9749,4.044,4.1439,3.97,3.9693,4.0592,3.8758,3.8014,3.8136,3.942,3.9868,4.0102,0.0,0.0,0.0,0.0,0.0,0.0,0.0,0.0,0.0,0.0,0.0,0.0,0.0,0.0,0.0,0.0,0.0,0.0,0.0,0.0,0.0,0.0,0.0,0.0,0.0,0.0,0.0,0.0,0.0,0.0,0.0,0.0,0.0,0.0,0.0,0.0,0.0,0.0,0.0,0.0,0.0,0.0,4.9389,4.7355,4.4869,4.2203,0.0,0.0,0.0,0.0,0.0,0.0,4.0514,0.0,0.0,4.1057,0.0,0.0,0.0,0.0,4.7951,5.0541,5.1887,5.2965,5.4491,5.4341,5.3862,5.3862,5.3683,5.2535,4.9225,4.925,4.8867,4.6146,4.605,4.6175,4.5824,4.5271,4.4292,4.269,4.1986,0.0,0.0,0.0,0.0,4.2439,4.2489,4.264,4.2961,4.1932,4.1275,4.1275,4.0275,3.9697,3.9697,3.9697,3.9697,3.9697,3.9697,3.9697,3.9697,3.9697,3.9697,3.9697,3.9697,3.9929,4.0313,3.9676,3.9474,3.947,3.8843,3.8341,3.8064,3.8481,3.8614,3.8867,0.0,0.0,0.0,0.0,0.0,0.0,0.0,0.0,0.0,0.0,0.0,0.0,0.0,0.0,0.0,0.0,0.0,0.0,0.0,0.0,0.0,0.0,0.0,0.0,0.0,0.0,0.0,0.0,0.0,0.0,0.0,0.0,0.0,0.0,0.0,0.0,0.0,0.0,0.0,0.0,0.0,0.0,4.6728,4.4317,4.1932,0.0,0.0,0.0,0.0,0.0,0.0,0.0,0.0,0.0,0.0,0.0,0.0,0.0,0.0,4.8835,5.1276,5.3653,5.476,5.5418,5.6017,5.5149,5.3952,5.3025,5.147,4.9443,4.6662,4.5934,4.5312,4.3959,4.4016,4.4468,4.5095,4.4493,4.3614,4.264,4.181,0.0,0.0,0.0,0.0,4.1781,4.2112,4.2439,4.2936,4.2133,4.153,4.13,4.045,3.9898,3.9697,3.9697,3.9697,3.9697,3.9697,3.9697,3.9697,3.9697,3.9697,3.9697,3.9697,3.9697,3.9697,3.9697,3.9496,3.917,3.917,3.8944,3.8617,3.8617,3.8492,3.8488,0.0,0.0,0.0,0.0,0.0,0.0,0.0,0.0,0.0,0.0,0.0,0.0,0.0,0.0,0.0,0.0,0.0,0.0,0.0,0.0,0.0,0.0,0.0,0.0,0.0,0.0,0.0,0.0,0.0,0.0,0.0,0.0,0.0,0.0,0.0,0.0,0.0,0.0,0.0,0.0,0.0,0.0,4.3263,4.0576,0.0,0.0,0.0,0.0,0.0,0.0,0.0,0.0,0.0,0.0,0.0,0.0,0.0,4.4967,4.9264,5.1947,5.3952,5.5948,5.6765,5.6974,5.6286,5.5059,5.3653,5.2187,4.9119,4.6114,0.0,0.0,4.0623,4.1878,4.1279,4.1605,4.4292,4.283,4.1957,0.0,0.0,0.0,0.0,0.0,0.0,4.125,0.0,4.2414,4.2936,4.2514,4.1907,4.1351,4.0827,4.0275,3.9747,3.9697,3.9697,3.9697,3.9697,3.9697,3.9697,3.9697,3.9697,3.9697,3.9697,3.9697,3.9697,3.9697,3.9697,3.9697,3.9697,3.9697,3.9697,3.9697,3.9371,3.8944,0.0,0.0,0.0,0.0,0.0,0.0,0.0,0.0,0.0,0.0,0.0,0.0,0.0,0.0,0.0,0.0,0.0,0.0,0.0,0.0,0.0,0.0,0.0,0.0,0.0,0.0,0.0,0.0,0.0,0.0,0.0,0.0,0.0,0.0,0.0,0.0,0.0,0.0,0.0,0.0,0.0,0.0,3.9948,0.0,0.0,0.0,0.0,0.0,0.0,0.0,0.0,0.0,0.0,0.0,4.1694,0.0,0.0,4.9931,5.3047,5.5718,5.7842,5.883,5.8471,5.7453,5.5807,5.3653,5.1199,4.8386,4.5943,4.3177,0.0,0.0,0.0,4.0336,4.1806,0.0,4.5045,4.5146,0.0,0.0,0.0,4.2986,4.2032,4.1735,0.0,0.0,4.1706,4.1957,4.2936,4.2514,4.2137,4.1957,4.1003,4.045,4.03,3.9898,3.9697,3.9697,3.9697,3.9697,3.9697,3.9697,3.9697,3.9697,3.9697,3.9697,3.9697,3.9697,3.9697,3.9697,3.9697,3.9697,3.9697,3.9697,3.9597,3.9422,0.0,0.0,0.0,0.0,0.0,0.0,0.0,0.0,0.0,0.0,0.0,0.0,0.0,0.0,0.0,0.0,0.0,0.0,0.0,0.0,0.0,0.0,0.0,0.0,0.0,0.0,0.0,0.0,0.0,0.0,0.0,0.0,0.0,0.0,0.0,0.0,0.0,0.0,0.0,0.0,0.0,0.0,0.0,0.0,0.0,0.0,0.0,0.0,0.0,0.0,0.0,3.9559,4.1141,4.3459,4.6035,4.8316,0.0,5.3533,5.6196,5.8411,5.9997,6.0057,5.9099,5.7393,5.4521,5.1828,4.8925,4.5334,4.2138,0.0,0.0,0.0,0.0,0.0,0.0,0.0,4.4443,4.4794,4.4769,0.0,4.4367,0.0,4.3313,4.3011,4.2886,0.0,4.2133,4.2082,4.2936,4.274,4.2464,4.2213,4.1555,4.1003,4.0526,3.9973,3.9697,3.9697,3.9697,3.9697,3.9697,3.9697,3.9697,3.9697,0.0,3.9697,3.9697,3.9697,3.9697,3.9697,3.9697,3.9697,3.9697,3.9697,3.9697,3.9647,0.0,0.0,0.0,0.0,0.0,0.0,0.0,0.0,0.0,0.0,0.0,0.0,0.0,0.0,0.0,0.0,0.0,0.0,0.0,0.0,0.0,0.0,0.0,0.0,0.0,0.0,0.0,0.0,0.0,0.0,0.0,0.0,0.0,0.0,0.0,0.0,0.0,0.0,0.0,0.0,0.0,0.0,0.0,0.0,0.0,0.0,0.0,0.0,0.0,0.0,4.1056,4.3401,4.5155,4.7775,5.0737,5.3234,5.485,5.6376,5.883,6.0416,6.1194,6.0416,5.9099,5.6915,5.2875,4.9823,4.6741,4.271,0.0,0.0,3.51,0.0,3.3316,3.6053,0.0,4.0174,4.3539,4.3614,4.389,4.5422,4.4719,4.4292,4.4694,4.4317,4.3966,4.3815,4.2911,4.2615,4.2961,4.2986,4.2766,4.2238,4.2137,4.158,4.0626,3.9998,3.9722,3.9798,3.9722,3.9697,3.9697,3.9697,3.9697,3.9697,0.0,0.0,3.9697,3.9697,3.9697,3.9697,3.9697,3.9697,3.9697,3.9697,3.9697,3.9697,0.0,0.0,0.0,0.0,0.0,0.0,0.0,0.0,0.0,0.0,0.0,0.0,0.0,0.0,0.0,0.0,0.0,0.0,0.0,0.0,0.0,0.0,0.0,0.0,0.0,0.0,0.0,0.0,0.0,0.0,0.0,0.0,0.0,0.0,0.0,0.0,0.0,0.0,0.0,0.0,0.0,0.0,0.0,0.0,0.0,0.0,0.0,0.0,0.0,0.0,4.189,4.594,4.9716,5.2808,5.5439,5.7453,5.862,5.9578,6.1164,6.2151,6.245,6.1224,5.9099,5.6107,5.1571,4.8117,0.0,0.0,0.0,3.5345,3.3437,0.0,0.0,3.665,0.0,0.0,0.0,0.0,0.0,0.0,0.0,0.0,0.0,0.0,0.0,0.0,0.0,0.0,4.2986,4.2986,4.2766,4.2238,4.1731,4.1326,4.115,4.0199,3.9923,4.0375,3.9898,3.9697,3.9697,3.9697,3.9697,3.9697,0.0,0.0,3.9697,3.9697,3.9697,3.9697,3.9697,3.9697,3.9697,3.9697,3.9697,3.9697,0.0,0.0,0.0,0.0,0.0,0.0,0.0,0.0,0.0,0.0,0.0,0.0,0.0,0.0,0.0,0.0,0.0,0.0,0.0,0.0,0.0,0.0,0.0,0.0,0.0,0.0,0.0,0.0,0.0,0.0,0.0,0.0,0.0,0.0,0.0,0.0,0.0,0.0,0.0,0.0,0.0,0.0,0.0,0.0,0.0,0.0,0.0,0.0,0.0,0.0,4.1281,4.5719,5.094,5.4945,5.8022,5.9668,6.0386,6.0924,6.2241,6.2839,6.275,6.1433,5.859,5.479,4.9853,0.0,0.0,0.0,0.0,3.3752,3.2164,0.0,0.0,0.0,0.0,0.0,0.0,0.0,0.0,0.0,0.0,0.0,0.0,0.0,0.0,0.0,0.0,0.0,4.3011,4.2986,4.2861,4.264,4.2057,4.163,4.1275,4.0526,4.0249,4.0501,3.9948,3.9848,4.0124,3.9823,3.9697,3.9697,3.9697,0.0,3.9697,3.9697,3.9697,3.9697,3.9697,3.9697,3.9697,3.9697,3.9697,3.9697,0.0,0.0,0.0,0.0,0.0,0.0,0.0,0.0,0.0,0.0,0.0,0.0,0.0,0.0,0.0,0.0,0.0,0.0,0.0,0.0,0.0,0.0,0.0,0.0,0.0,0.0,0.0,0.0,0.0,0.0,0.0,0.0,0.0,0.0,0.0,0.0,0.0,0.0,0.0,0.0,0.0,0.0,0.0,0.0,0.0,0.0,0.0,0.0,0.0,0.0,3.9701,4.3521,4.8803,5.3892,5.8276,5.9674,6.0443,6.1157,6.2692,6.3079,6.272,6.1253,5.7902,5.3593,4.8297,4.4018,0.0,0.0,0.0,3.2307,3.1352,0.0,0.0,0.0,0.0,0.0,0.0,0.0,0.0,0.0,0.0,0.0,0.0,0.0,0.0,0.0,0.0,0.0,4.3037,4.2986,4.2986,4.2986,4.2489,4.2007,4.1706,4.1028,4.0701,4.0676,4.0124,4.0023,4.0325,3.9898,3.9697,3.9697,3.9697,0.0,0.0,3.9697,3.9697,3.9697,3.9697,3.9697,3.9697,3.9697,3.9697,3.9697,0.0,0.0,0.0,0.0,0.0,0.0,0.0,0.0,0.0,0.0,0.0,0.0,0.0,0.0,0.0,0.0,0.0,0.0,0.0,0.0,0.0,0.0,0.0,0.0,0.0,0.0,0.0,0.0,0.0,0.0,0.0,0.0,0.0,0.0,0.0,0.0,0.0,0.0,0.0,0.0,0.0,0.0,0.0,0.0,0.0,0.0,0.0,0.0,0.0,0.0,0.0,3.889,4.1477,4.7796,5.4599,5.6295,0.0,0.0,6.2493,6.3079,6.26,6.0655,5.7214,5.2905,4.7608,0.0,0.0,0.0,3.3227,3.2307,3.1352,3.0547,0.0,0.0,0.0,0.0,0.0,0.0,0.0,0.0,0.0,0.0,0.0,0.0,0.0,0.0,0.0,0.0,0.0,4.2986,4.2986,4.2986,4.2489,4.2439,4.2811,4.1781,4.12,4.12,4.0701,4.0199,3.9772,3.9722,3.9697,3.9697,0.0,0.0,0.0,3.9697,3.9697,3.9697,3.9697,3.9697,3.9697,3.9697,3.9697,3.9697,0.0,0.0,0.0,0.0,0.0,0.0,0.0,0.0,0.0,0.0,0.0,0.0,0.0,0.0,0.0,0.0,0.0,0.0,0.0,0.0,0.0,0.0,0.0,0.0,0.0,0.0,0.0,0.0,0.0,0.0,0.0,0.0,0.0,0.0,0.0,0.0,0.0,0.0,0.0,0.0,0.0,0.0,0.0,0.0,0.0,0.0,0.0,0.0,0.0,0.0,0.0,0.0,3.5649,3.9473,0.0,0.0,5.3836,5.5936,5.9947,6.1292,6.1292,6.0343,5.6526,5.1828,4.7339,0.0,0.0,3.398,3.2841,3.2155,3.062,3.0024,3.0256,0.0,0.0,0.0,0.0,0.0,0.0,0.0,0.0,0.0,0.0,0.0,0.0,0.0,0.0,0.0,0.0,4.2986,4.2986,4.2986,4.276,4.2665,4.2539,4.1731,4.1275,4.1275,4.045,4.0074,4.0174,3.9848,3.9697,3.9697,0.0,0.0,0.0,3.9697,3.9697,3.9697,3.9697,3.9697,3.9697,3.9697,3.9697,3.9697,0.0,0.0,0.0,0.0,0.0,0.0,0.0,0.0,0.0,0.0,0.0,0.0,0.0,0.0,0.0,0.0,0.0,0.0,0.0,0.0,0.0,0.0,0.0,0.0,0.0,0.0,0.0,0.0,0.0,0.0,0.0,0.0,0.0,0.0,0.0,0.0,0.0,0.0,0.0,0.0,0.0,0.0,0.0,0.0,0.0,0.0,0.0,0.0,0.0,0.0,0.0,0.0,0.0,0.0,0.0,0.0,4.9307,5.2068,5.6672,5.8703,5.9283,5.8344,5.4671,5.0076,0.0,0.0,0.0,3.298,3.2164,3.1683,3.0101,2.9804,2.998,0.0,0.0,0.0,0.0,0.0,0.0,0.0,0.0,0.0,0.0,0.0,0.0,0.0,0.0,0.0,0.0,4.2986,4.2986,4.2986,4.2866,4.2615,4.2213,4.1605,4.12,4.105,4.0475,4.0199,4.0275,4.0049,3.9848,3.9697,0.0,0.0,0.0,3.9697,3.9697,3.9697,3.9697,3.9697,3.9697,3.9697,3.9697,3.9697,0.0,0.0,0.0,0.0,0.0,0.0,0.0,0.0,0.0,0.0,0.0,0.0,0.0,0.0,0.0,0.0,0.0,0.0,0.0,0.0,0.0,0.0,0.0,0.0,0.0,0.0,0.0,0.0,0.0,0.0,0.0,0.0,0.0,0.0,0.0,0.0,0.0,0.0,0.0,0.0,0.0,0.0,0.0,0.0,0.0,0.0,0.0,0.0,0.0,0.0,0.0,0.0,0.0,0.0,0.0,0.0,4.4967,4.9542,5.292,5.5511,5.6636,5.42,5.1222,4.7506,0.0,0.0,0.0,3.2021,3.1204,3.0932,2.9972,2.9804,2.998,3.0532,0.0,0.0,0.0,0.0,0.0,0.0,0.0,0.0,0.0,0.0,0.0,0.0,0.0,0.0,0.0,4.2986,4.2986,4.2986,4.2514,4.2213,4.2213,4.1605,4.1025,4.0526,4.1025,4.0752,3.9722,4.0249,4.0199,0.0,0.0,0.0,0.0,3.9697,3.9697,3.9697,3.9697,3.9697,3.9697,3.9697,3.9697,3.9697,0.0,0.0,0.0,0.0,0.0,0.0,0.0,0.0,0.0,0.0,0.0,0.0,0.0,0.0,0.0,0.0,0.0,0.0,0.0,0.0,0.0,0.0,0.0,0.0,0.0,0.0,0.0,0.0,0.0,0.0,0.0,0.0,0.0,0.0,0.0,0.0,0.0,0.0,0.0,0.0,0.0,0.0,0.0,0.0,0.0,0.0,0.0,0.0,0.0,0.0,0.0,0.0,0.0,0.0,0.0,0.0,0.0,0.0,4.6034,4.8083,4.8926,4.7592,4.5203,4.2338,3.9243,0.0,0.0,3.1686,3.1204,3.0895,2.9972,2.9804,3.008,3.1009,3.116,0.0,0.0,0.0,0.0,0.0,0.0,0.0,0.0,0.0,0.0,0.0,0.0,0.0,0.0,4.2986,4.2986,4.2986,4.2489,4.2389,4.271,4.1806,4.12,4.1025,4.0877,4.04,3.9697,3.9873,0.0,0.0,0.0,0.0,0.0,3.9697,3.9697,3.9697,3.9697,3.9697,3.9697,3.9697,3.9077,3.819,0.0,0.0,0.0,0.0,0.0,0.0,0.0,0.0,0.0,0.0,0.0,0.0,0.0,0.0,0.0,0.0,0.0,0.0,0.0,0.0,0.0,0.0,0.0,0.0,0.0,0.0,0.0,0.0,0.0,0.0,0.0,0.0,0.0,0.0,0.0,0.0,0.0,0.0,0.0,0.0,0.0,0.0,0.0,0.0,0.0,0.0,0.0,0.0,0.0,0.0,0.0,0.0,0.0,0.0,0.0,0.0,0.0,0.0,0.0,4.2448,4.3415,4.2533,4.0777,0.0,0.0,0.0,0.0,3.0988,3.0658,3.0495,2.9895,2.9804,3.0005,3.0683,3.0959,0.0,0.0,0.0,0.0,0.0,0.0,0.0,0.0,0.0,0.0,0.0,0.0,0.0,0.0,0.0,4.2986,4.2986,4.2489,4.2363,4.266,4.1781,4.1175,4.0974,4.0849,4.0425,3.9697,3.9898,0.0,0.0,0.0,0.0,0.0,3.9772,3.9697,3.9697,3.9697,3.9362,3.8868,3.8868,3.7926,3.6649,0.0,0.0,0.0,0.0,0.0,0.0,0.0,0.0,0.0,0.0,0.0,0.0,0.0,0.0,0.0,0.0,0.0,0.0,0.0,0.0,0.0,0.0,0.0,0.0,0.0,0.0,0.0,0.0,3.7462,3.8015,3.809,0.0,0.0,0.0,0.0,0.0,0.0,0.0,0.0,0.0,0.0,0.0,0.0,0.0,0.0,0.0,0.0,0.0,0.0,0.0,0.0,0.0,0.0,0.0,0.0,0.0,0.0,0.0,0.0,0.0,0.0,0.0,0.0,0.0,0.0,0.0,0.0,0.0,0.0,2.9804,2.9854,2.9829,2.9829,2.9955,3.0432,0.0,0.0,0.0,0.0,0.0,0.0,0.0,0.0,0.0,0.0,0.0,0.0,0.0,0.0,0.0,4.2986,4.2986,4.2539,4.2263,4.2263,4.163,4.1025,4.0576,4.1,4.0727,3.9722,4.0145,0.0,0.0,0.0,0.0,0.0,3.9742,3.9517,3.9517,3.9413,3.853,3.7346,3.7346,3.6433,3.5123,0.0,0.0,0.0,0.0,0.0,0.0,0.0,0.0,0.0,0.0,0.0,0.0,0.0,0.0,0.0,0.0,0.0,0.0,0.0,0.0,0.0,0.0,0.0,0.0,0.0,0.0,0.0,3.6405,3.7462,3.8241,3.8668,3.8944,0.0,0.0,0.0,0.0,3.5458,3.4906,3.4399,0.0,0.0,3.3571,0.0,0.0,0.0,0.0,0.0,0.0,0.0,0.0,0.0,0.0,0.0,0.0,0.0,0.0,0.0,0.0,0.0,0.0,0.0,0.0,0.0,0.0,0.0,0.0,0.0,0.0,0.0,0.0,0.0,0.0,3.0206,3.1436,0.0,0.0,0.0,0.0,0.0,0.0,0.0,0.0,0.0,0.0,0.0,0.0,0.0,0.0,0.0,0.0,4.2986,4.2986,4.2861,4.2841,4.2841,4.1831,4.1225,4.11,4.0852,4.035,3.9671,3.9014,0.0,0.0,0.0,0.0,3.82,3.808,3.8031,3.7902,3.6757,3.6108,3.5836,3.5836,3.4902,3.3642,0.0,0.0,0.0,0.0,0.0,0.0,0.0,0.0,0.0,0.0,0.0,0.0,0.0,0.0,0.0,0.0,0.0,0.0,0.0,0.0,0.0,0.0,0.0,0.0,0.0,0.0,0.0,0.0,0.0,3.932,0.0,0.0,0.0,0.0,0.0,0.0,3.5906,3.5604,3.5152,3.4625,3.4374,0.0,0.0,0.0,0.0,0.0,3.1863,3.1612,0.0,3.1311,3.1311,3.1286,0.0,0.0,0.0,0.0,2.9804,0.0,0.0,0.0,0.0,0.0,0.0,0.0,0.0,0.0,0.0,0.0,0.0,0.0,0.0,0.0,0.0,0.0,0.0,0.0,0.0,0.0,0.0,0.0,0.0,0.0,0.0,0.0,0.0,0.0,0.0,0.0,0.0,0.0,4.2766,4.2961,4.2791,4.2665,4.2665,4.2007,4.1455,4.0899,4.0651,3.9885,3.8687,3.8083,0.0,0.0,0.0,0.0,3.6835,3.678,3.6642,3.6433,3.5617,3.4902,3.4314,3.4475,3.3529,3.2153,0.0,0.0,0.0,0.0,0.0,0.0,0.0,0.0,0.0,0.0,0.0,0.0,0.0,0.0,0.0,0.0,0.0,0.0,0.0,0.0,0.0,0.0,0.0,0.0,0.0,0.0,0.0,0.0,0.0,0.0,0.0,0.0,0.0,0.0,0.0,0.0,3.6279,3.638,3.5981,3.5332,0.0,0.0,0.0,0.0,0.0,0.0,0.0,0.0,0.0,3.2365,3.2416,3.2064,3.1888,0.0,0.0,0.0,0.0,0.0,0.0,0.0,0.0,0.0,0.0,0.0,0.0,0.0,0.0,0.0,0.0,0.0,0.0,0.0,0.0,0.0,0.0,0.0,0.0,0.0,0.0,0.0,0.0,0.0,0.0,0.0,0.0,0.0,0.0,0.0,0.0,0.0,0.0,4.271,4.2283,4.2037,4.1961,4.2112,4.1656,4.0651,4.0315,3.9251,3.7572,3.7143,3.6461,0.0,0.0,0.0,3.5635,3.5501,3.5257,3.498,3.4769,3.3974,3.2903,3.3302,3.2446,3.1191,0.0,0.0,0.0,0.0,0.0,0.0,0.0,0.0,0.0,0.0,0.0,0.0,0.0,0.0,0.0,0.0,0.0,0.0,0.0,0.0,0.0,0.0,0.0,0.0,0.0,0.0,0.0,0.0,0.0,0.0,4.2213,4.2559,4.0827,0.0,0.0,3.6985,3.5658,3.6157,3.578,3.4851,0.0,0.0,0.0,0.0,0.0,0.0,0.0,0.0,0.0,3.0934,3.1235,3.1361,3.0457,0.0,0.0,0.0,0.0,0.0,0.0,0.0,0.0,0.0,0.0,0.0,0.0,0.0,0.0,0.0,0.0,0.0,0.0,0.0,0.0,0.0,0.0,0.0,0.0,0.0,0.0,0.0,0.0,0.0,0.0,0.0,0.0,0.0,0.0,0.0,0.0,0.0,0.0,4.1526,4.1451,4.1254,4.0777,4.1735,4.1831,4.115,3.9423,3.8485,3.8065,3.5479,3.4026,0.0,0.0,3.3862,3.3558,3.3558,3.3459,3.3346,3.2461,3.1919,3.1801,3.2255,3.2253,3.2053,0.0,0.0,0.0,0.0,0.0,0.0,0.0,0.0,0.0,0.0,0.0,0.0,0.0,0.0,0.0,0.0,0.0,0.0,0.0,0.0,0.0,0.0,0.0,0.0,0.0,0.0,0.0,0.0,0.0,4.4016,4.4794,4.2961,4.0325,3.7161,0.0,3.621,3.5508,3.5805,3.5805,3.5554,0.0,0.0,0.0,0.0,0.0,0.0,0.0,0.0,0.0,0.0,3.1838,3.2114,3.1009,0.0,0.0,0.0,0.0,0.0,3.0708,0.0,0.0,0.0,0.0,0.0,0.0,0.0,0.0,0.0,0.0,0.0,0.0,0.0,0.0,0.0,0.0,0.0,0.0,0.0,0.0,0.0,0.0,0.0,0.0,0.0,0.0,0.0,0.0,0.0,0.0,0.0,0.0,0.0,4.1275,4.0749,3.9642,4.0769,4.0721,3.9569,3.8707,3.7557,3.6159,3.4489,3.3182,3.2246,0.0,3.2509,3.196,3.2125,3.2226,3.2188,3.1663,3.166,3.1894,3.209,3.2461,3.2812,0.0,0.0,0.0,0.0,0.0,0.0,0.0,0.0,0.0,0.0,0.0,0.0,0.0,0.0,0.0,0.0,0.0,0.0,0.0,0.0,0.0,0.0,0.0,0.0,0.0,0.0,0.0,4.3765,4.5296,4.6351,4.6853,4.3307,4.0174,0.0,0.0,3.5658,3.5307,3.5307,3.5604,3.5881,0.0,0.0,0.0,0.0,0.0,0.0,0.0,0.0,0.0,0.0,0.0,0.0,0.0,0.0,0.0,0.0,0.0,3.0055,3.0457,3.126,0.0,0.0,0.0,0.0,0.0,0.0,0.0,0.0,0.0,0.0,0.0,0.0,0.0,0.0,0.0,0.0,0.0,0.0,0.0,0.0,0.0,0.0,0.0,0.0,0.0,0.0,0.0,0.0,0.0,0.0,0.0,0.0,4.0607,3.9854,3.8698,3.9339,3.9098,3.7909,3.7688,3.6476,3.4421,3.3572,3.2527,3.1387,3.1719,3.1504,3.0918,3.123,3.1426,3.1523,3.1621,3.1992,3.2461,3.2461,3.2871,3.3379,0.0,0.0,0.0,0.0,0.0,0.0,0.0,0.0,0.0,0.0,0.0,0.0,0.0,0.0,0.0,0.0,0.0,0.0,0.0,0.0,0.0,0.0,0.0,0.0,0.0,4.1756,4.283,4.6075,4.7179,4.728,4.6326,4.3966,4.1103,3.7914,0.0,3.6207,3.4776,3.4776,3.4756,3.4776,3.4198,0.0,0.0,0.0,0.0,0.0,0.0,0.0,0.0,0.0,0.0,0.0,0.0,0.0,0.0,0.0,0.0,3.0884,3.2416,3.3269,0.0,0.0,0.0,0.0,0.0,0.0,0.0,0.0,0.0,0.0,0.0,0.0,0.0,0.0,0.0,0.0,0.0,0.0,0.0,0.0,0.0,0.0,0.0,0.0,0.0,0.0,0.0,0.0,0.0,0.0,0.0,0.0,0.0,3.7917,3.8153,3.7359,3.7151,3.743,3.6081,3.5117,3.4421,3.2494,3.1407,3.0937,3.0976,3.0957,3.0898,3.0918,3.1172,3.1562,3.1953,3.2617,3.332,3.332,3.3379,3.3418,0.0,0.0,0.0,0.0,0.0,0.0,0.0,0.0,0.0,0.0,0.0,0.0,0.0,0.0,0.0,0.0,0.0,0.0,0.0,0.0,0.0,0.0,0.0,3.9798,4.2911,4.4267,4.6075,4.836,4.9113,4.8209,4.5748,4.357,0.0,0.0,0.0,3.5504,3.5132,3.45,3.46,3.5107,3.4248,3.3897,0.0,0.0,0.0,0.0,0.0,0.0,0.0,0.0,0.0,0.0,0.0,0.0,0.0,0.0,0.0,0.0,3.1386,3.219,0.0,0.0,0.0,0.0,0.0,0.0,0.0,0.0,0.0,0.0,0.0,0.0,0.0,0.0,0.0,0.0,0.0,0.0,0.0,0.0,0.0,0.0,0.0,0.0,0.0,0.0,0.0,0.0,0.0,0.0,0.0,0.0,0.0,3.7562,3.5826,3.5786,3.5363,3.4551,3.4661,3.43,3.3397,3.2116,3.1426,3.1269,3.1269,3.1133,3.0918,3.1172,3.1543,3.1992,3.2676,3.3144,3.3418,3.3418,3.3418,3.3418,0.0,0.0,0.0,0.0,0.0,0.0,0.0,0.0,0.0,0.0,0.0,0.0,0.0,0.0,0.0,0.0,0.0,0.0,0.0,0.0,0.0,0.0,0.0,3.932,4.2133,4.4744,4.7154,4.9339,4.9891,4.846,4.5171,0.0,0.0,0.0,0.0,0.0,0.0,3.5027,3.4705,3.5157,3.4274,3.3897,0.0,0.0,0.0,0.0,0.0,0.0,0.0,0.0,0.0,0.0,0.0,0.0,0.0,0.0,0.0,0.0,3.0658,3.116,0.0,0.0,0.0,0.0,0.0,0.0,0.0,0.0,0.0,0.0,0.0,0.0,0.0,0.0,0.0,0.0,0.0,0.0,0.0,0.0,0.0,0.0,0.0,0.0,0.0,0.0,0.0,0.0,0.0,0.0,0.0,0.0,0.0,3.6171,3.4232,3.4217,3.37,3.2598,3.3397,3.3276,3.2363,3.1777,3.1445,3.1328,3.1328,3.123,3.1113,3.1406,3.1855,3.2441,3.3144,3.3418,3.3418,3.3418,3.3418,3.3418,0.0,0.0,0.0,0.0,0.0,0.0,0.0,0.0,0.0,0.0,0.0,0.0,0.0,0.0,0.0,0.0,0.0,0.0,0.0,0.0,0.0,0.0,0.0,3.8768,4.045,4.2635,4.5397,4.8736,4.9289,4.7857,4.4593,4.4041,0.0,0.0,0.0,0.0,0.0,3.6436,3.5182,3.4675,3.4123,3.3897,3.3847,0.0,0.0,0.0,0.0,0.0,0.0,0.0,0.0,0.0,0.0,0.0,0.0,0.0,0.0,3.1286,3.0758,0.0,0.0,0.0,0.0,0.0,0.0,0.0,0.0,0.0,0.0,0.0,0.0,0.0,0.0,0.0,0.0,0.0,0.0,0.0,0.0,0.0,0.0,0.0,0.0,0.0,0.0,0.0,0.0,0.0,0.0,0.0,0.0,0.0,0.0,0.0,3.3691,3.2675,3.2168,3.2168,3.2209,3.1934,3.1523,3.1504,3.1289,3.0898,3.0898,3.1133,3.1523,3.1523,3.2031,3.2851,3.3262,3.3418,3.3418,3.3418,3.3418,3.3437,0.0,0.0,0.0,0.0,0.0,0.0,0.0,0.0,0.0,0.0,0.0,0.0,0.0,0.0,0.0,0.0,0.0,0.0,0.0,0.0,0.0,0.0,0.0,0.0,0.0,0.0,4.3112,4.6451,4.6627,4.5196,0.0,0.0,0.0,3.9874,0.0,0.0,0.0,0.0,3.5408,3.5207,3.47,3.4474,3.4424,0.0,0.0,0.0,0.0,0.0,0.0,0.0,0.0,0.0,0.0,0.0,0.0,0.0,3.1788,3.1763,3.0859,0.0,0.0,0.0,0.0,0.0,0.0,0.0,0.0,0.0,0.0,0.0,0.0,0.0,0.0,0.0,0.0,0.0,0.0,0.0,0.0,0.0,0.0,0.0,0.0,0.0,0.0,0.0,0.0,0.0,0.0,0.0,0.0,0.0,0.0,0.0,3.2195,3.1879,3.1719,3.1699,3.1406,3.1348,3.1504,3.1211,3.1016,3.0898,3.0898,3.1133,3.1562,3.2168,3.2734,3.3242,3.3379,3.3418,3.3418,3.3418,3.3613,3.3828,0.0,0.0,0.0,0.0,0.0,0.0,0.0,0.0,0.0,0.0,0.0,0.0,0.0,0.0,0.0,0.0,0.0,0.0,0.0,0.0,0.0,0.0,0.0,0.0,0.0,3.927,4.0953,0.0,0.0,0.0,0.0,0.0,0.0,4.1178,0.0,4.1254,0.0,0.0,3.6837,3.583,3.5504,3.5253,3.4931,0.0,0.0,0.0,0.0,0.0,0.0,0.0,0.0,0.0,0.0,0.0,0.0,0.0,3.1662,3.1587,0.0,0.0,0.0,0.0,0.0,0.0,0.0,0.0,0.0,0.0,0.0,0.0,0.0,0.0,0.0,0.0,0.0,0.0,0.0,0.0,0.0,0.0,0.0,0.0,0.0,0.0,0.0,0.0,0.0,0.0,0.0,0.0,0.0,0.0,0.0,0.0,3.1269,3.1426,3.1426,3.1269,3.1191,3.1191,3.1269,3.0996,3.0898,3.0918,3.125,3.1543,3.1836,3.2695,3.3184,3.3418,3.3418,3.3418,3.3418,3.3418,3.3691,3.4004,0.0,0.0,0.0,0.0,0.0,0.0,0.0,0.0,0.0,0.0,0.0,0.0,0.0,0.0,0.0,0.0,0.0,0.0,0.0,0.0,0.0,0.0,0.0,0.0,0.0,0.0,0.0,0.0,0.0,0.0,0.0,0.0,4.5045,4.4593,0.0,4.492,0.0,4.0953,3.8718,3.6405,3.6405,3.6056,3.5508,3.4906,0.0,0.0,0.0,0.0,0.0,0.0,0.0,0.0,0.0,0.0,0.0,0.0,0.0,0.0,0.0,0.0,0.0,0.0,0.0,0.0,0.0,0.0,0.0,0.0,0.0,0.0,0.0,0.0,0.0,0.0,0.0,0.0,0.0,0.0,0.0,0.0,0.0,0.0,0.0,0.0,0.0,0.0,0.0,0.0,0.0,0.0,0.0,0.0,0.0,0.0,3.0898,3.1269,3.1269,0.0,3.1269,3.1269,3.0898,3.0898,3.0898,3.0937,3.1797,3.2229,3.2226,3.3066,3.3418,3.3418,3.3418,3.3418,3.3355,3.3228,3.3564,3.4004,0.0,0.0,0.0,0.0,0.0,0.0,0.0,0.0,0.0,0.0,0.0,0.0,0.0,0.0,0.0,0.0,0.0,0.0,0.0,0.0,0.0,0.0,0.0,0.0,0.0,0.0,0.0,0.0,0.0,0.0,0.0,0.0,0.0,4.4016,0.0,4.3765,0.0,3.8969,3.7312,3.6405,3.6405,3.6329,3.6081,3.5102,3.465,0.0,0.0,0.0,0.0,0.0,0.0,0.0,0.0,3.1235,3.1185,3.1009,0.0,0.0,0.0,0.0,0.0,0.0,0.0,0.0,0.0,0.0,0.0,0.0,0.0,0.0,0.0,0.0,0.0,0.0,0.0,0.0,0.0,0.0,0.0,0.0,0.0,0.0,0.0,0.0,0.0,0.0,0.0,0.0,0.0,0.0,0.0,0.0,0.0,3.0898,3.0898,3.0976,3.0976,0.0,3.0976,3.0976,3.0898,3.0898,3.0898,3.0937,3.1797,3.2229,3.2226,3.3066,3.3418,3.3418,3.3418,3.3418,3.3228,3.1835,3.2501,3.3875,0.0,0.0,0.0,0.0,0.0,0.0,0.0,0.0,0.0,0.0,0.0,0.0,0.0,0.0,0.0,0.0,0.0,0.0,0.0,0.0,0.0,0.0,0.0,0.0,0.0,0.0,0.0,0.0,0.0,0.0,0.0,0.0,0.0,4.2674,0.0,4.2987,4.1175,3.9496,3.799,3.6807,3.6807,3.6807,3.6681,3.5529,3.4906,3.455,3.3169,0.0,0.0,0.0,0.0,0.0,0.0,0.0,3.0683,3.0909,3.1009,0.0,0.0,0.0,0.0,0.0,0.0,0.0,0.0,0.0,0.0,0.0,0.0,0.0,0.0,0.0,0.0,0.0,0.0,0.0,0.0,0.0,0.0,0.0,0.0,0.0,0.0,0.0,0.0,0.0,0.0,0.0,0.0,0.0,0.0,0.0,3.0898,3.0898,3.0898,3.0898,3.0898,3.0898,3.0898,3.0898,3.0898,3.0898,3.0898,3.0918,3.1582,3.1973,3.2226,3.2851,3.3242,3.3292,3.2492,3.2155,3.2046,3.133,3.1378,3.1703,0.0,0.0,0.0,0.0,0.0,0.0,0.0,0.0,0.0,0.0,0.0,0.0,0.0,0.0,0.0,0.0,0.0,0.0,0.0,0.0,0.0,0.0,0.0,0.0,0.0,0.0,0.0,0.0,0.0,0.0,0.0,0.0,0.0,4.1602,0.0,0.0,4.1225,4.035,3.8818,3.7036,3.7036,3.7036,3.6935,3.583,3.5082,3.448,3.2918,3.229,3.2064,3.1085,0.0,0.0,0.0,0.0,2.9955,3.0859,3.0557,3.0557,0.0,0.0,0.0,0.0,0.0,0.0,0.0,0.0,0.0,0.0,0.0,0.0,0.0,0.0,0.0,0.0,0.0,0.0,0.0,0.0,0.0,0.0,0.0,0.0,0.0,0.0,0.0,0.0,0.0,0.0,0.0,0.0,3.0898,3.0898,3.0898,3.0898,3.0898,3.0898,3.0898,3.0898,3.0898,3.0898,3.0898,3.0898,3.0898,3.0918,3.1406,3.1836,3.2268,3.2695,3.2918,3.2829,3.1689,3.089,3.0461,3.0799,3.0135,2.9373,0.0,0.0,0.0,0.0,0.0,0.0,0.0,0.0,0.0,0.0,0.0,0.0,0.0,0.0,0.0,0.0,0.0,0.0,0.0,0.0,0.0,0.0,0.0,0.0,0.0,0.0,0.0,0.0,0.0,0.0,0.0,0.0,0.0,0.0,0.0,0.0,0.0,3.8693,3.7186,3.6505,3.6505,3.6505,3.6405,3.5253,3.4731,3.4575,3.3395,3.2641,3.2114,3.1486,3.0984,0.0,0.0,0.0,0.0,0.0,0.0,0.0,0.0,0.0,0.0,0.0,0.0,0.0,0.0,0.0,0.0,0.0,0.0,0.0,0.0,0.0,0.0,0.0,0.0,0.0,0.0,0.0,0.0,0.0,0.0,0.0,0.0,0.0,0.0,0.0,0.0,0.0,0.0,3.0898,3.0898,3.0898,3.0898,3.0898,3.0898,3.0898,3.0898,3.0898,3.0898,3.0898,3.0898,3.0898,3.0898,3.0937,3.1738,3.2109,3.2226,3.3008,3.2435,3.1304,3.2556,3.133,2.8893,2.896,2.8991,2.8826,0.0,0.0,0.0,0.0,0.0,0.0,0.0,0.0,0.0,0.0,0.0,0.0,0.0,0.0,0.0,0.0,0.0,0.0,0.0,0.0,0.0,0.0,0.0,0.0,0.0,0.0,0.0,0.0,0.0,0.0,0.0,3.8554,3.9531,0.0,0.0,0.0,0.0,0.0,0.0,3.6405,3.6405,3.6405,0.0,0.0,3.4956,3.4575,3.347,3.2918,3.2516,3.1361,3.0984,3.0909,3.0055,0.0,0.0,0.0,0.0,0.0,0.0,0.0,0.0,0.0,0.0,0.0,0.0,0.0,0.0,0.0,0.0,0.0,0.0,0.0,0.0,0.0,0.0,0.0,0.0,0.0,0.0,0.0,0.0,0.0,0.0,0.0,0.0,0.0,0.0,0.0,3.0508,3.0762,3.0898,3.0898,3.0898,3.0898,3.0898,3.0898,3.0898,3.0898,3.0898,3.0898,3.0898,3.0898,3.0898,3.0918,3.1289,3.1719,3.2268,3.2559,3.1948,3.0771,3.0595,2.8988,2.6905,2.7364,2.6855,2.6158,0.0,0.0,0.0,0.0,0.0,0.0,0.0,0.0,0.0,0.0,0.0,0.0,0.0,0.0,0.0,0.0,0.0,0.0,0.0,0.0,0.0,0.0,0.0,0.0,0.0,0.0,0.0,0.0,0.0,0.0,3.8288,3.9108,3.9316,0.0,3.7479,0.0,0.0,0.0,0.0,0.0,0.0,0.0,0.0,0.0,0.0,3.4057,3.3008,3.2626,3.2413,3.1116,3.0811,3.0844,3.0202,2.9905,0.0,0.0,0.0,0.0,0.0,0.0,0.0,0.0,0.0,0.0,0.0,0.0,0.0,0.0,0.0,0.0,0.0,0.0,0.0,0.0,0.0,0.0,0.0,0.0,0.0,0.0,0.0,0.0,0.0,0.0,0.0,0.0,0.0,0.0,3.0215,3.0644,3.0898,3.0898,3.0898,3.0898,3.0898,3.0898,3.0898,3.0898,3.0898,3.0898,3.0898,3.0898,3.0898,3.0898,3.1113,3.1641,3.2344,3.1992,3.1169,2.9995,2.8689,2.6835,2.5047,2.6141,2.5455,2.4156,0.0,0.0,0.0,0.0,0.0,0.0,0.0,0.0,0.0,0.0,0.0,0.0,0.0,0.0,0.0,0.0,0.0,0.0,0.0,0.0,0.0,0.0,0.0,0.0,0.0,0.0,0.0,0.0,0.0,0.0,3.88,4.0414,4.1433,4.1803,3.9779,3.9439,4.0165,0.0,0.0,0.0,0.0,0.0,0.0,0.0,0.0,0.0,0.0,0.0,3.1267,3.106,3.0395,2.9792,3.0372,3.0206,0.0,0.0,0.0,0.0,0.0,0.0,0.0,0.0,0.0,0.0,0.0,0.0,0.0,0.0,0.0,0.0,0.0,0.0,0.0,0.0,0.0,0.0,0.0,0.0,0.0,0.0,0.0,0.0,0.0,0.0,0.0,0.0,0.0,0.0,3.0195,3.0644,3.0898,3.0898,3.0898,3.0898,3.0898,3.0898,3.0898,3.0898,3.0898,3.0898,3.0898,3.0898,3.0898,3.0937,3.1758,3.2363,3.2669,3.1421,2.9895,2.8295,2.8229,2.6252,2.3676,2.5688,2.5456,2.4222,0.0,0.0,0.0,0.0,0.0,0.0,0.0,0.0,0.0,0.0,0.0,0.0,0.0,0.0,0.0,0.0,0.0,0.0,0.0,0.0,0.0,0.0,0.0,0.0,0.0,0.0,0.0,0.0,0.0,3.7443,3.889,4.0212,4.0881,4.0943,3.8758,3.8282,3.8785,3.4633,0.0,0.0,0.0,0.0,0.0,0.0,0.0,0.0,0.0,0.0,0.0,3.1747,3.0676,0.0,0.0,0.0,0.0,0.0,0.0,0.0,0.0,0.0,0.0,0.0,0.0,0.0,0.0,0.0,0.0,0.0,0.0,0.0,0.0,0.0,0.0,0.0,0.0,0.0,0.0,0.0,0.0,0.0,0.0,0.0,0.0,0.0,0.0,0.0,0.0,0.0,2.9785,3.0215,3.0586,3.0879,3.0898,3.0898,3.0898,3.0898,3.0898,3.0898,3.0898,3.0898,3.0898,3.0898,3.0487,2.9762,3.0259,3.0575,3.0661,3.0148,2.8575,2.6439,2.6439,2.5198,2.3437,2.4412,2.4501,2.4249,0.0,0.0,0.0,0.0,0.0,0.0,0.0,0.0,0.0,0.0,0.0,0.0,0.0,0.0,0.0,0.0,0.0,0.0,0.0,0.0,0.0,0.0,0.0,0.0,0.0,0.0,0.0,0.0,0.0,0.0,0.0,0.0,3.9804,4.0671,3.8145,0.0,0.0,0.0,0.0,3.7112,0.0,0.0,3.4811,0.0,0.0,0.0,0.0,0.0,0.0,0.0,0.0,0.0,0.0,0.0,0.0,0.0,0.0,0.0,0.0,0.0,0.0,0.0,0.0,0.0,0.0,0.0,0.0,0.0,0.0,0.0,0.0,0.0,0.0,0.0,0.0,0.0,0.0,0.0,0.0,0.0,0.0,0.0,0.0,0.0,0.0,0.0,0.0,0.0,2.957,2.9961,3.041,3.0879,3.0898,3.0898,3.0898,3.0898,3.0898,3.0898,3.0898,3.0898,3.0898,3.0333,2.9621,2.8841,2.8606,2.8595,2.8857,2.8345,2.7133,2.545,2.4858,2.4051,2.3367,2.3661,2.3955,2.4249,0.0,0.0,0.0,0.0,0.0,0.0,0.0,0.0,0.0,0.0,0.0,0.0,0.0,0.0,0.0,0.0,0.0,0.0,0.0,0.0,0.0,0.0,0.0,0.0,0.0,0.0,0.0,0.0,0.0,0.0,0.0,0.0,3.8323,0.0,3.8097,3.8157,4.019,0.0,3.759,3.9851,0.0,3.2912,3.4292,0.0,0.0,0.0,3.0923,3.0319,0.0,0.0,0.0,0.0,0.0,0.0,0.0,0.0,0.0,0.0,0.0,0.0,0.0,0.0,0.0,0.0,0.0,0.0,0.0,0.0,0.0,0.0,0.0,0.0,0.0,0.0,0.0,0.0,0.0,0.0,0.0,0.0,0.0,0.0,0.0,0.0,0.0,0.0,0.0,2.9101,2.9531,2.9961,3.041,3.0879,3.0898,3.0898,3.0898,3.0898,3.0898,3.0898,3.0898,3.0879,3.0762,2.9157,2.8349,2.8188,2.6918,2.6799,2.7441,2.6019,2.5435,2.5248,2.3597,2.3073,2.338,2.3674,2.3968,2.4262,0.0,0.0,0.0,0.0,0.0,0.0,0.0,0.0,0.0,0.0,0.0,0.0,0.0,0.0,0.0,0.0,0.0,0.0,0.0,0.0,0.0,0.0,0.0,0.0,0.0,0.0,0.0,0.0,0.0,0.0,0.0,0.0,0.0,0.0,3.6402,3.6913,3.7966,3.5445,0.0,0.0,3.3387,3.2746,0.0,0.0,0.0,0.0,0.0,3.1413,0.0,0.0,2.9761,2.8288,0.0,0.0,0.0,0.0,0.0,0.0,3.0382,0.0,0.0,0.0,0.0,0.0,0.0,0.0,0.0,0.0,0.0,0.0,0.0,0.0,0.0,0.0,0.0,0.0,0.0,0.0,0.0,0.0,0.0,0.0,0.0,0.0,0.0,0.0,2.8398,2.8652,2.9082,2.9805,3.041,3.0879,3.0898,3.0898,3.0898,3.0898,3.0898,3.0898,3.0898,3.0274,2.9098,2.8605,2.7151,2.4933,2.4703,2.4212,2.3679,2.4643,2.452,2.3611,2.3307,2.338,2.3688,2.3981,2.4262,2.4529,0.0,0.0,0.0,0.0,0.0,0.0,0.0,0.0,0.0,0.0,0.0,0.0,0.0,0.0,0.0,0.0,0.0,0.0,0.0,0.0,0.0,0.0,0.0,0.0,0.0,0.0,0.0,0.0,0.0,0.0,0.0,0.0,0.0,0.0,0.0,0.0,0.0,0.0,0.0,0.0,3.3587,0.0,0.0,3.2551,3.1957,0.0,0.0,0.0,3.134,3.13,3.0158,0.0,0.0,0.0,0.0,0.0,0.0,0.0,0.0,0.0,0.0,0.0,0.0,0.0,0.0,3.342,0.0,0.0,0.0,0.0,0.0,0.0,0.0,0.0,0.0,0.0,0.0,0.0,0.0,0.0,0.0,0.0,0.0,0.0,0.0,0.0,2.8301,2.8476,2.8906,2.9726,3.0312,3.0586,3.0781,3.0898,3.0898,3.0898,3.0898,3.0898,3.0216,2.9335,2.8349,2.703,2.5391,2.3604,2.3305,2.2716,2.2083,2.3476,2.3635,2.2954,2.306,2.3394,2.3794,2.3968,2.4289,2.4636,0.0,0.0,0.0,0.0,0.0,0.0,0.0,0.0,0.0,0.0,0.0,0.0,0.0,0.0,0.0,0.0,0.0,0.0,0.0,0.0,0.0,0.0,0.0,0.0,0.0,0.0,0.0,0.0,0.0,0.0,0.0,0.0,0.0,0.0,0.0,0.0,0.0,0.0,0.0,3.5294,3.4207,3.393,0.0,0.0,3.3535,0.0,3.373,3.3242,3.2031,3.0723,3.0037,0.0,0.0,0.0,0.0,0.0,3.1656,0.0,0.0,0.0,0.0,0.0,0.0,0.0,3.229,3.2792,3.3212,0.0,0.0,0.0,0.0,0.0,0.0,0.0,0.0,0.0,0.0,0.0,0.0,0.0,0.0,0.0,0.0,0.0,2.8301,2.8301,2.8301,2.8476,2.8906,2.9629,3.0098,3.0195,3.0586,3.084,3.0898,3.0898,3.0898,3.0898,2.9394,2.8486,2.8051,2.5146,2.3698,2.3293,2.2332,2.1951,2.2031,2.2579,2.2901,2.2941,2.3008,2.337,2.3781,2.3848,2.4195,2.4636,0.0,0.0,0.0,0.0,0.0,0.0,0.0,0.0,0.0,0.0,0.0,0.0,0.0,0.0,0.0,0.0,0.0,0.0,0.0,0.0,0.0,0.0,0.0,0.0,0.0,0.0,0.0,0.0,0.0,0.0,0.0,0.0,0.0,0.0,0.0,0.0,0.0,0.0,0.0,3.3005,3.3922,0.0,3.3146,3.3446,3.3437,3.332,3.3496,3.3164,3.248,0.0,3.0978,3.1219,0.0,0.0,0.0,0.0,0.0,0.0,0.0,0.0,0.0,0.0,0.0,0.0,3.3545,3.3646,3.3746,0.0,0.0,0.0,0.0,0.0,0.0,0.0,0.0,0.0,0.0,0.0,0.0,0.0,0.0,0.0,0.0,0.0,2.8301,2.8301,2.8301,2.8476,2.8906,2.9082,2.9492,3.0176,3.0293,3.0508,3.0879,3.0898,3.0898,3.0898,3.0587,2.9039,2.647,2.5802,2.4101,2.1565,2.1676,2.1764,2.2017,2.2365,2.2645,2.2981,2.3407,2.3661,2.3834,2.4289,2.4543,2.4636,0.0,0.0,0.0,0.0,0.0,0.0,0.0,0.0,0.0,0.0,0.0,0.0,0.0,0.0,0.0,0.0,0.0,0.0,0.0,0.0,0.0,0.0,0.0,0.0,0.0,0.0,0.0,0.0,0.0,0.0,0.0,0.0,0.0,0.0,0.0,0.0,0.0,0.0,3.103,3.1374,3.3174,0.0,3.3223,3.4297,3.4453,3.4082,3.4316,3.3848,3.2949,3.1894,3.1384,0.0,0.0,3.1103,3.0821,0.0,3.1469,3.0541,0.0,0.0,0.0,3.1781,0.0,0.0,0.0,3.3109,3.3338,0.0,0.0,0.0,0.0,0.0,0.0,0.0,0.0,0.0,0.0,0.0,0.0,0.0,0.0,0.0,0.0,0.0,2.7754,2.7969,2.7988,2.8164,2.8574,2.9004,2.9336,2.9551,3.0195,3.0547,3.0547,3.0781,3.0898,3.0898,2.9235,2.7572,2.5924,2.4286,2.2726,2.1349,2.1643,2.1937,2.2218,2.2525,2.2726,2.2954,2.3193,2.3571,2.3808,2.4102,2.4382,2.4636,0.0,0.0,0.0,0.0,0.0,0.0,0.0,0.0,0.0,0.0,0.0,0.0,0.0,0.0,0.0,0.0,0.0,0.0,0.0,0.0,0.0,0.0,0.0,3.1052,0.0,0.0,0.0,0.0,0.0,0.0,0.0,0.0,0.0,0.0,0.0,0.0,0.0,0.0,0.0,3.0625,0.0,3.3242,3.3359,3.5019,3.5195,3.4629,3.5,3.4394,3.3301,3.2461,0.0,3.1092,3.137,3.0616,0.0,0.0,0.0,0.0,0.0,0.0,0.0,0.0,0.0,3.2652,0.0,0.0,0.0,0.0,0.0,0.0,0.0,0.0,0.0,0.0,0.0,0.0,0.0,0.0,0.0,0.0,0.0,0.0,0.0,0.0,2.7168,2.7571,2.7669,2.7812,2.8164,2.8906,2.9199,2.8926,3.0039,3.0488,3.0195,3.0664,3.0762,3.0392,2.7751,2.6167,2.5436,2.2764,2.1588,2.1628,2.1857,2.2151,2.2445,2.2739,2.2928,2.2941,2.3062,2.334,2.3781,2.3901,2.4235,2.4636,0.0,0.0,0.0,0.0,0.0,0.0,0.0,0.0,0.0,0.0,0.0,0.0,0.0,0.0,0.0,0.0,0.0,0.0,3.4398,0.0,0.0,0.0,0.0,0.0,3.155,0.0,0.0,0.0,0.0,0.0,0.0,0.0,0.0,0.0,3.0115,0.0,0.0,0.0,3.0464,0.0,3.2461,3.2637,0.0,3.3789,3.4238,3.416,3.4199,3.3867,3.3301,0.0,3.1836,3.1367,0.0,3.0366,0.0,0.0,0.0,0.0,0.0,0.0,0.0,0.0,3.3137,0.0,0.0,0.0,0.0,0.0,0.0,0.0,0.0,0.0,0.0,0.0,0.0,0.0,0.0,0.0,0.0,0.0,0.0,0.0,0.0,0.0,0.0,2.709,2.7441,2.7748,2.7787,2.8184,2.8594,2.8906,2.9434,2.9863,3.0195,3.0664,3.0138,2.8664,2.8289,2.6668,2.3869,2.3512,2.27,2.1628,2.1857,2.2151,2.2445,2.2739,2.2928,2.2913,2.346,2.3714,2.3834,2.4342,2.4583,2.4636,0.0,0.0,0.0,0.0,0.0,0.0,0.0,0.0,0.0,0.0,0.0,0.0,0.0,0.0,0.0,0.0,0.0,3.3711,0.0,0.0,0.0,0.0,0.0,0.0,0.0,0.0,0.0,0.0,3.0293,0.0,0.0,0.0,0.0,0.0,2.9531,0.0,3.0117,0.0,0.0,0.0,0.0,0.0,0.0,3.3769,3.4277,3.4082,3.4082,3.3945,3.3711,0.0,3.2617,0.0,0.0,0.0,0.0,0.0,0.0,0.0,0.0,0.0,0.0,0.0,0.0,0.0,0.0,0.0,3.1316,0.0,0.0,0.0,0.0,0.0,0.0,0.0,0.0,0.0,0.0,0.0,0.0,0.0,0.0,0.0,0.0,0.0,0.0,0.0,0.0,2.7402,2.7708,2.8301,2.8633,2.8555,2.9453,2.943,2.8424,2.9077,2.8605,2.7013,2.6045,2.4901,2.3574,2.2777,2.2217,2.1817,2.2111,2.2405,2.2686,2.2806,2.2928,2.2995,2.3541,2.3768,2.3821,2.4235,2.4489,2.4636,0.0,0.0,0.0,0.0,0.0,0.0,0.0,0.0,0.0,0.0,0.0,0.0,3.9141,3.8769,0.0,0.0,0.0,3.5488,0.0,0.0,3.3092,0.0,0.0,0.0,0.0,0.0,0.0,0.0,0.0,0.0,0.0,0.0,0.0,0.0,0.0,2.9805,2.9961,0.0,0.0,3.1621,3.2051,3.2285,3.2519,3.373,3.4062,3.3887,3.3887,3.3887,3.3828,3.3398,3.3125,0.0,3.1973,0.0,0.0,0.0,0.0,0.0,3.0547,0.0,0.0,0.0,0.0,0.0,0.0,0.0,0.0,0.0,0.0,0.0,0.0,0.0,0.0,0.0,0.0,0.0,0.0,0.0,0.0,0.0,0.0,0.0,0.0,0.0,0.0,0.0,2.6602,2.7031,2.7461,2.8184,2.8535,2.8476,2.9007,2.8689,2.7301,2.7594,2.6953,2.5314,2.4178,2.3432,2.3034,2.202,2.1815,2.2111,2.2325,2.2592,2.2928,2.2928,2.2913,2.3046,2.3567,2.3821,2.3928,2.4209,2.4449,2.4636,3.0156,2.9824,0.0,0.0,0.0,0.0,0.0,0.0,0.0,0.0,0.0,0.0,0.0,0.0,0.0,0.0,0.0,3.7559,3.834,0.0,3.2483,0.0,0.0,3.0546,0.0,0.0,0.0,0.0,0.0,0.0,0.0,0.0,0.0,0.0,0.0,3.043,3.0898,3.1758,3.2578,3.3379,3.3809,3.4238,3.4473,0.0,3.3105,3.3437,3.3437,0.0,0.0,3.2949,3.3066,0.0,0.0,0.0,0.0,0.0,0.0,0.0,0.0,0.0,0.0,3.0957,0.0,0.0,0.0,0.0,2.9525,0.0,0.0,0.0,0.0,0.0,0.0,0.0,0.0,0.0,0.0,0.0,0.0,0.0,0.0,0.0,0.0,0.0,0.0,2.5713,2.6172,2.6602,2.7012,2.7461,2.8066,2.8867,2.779,2.7377,2.7755,2.6645,2.5253,2.3698,2.3636,2.2938,2.1666,2.1614,2.1857,2.2405,2.2418,2.2592,2.2928,2.2928,2.3046,2.334,2.3647,2.3941,2.4222,2.4516,2.4549,2.4636,2.8994,0.0,0.0,0.0,0.0,0.0,0.0,3.2416,0.0,0.0,0.0,0.0,0.0,0.0,4.1114,0.0,0.0,4.0215,3.9062,3.6836,0.0,0.0,0.0,3.2305,0.0,0.0,0.0,0.0,0.0,0.0,0.0,0.0,0.0,0.0,0.0,3.0078,0.0,0.0,0.0,0.0,0.0,3.4062,3.4629,0.0,0.0,3.3848,3.3848,3.3848,0.0,3.3691,3.373,3.375,3.3184,3.3105,3.3105,3.2539,3.2656,0.0,0.0,0.0,3.2266,3.1836,0.0,0.0,0.0,0.0,0.0,0.0,0.0,0.0,0.0,0.0,0.0,0.0,0.0,0.0,0.0,0.0,0.0,0.0,0.0,0.0,0.0,0.0,0.0,2.5693,2.6133,2.6141,0.0,2.5937,2.6549,2.7419,2.732,2.6898,2.6152,2.6044,2.464,2.1978,2.1978,2.1828,2.1628,2.175,2.2044,2.2432,2.2619,2.2766,2.2873,2.3086,2.3233,2.338,2.3861,2.4115,2.4235,2.4529,2.4636,2.4636,2.8421,2.9785,3.0801,0.0,0.0,0.0,0.0,0.0,0.0,0.0,3.4976,0.0,3.9939,0.0,4.1831,0.0,4.3808,4.2402,3.9629,3.8711,0.0,3.5488,3.4863,0.0,0.0,0.0,0.0,0.0,0.0,3.0039,0.0,0.0,0.0,0.0,0.0,0.0,0.0,0.0,3.2832,0.0,0.0,3.4668,0.0,0.0,3.4199,3.4062,0.0,3.3848,3.3848,3.3848,3.4043,3.4219,3.3789,3.3867,3.4004,3.3418,3.3555,3.375,3.3164,3.3125,0.0,3.2539,3.2187,0.0,3.125,0.0,0.0,0.0,0.0,0.0,0.0,0.0,0.0,0.0,0.0,0.0,0.0,0.0,0.0,0.0,0.0,0.0,0.0,0.0,2.5693,2.5693,2.5996,2.5786,0.0,0.0,2.5539,2.6031,2.5857,2.5393,2.4674,2.4408,2.3186,2.1109,2.1216,2.1416,2.1775,2.2004,2.2298,2.2592,2.2779,2.2928,2.2873,2.3086,2.3287,2.3527,2.3901,2.4168,2.4382,2.4569,2.4703,2.4796,2.8511,2.9785,3.0918,3.0918,2.9826,0.0,0.0,0.0,3.077,0.0,3.3759,3.6354,3.9944,4.1176,4.2554,4.4558,4.523,0.0,4.0238,4.0763,0.0,0.0,3.6426,3.582,3.3652,0.0,0.0,0.0,0.0,0.0,0.0,0.0,0.0,0.0,3.0664,0.0,3.1621,3.3301,3.4277,3.4766,3.5625,3.5957,3.5859,3.498,3.4394,3.4023,3.3574,3.3418,3.3418,3.3418,3.3984,3.459,3.4199,3.4687,3.5215,3.4355,3.4414,3.459,3.375,3.3828,3.3926,3.3066,0.0,0.0,0.0,0.0,3.1465,0.0,0.0,0.0,0.0,0.0,0.0,0.0,0.0,0.0,0.0,0.0,0.0,0.0,0.0,0.0,0.0,2.5693,2.5693,2.5693,2.5713,2.54,0.0,0.0,2.5006,2.4804,2.3548,2.3122,2.3574,2.2041,2.1186,2.1136,2.143,2.1789,2.2017,2.2298,2.2579,2.2928,2.2928,2.2941,2.2886,2.2968,2.326,2.3794,2.3808,2.4155,2.4636,2.4636,2.481,2.5064,2.8517,3.0011,3.1367,0.0,3.0073,2.9256,0.0,0.0,0.0,0.0,3.5924,3.9137,3.7929,3.9747,4.111,4.1304,4.2586,0.0,0.0,0.0,0.0,4.0234,3.9453,3.8203,3.6348,3.5371,0.0,3.2305,0.0,0.0,3.0879,0.0,0.0,0.0,0.0,0.0,3.1582,3.2676,3.373,3.4726,3.4941,3.5039,0.0,0.0,3.3887,3.4023,3.3574,3.3418,3.3418,3.3418,3.3789,3.4219,3.4101,3.4687,3.5273,3.4707,3.5078,3.5566,3.5039,3.4961,3.4844,3.3965,3.3496,3.3047,0.0,0.0,0.0,0.0,0.0,0.0,0.0,0.0,0.0,0.0,0.0,0.0,0.0,0.0,0.0,0.0,0.0,0.0,0.0,2.5869,2.5693,2.5693,2.6035,2.5301,0.0,0.0,0.0,2.3268,2.3142,2.323,2.3574,2.3373,2.2681,2.1507,2.1737,2.2031,2.2311,2.2392,2.2579,2.2928,2.2928,2.2993,2.322,2.3447,2.3754,2.4115,2.4329,2.4502,2.4636,2.4636,2.469,2.4783,2.7696,3.0167,0.0,3.2109,0.0,0.0,3.0131,0.0,0.0,2.9606,3.4517,0.0,3.6106,3.7786,3.9734,4.1371,4.2311,0.0,0.0,0.0,0.0,4.1855,4.1113,3.9902,3.8164,3.6504,0.0,3.3066,0.0,0.0,3.0879,0.0,0.0,0.0,0.0,3.0879,0.0,3.2637,3.3926,3.5254,3.5078,0.0,0.0,3.4238,3.4023,3.4023,3.3574,3.3418,3.3418,3.3418,3.3711,3.4082,3.4082,3.4551,3.5078,3.5019,3.5351,3.5703,3.5449,3.5527,3.5449,3.457,3.4316,3.4004,3.2949,3.2891,3.2891,0.0,0.0,0.0,0.0,0.0,0.0,0.0,0.0,0.0,0.0,0.0,0.0,0.0,0.0,0.0,2.6973,2.6543,2.6239,2.6239,2.6523,2.5521,0.0,0.0,0.0,2.1632,2.2286,2.2623,2.2729,2.3107,2.2823,2.1815,2.2031,2.2258,2.2418,2.2552,2.2699,2.2941,2.3006,2.3166,2.3354,2.3647,2.3941,2.4235,2.4529,2.4636,2.4636,2.4636,2.4796,2.5037,0.0,0.0,0.0,0.0,0.0,0.0,0.0,2.9835,0.0,2.8649,0.0,3.4825,3.4528,3.5906,3.8181,4.1522,0.0,4.2298,4.2518,4.3887,4.3678,4.173,4.1833,4.1191,3.9492,3.7305,0.0,0.0,0.0,0.0,0.0,0.0,0.0,0.0,0.0,0.0,0.0,3.2871,3.4297,0.0,3.5469,3.5332,3.5176,3.4766,3.4355,3.3945,3.3555,3.3418,3.3418,3.3418,3.3672,3.3984,3.3984,3.4277,3.4707,3.5176,3.5351,3.5391,3.5391,3.5664,3.5723,3.4844,3.4961,3.4961,3.3711,3.3457,3.3281,3.25,3.1992,3.166,0.0,0.0,0.0,0.0,0.0,0.0,0.0,0.0,0.0,0.0,0.0,0.0,0.0,2.7344,2.7012,2.7012,2.707,2.5964,0.0,0.0,0.0,2.0288,2.1336,0.0,2.1735,0.0,2.2338,2.2164,2.2378,2.2498,2.2552,2.2806,2.3008,2.2993,2.3273,2.3407,2.346,2.3728,2.3995,2.4289,2.4543,2.4636,2.4636,2.4676,2.5037,2.5518,0.0,0.0,0.0,0.0,0.0,2.9519,3.0495,3.3182,3.3908,3.075,3.5725,3.7943,3.3741,3.5246,3.5868,3.4183,3.5656,0.0,0.0,0.0,0.0,4.0592,4.201,4.2226,4.0859,3.8359,3.6582,0.0,3.3203,3.1836,0.0,0.0,0.0,0.0,0.0,0.0,3.1601,3.2871,0.0,3.3965,3.498,3.4961,3.4297,3.4219,3.3906,3.3535,3.3457,3.3418,3.3418,3.3418,3.3476,3.3535,3.3535,3.3828,3.4258,3.4687,3.5098,3.5391,3.5391,3.5449,3.5293,3.4394,3.4512,3.457,3.3633,3.3691,3.3809,3.3301,3.2871,3.2461,3.2129,0.0,0.0,0.0,0.0,0.0,0.0,0.0,0.0,0.0,0.0,0.0,0.0,0.0,0.0,0.0,0.0,2.6281,0.0,0.0,0.0,0.0,2.1136,0.0,0.0,0.0,2.2645,2.3086,2.2886,2.2926,2.3166,2.322,2.338,2.3621,2.3674,2.3834,2.4048,2.4102,2.4302,2.4569,2.4609,2.4636,2.4663,2.4917,2.5224,2.5518,0.0,0.0,0.0,0.0,0.0,0.0,0.0,3.3189,0.0,3.087,3.4304,3.5584,3.1786,3.3049,3.4063,3.3752,3.4534,3.5547,3.6656,3.9698,4.1088,4.0379,4.1884,0.0,4.1523,3.873,3.6992,3.6348,3.3555,3.1953,0.0,0.0,0.0,0.0,0.0,3.1367,0.0,0.0,0.0,3.416,3.5039,3.5,3.4394,3.4394,3.4121,3.375,3.375,3.3906,3.4023,3.3574,3.3418,3.3418,3.3418,3.3574,3.3809,3.4238,3.4531,3.4707,3.4707,3.4863,3.4941,3.4512,3.4551,3.459,3.418,3.4082,3.3945,3.3516,3.3086,3.2598,3.1953,3.1309,0.0,0.0,0.0,0.0,0.0,0.0,0.0,0.0,0.0,0.0,0.0,0.0,0.0,0.0,0.0,2.6707,2.3684,0.0,0.0,0.0,0.0,0.0,0.0,0.0,0.0,2.3554,2.3407,2.3407,2.3554,2.3554,2.3634,2.3781,2.3928,2.4075,2.4209,2.4369,2.4516,2.4636,2.4636,2.473,2.489,2.5024,2.5358,2.5745,0.0,2.9495,0.0,0.0,3.1504,0.0,3.2441,3.2363,3.1864,3.0942,3.2315,3.2507,3.0603,3.141,3.2722,3.4356,3.4314,3.4907,3.6711,3.8426,3.9423,3.9458,4.0454,4.1227,4.1816,3.8561,3.6823,0.0,3.3926,3.2207,0.0,0.0,0.0,0.0,0.0,0.0,0.0,0.0,3.3555,3.4629,3.5273,3.5254,3.4844,3.4844,3.459,3.4199,3.4199,3.4414,3.459,3.3926,3.3633,3.3535,3.3457,3.3418,3.3496,3.3945,3.4082,3.4082,3.4082,3.4316,3.457,3.457,3.4629,3.4668,3.459,3.4375,3.4082,3.3652,3.3223,3.2695,3.1934,3.1719,0.0,0.0,0.0,0.0,0.0,0.0,0.0,0.0,0.0,0.0,0.0,0.0,0.0,0.0,0.0,2.7006,2.3933,2.44,0.0,0.0,0.0,2.2712,2.2605,0.0,2.4062,0.0,2.3834,2.3808,2.3861,2.3861,2.3901,2.3968,2.4262,2.4422,2.4502,2.473,2.4823,2.4823,2.4823,2.497,2.5184,2.5251,2.5558,2.6037,0.0,0.0,0.0,0.0,0.0,0.0,3.0964,3.1934,3.2465,3.2455,3.2324,3.2135,3.1904,3.2024,3.208,3.207,3.1759,3.1568,3.1481,3.3363,3.5056,3.6522,3.6443,3.8053,4.1718,3.7631,3.5903,0.0,0.0,3.3086,3.1523,0.0,0.0,0.0,0.0,0.0,0.0,3.2871,3.3652,3.4238,3.5469,3.5703,3.5332,3.5332,3.5039,3.4648,3.4648,3.4668,3.4687,3.4609,3.4336,3.3945,3.3535,3.3418,3.3496,3.3945,3.4082,3.4082,3.4082,3.4101,3.4141,3.4141,3.4414,3.459,3.4219,3.4394,3.4531,3.4101,3.3672,3.3223,3.2754,3.2363,3.1973,0.0,0.0,0.0,0.0,0.0,0.0,0.0,0.0,0.0,0.0,0.0,0.0,0.0,0.0,2.7006,2.3933,2.44,2.3327,2.0288,0.0,2.2712,2.3233,2.3621,0.0,2.4556,2.4022,2.3915,2.4168,2.4168,2.4302,2.4569,2.4877,2.5144,2.5398,2.5424,2.5438,2.5438,2.5438,2.5451,2.5504,2.5772,2.5983,2.5999,0.0,0.0,0.0,0.0,0.0,0.0,0.0,3.2091,3.2278,3.2278,3.2171,3.2038,3.1864,3.1837,3.2436,3.3699,3.205,3.2167,3.4894,3.3945,3.4006,3.5787,3.5592,3.6133,3.749,3.5314,3.4591,0.0,0.0,3.3058,3.2656,3.2324,0.0,0.0,0.0,3.2187,3.2734,3.375,3.4297,3.4531,3.5586,3.5762,3.5391,3.5391,3.5273,3.5117,3.5117,3.5273,3.5449,3.5195,3.4824,3.4375,3.3945,3.3809,3.3848,3.4023,3.4082,3.4082,3.4082,3.4082,3.4141,3.4394,3.4394,3.4414,3.4785,3.4785,3.4648,3.4473,3.4101,3.3672,3.3242,3.2832,3.2402,0.0,0.0,0.0,0.0,0.0,0.0,0.0,0.0,0.0,0.0,0.0,0.0,0.0,0.0,0.0,2.3933,2.3552,0.0,2.0288,0.0,2.2806,2.3046,2.3875,2.4409,2.4636,2.4396,2.4356,2.4462,2.4462,2.4623,2.4917,2.5211,2.5411,2.5518,2.5518,2.5518,2.5518,2.5518,2.5625,2.5798,2.5919,2.6066,2.6239,2.8056,0.0,2.9018,0.0,3.1076,3.145,3.2495,3.2291,3.2078,3.1984,3.1971,3.1891,3.169,3.1664,3.2677,3.5059,3.3293,3.3394,3.6674,3.4575,3.3711,3.465,3.3908,0.0,3.5638,3.4296,3.3973,3.4879,3.452,0.0,3.2663,0.0,0.0,0.0,3.2796,3.3125,3.3848,3.459,3.5039,3.5332,3.5957,3.6035,3.5762,3.5625,3.5586,3.5586,3.5586,3.5762,3.5976,3.5684,3.5371,3.5,3.4434,3.4258,3.4258,3.4258,3.4258,3.4258,3.4258,3.4258,3.4355,3.4785,3.4687,3.4629,3.5254,3.5137,3.4863,3.4726,3.457,3.4316,3.3887,3.3555,3.3184,3.2617,0.0,0.0,0.0,0.0,0.0,0.0,0.0,3.0703,0.0,0.0,0.0,0.0,0.0,0.0,0.0,0.0,0.0,0.0,0.0,0.0,0.0,2.4088,2.4636,2.4636,2.4636,2.4676,2.477,2.485,2.505,2.5344,2.5558,2.5692,2.5772,2.5772,2.5772,2.5772,2.5772,2.5892,2.6079,2.6079,2.6213,2.6386,2.9165,2.9927,3.0795,3.2361,3.2759,3.2853,3.2683,3.2291,3.1998,3.1717,3.1677,3.1677,3.1664,3.1664,3.2677,3.5059,3.5024,3.4696,3.4457,3.4127,3.3498,0.0,0.0,3.1826,3.7755,3.5327,3.4423,3.5274,0.0,0.0,3.087,0.0,3.3633,3.4043,3.4043,3.4277,3.4726,3.5176,3.5879,3.6641,3.666,3.666,3.6601,3.6172,3.6016,3.6016,3.6016,3.6016,3.6016,3.6016,3.6016,3.584,3.4961,3.4687,3.4687,3.4687,3.4687,3.4687,3.4687,3.4687,3.4805,3.5273,3.5391,3.5391,3.5391,3.5391,3.5254,3.4785,3.5059,3.5234,3.4766,3.4687,3.4394,3.3535,0.0,0.0,0.0,0.0,0.0,0.0,3.0898,3.0703,3.0234,0.0,0.0,0.0,0.0,0.0,0.0,0.0,0.0,2.1145,2.2245,0.0,2.3313,2.4195,2.4636,2.4636,2.4636,2.4796,2.5077,2.5371,2.5665,2.6023,2.6023,2.6119,2.6373,2.6373,2.6373,2.6373,2.6373,2.6386,2.6386,2.6386,2.6386,2.6386,3.0167,3.0528,3.0929,3.1797,3.2185,3.2345,3.2251,3.2158,3.2064,3.1971,3.1797,3.1664,3.1664,3.1664,3.2677,0.0,3.3479,3.3625,0.0,3.3308,3.1561,3.2438,3.0024,2.9547,3.1256,3.0491,3.0625,3.1732,0.0,0.0,0.0,3.4478,3.5273,3.541,3.541,3.5644,3.6074,3.6504,3.6855,3.707,3.6777,3.668,3.6621,3.6191,3.6016,3.6055,3.6348,3.6269,3.6074,3.6367,3.6269,3.5976,3.5684,3.541,3.5176,3.5176,3.5176,3.5176,3.5176,3.5176,3.5215,3.5351,3.5391,3.5469,3.5762,3.582,3.5781,3.5625,3.5488,3.5351,3.5195,3.4922,3.4512,3.3965,3.3262,0.0,0.0,0.0,0.0,0.0,3.0898,3.084,0.0,3.0664,0.0,0.0,0.0,0.0,0.0,0.0,0.0,0.0,2.2565,0.0,2.3915,2.4596,2.5037,2.5237,2.5237,2.5277,2.5384,2.5678,2.5865,2.605,2.6159,2.6306,2.6386,2.6386,2.6386,2.6386,2.6386,2.6386,2.6386,2.6386,2.6386,2.6413,3.0822,3.1049,3.1303,3.1891,3.2144,3.2265,3.2265,3.2171,3.2064,3.1957,3.1784,3.1664,3.1664,3.1664,0.0,3.5059,3.3665,3.3717,3.6421,3.3337,3.138,3.1354,2.9676,2.9046,2.9537,0.0,0.0,3.0551,3.01,3.1137,3.3483,3.4055,3.4704,3.5495,3.5495,3.6157,3.7168,3.7422,3.7617,3.7734,3.7305,3.7148,3.709,3.6484,3.6269,3.6289,3.6562,3.6484,3.6328,3.6758,3.6621,3.6289,3.6445,3.6211,3.584,3.5684,3.5625,3.5625,3.5625,3.5742,3.5879,3.5879,3.5996,3.6172,3.6445,3.6504,3.6504,3.6504,3.6172,3.5879,3.5879,3.5508,3.5,3.4394,3.3594,3.2832,3.2307,0.0,0.0,0.0,0.0,0.0,0.0,3.1328,0.0,0.0,0.0,0.0,0.0,0.0,0.0,2.2097,2.31,0.0,2.4529,2.501,2.5384,2.5678,2.5785,2.5785,2.5692,2.5985,2.6186,2.6293,2.6466,2.6613,2.672,2.672,2.672,2.672,2.672,2.672,2.6707,2.6587,2.6627,2.6734,3.1169,3.145,3.1824,0.0,3.2616,0.0,3.2643,3.2305,3.2024,3.1744,3.1704,3.169,3.1677,3.1664,3.2583,3.4872,0.0,0.0,0.0,3.3888,3.2465,2.9561,2.9192,2.9807,3.1519,3.1307,3.1159,3.1159,3.0173,3.0663,3.2589,3.1875,3.2675,3.464,3.4605,3.5705,3.7557,3.7557,3.7842,3.8297,3.787,3.7786,3.7832,3.7031,3.6719,3.6719,3.6738,3.6738,3.6777,3.7207,3.707,3.6777,3.7168,3.7031,3.6641,3.623,3.6094,3.6074,3.6094,3.6387,3.668,3.6699,3.7012,3.7305,3.7305,3.7305,3.7305,3.7305,3.6992,3.6699,3.668,3.6348,3.5762,3.4805,3.3965,3.3125,3.2246,0.0,0.0,0.0,0.0,0.0,0.0,3.207,3.2224,0.0,0.0,0.0,0.0,0.0,2.2405,2.2981,2.3794,2.4556,2.5157,2.5438,2.5732,2.613,2.6319,2.6306,2.6026,2.6319,2.6587,2.6827,2.6841,2.7014,2.7268,2.7268,2.7268,2.7268,2.7268,2.7268,2.7228,2.6961,2.7028,2.7228,0.0,0.0,3.1517,3.2104,3.2211,3.2278,3.2519,3.2492,3.2332,3.2038,3.1998,3.1917,3.169,3.1664,3.1948,3.2489,3.2528,3.2253,3.1716,3.162,3.084,2.9192,2.9072,2.9036,2.9074,2.8992,2.8964,2.8964,3.0277,3.1212,3.1767,3.2857,3.3673,3.4127,3.3859,3.3881,3.4084,3.4084,3.4945,3.6239,3.576,3.6503,3.7871,3.7344,3.7148,3.7187,3.7519,3.7422,3.7207,3.7637,3.75,3.7168,3.7266,3.7226,3.7129,3.7031,3.6758,3.6582,3.6914,3.6836,3.6758,3.707,3.7226,3.7305,3.7305,3.7305,3.7305,3.7305,3.7226,3.7051,3.6738,3.6582,3.6016,3.4473,3.3769,3.3008,3.1836,3.1504,0.0,0.0,3.2031,3.2461,3.2363,3.2324,3.1961,0.0,0.0,0.0,0.0,2.4694,2.3875,2.3638,2.4409,2.5264,2.6066,2.6146,2.644,2.6961,2.7028,2.6907,2.6627,2.6921,2.6974,2.6827,2.7068,2.7201,2.7268,2.7268,2.7268,2.7268,2.7268,2.7268,2.7255,2.7188,2.7201,2.7281,3.157,3.1623,3.181,3.2398,3.2398,3.2398,3.2706,3.2639,3.2492,3.2332,3.2185,3.2038,3.1891,3.1744,3.1664,3.1664,3.1423,3.1129,3.0808,3.0541,3.01,2.9472,2.9312,2.9032,2.8564,2.8417,2.8283,2.8221,2.937,2.9941,2.9926,3.0898,3.1782,3.2503,3.233,3.2427,3.2879,3.2879,3.3355,3.4134,3.3851,3.4451,3.5467,3.6027,3.6165,3.6346,3.7474,3.7773,3.7656,3.8066,3.793,3.7617,3.7812,3.7734,3.7617,3.7832,3.7441,3.7012,3.7226,3.7266,3.7344,3.7773,3.7891,3.7891,3.7891,3.7891,3.7891,3.7891,3.7715,3.7519,3.7285,3.6758,3.5937,3.457,3.3672,3.2754,3.166,3.1348,0.0,3.2031,3.2676,3.3242,3.3633,3.3192,3.2347,3.1205,0.0,0.0,2.625,2.5672,2.5104,2.4396,2.5344,2.6172,2.6787,2.6921,2.7081,2.7268,2.7402,2.7308,2.7028,2.7188,2.7255,2.7228,2.7388,2.7535,2.7752,2.7752,2.7752,2.7752,2.7752,2.7752,2.7655,2.7509,2.7549,2.7669,3.2051,3.2144,3.2345,3.2879,3.2732,3.2652,3.2986,3.2799,3.271,3.271,3.2398,3.2198,3.2118,3.1877,3.1717,3.1677,3.1169,3.0862,3.0862,3.0354,3.0007,2.9913,2.9633,2.9339,2.9045,2.8751,2.8457,2.8221,2.8221,2.8221,2.8221,2.8221,2.8994,3.0431,3.0431,3.1048,3.2107,3.2107,3.2101,3.213,3.213,3.225,3.2624,3.4027,3.4569,3.479,3.6452,3.7268,3.7615,3.8001,3.8103,3.8086,3.8457,3.8359,3.8184,3.8476,3.8105,3.7578,3.75,3.7793,3.8223,3.8672,3.8769,3.8769,3.8769,3.8769,3.8769,3.8769,3.8476,3.8184,3.8047,3.7031,3.5879,3.4863,3.3633,3.25,3.1641,0.0,3.1601,3.2754,3.3496,3.4089,3.4536,3.4024,3.2895,3.1007,2.9328,2.7792,0.0,2.6543,2.6186,2.5438,2.6373,2.7028,2.7321,2.7615,2.7642,2.7402,2.7642,2.7615,2.7335,2.7375,2.7509,2.7696,2.7749,2.7909,2.8221,2.8221,2.8221,2.8221,2.8221,2.8221,2.8194,2.7856,2.7923,2.8194,3.2091,3.2305,3.2585,3.2919,3.2732,3.2732,3.3267,3.3093,3.2906,3.2906,3.2866,3.2652,3.2158,3.2064,3.1931,3.169,3.1356,3.1156,3.1156,3.0849,3.0434,2.994,2.9633,2.9339,2.9045,2.8751,2.8457,2.8221,2.8221,2.8221,2.8221,2.8221,2.8362,2.856,2.856,2.8536,2.8523,2.8523,2.9229,3.0323,3.0323,3.1151,3.2489,3.2818,3.2877,3.2953,3.3255,3.4439,3.5888,3.5961,3.7087,3.8476,3.8555,3.8769,3.8945,3.8652,3.873,3.8828,3.8476,3.8691,3.9121,3.957,3.9687,3.9687,3.9687,3.9687,3.9687,3.9687,3.9629,3.9355,3.8613,3.7715,3.6582,3.4961,3.3633,3.25,3.1641,0.0,3.2715,3.3262,3.5,3.564,3.4212,3.3983,3.2728,2.97,2.8566,2.7611,2.6479,2.6894,2.7068,2.6934,2.7108,2.7335,2.7629,2.7923,2.814,2.8087,2.814,2.7923,2.7642,2.7896,2.7896,2.7709,2.7963,2.8181,2.8221,2.8221,2.8221,2.8221,2.8221,2.8221,2.8221,2.8181,2.8181,2.8221,3.2545,3.2679,3.2866,3.316,3.3106,3.3106,3.3374,3.3293,3.3213,3.3213,3.308,3.2879,3.2599,3.2291,3.2051,3.1917,3.1637,3.1463,3.1463,3.1049,3.0608,3.0181,3.002,2.9673,2.8971,2.8751,2.8457,2.8221,2.8221,2.8221,2.8221,2.8221,2.8221,2.8221,2.8221,2.7976,2.7696,2.7696,2.8017,2.848,2.848,2.8942,2.9829,3.0901,3.1293,3.1418,3.239,3.3322,3.405,3.3936,3.4544,3.5309,3.5309,3.556,3.5998,3.698,3.8057,3.8867,3.8906,3.9062,3.9316,3.9785,3.9902,3.9902,3.9902,3.9902,3.9902,3.9902,3.9902,3.9766,3.9355,3.8203,3.7109,3.6523,3.457,0.0,0.0,3.3027,3.3091,3.3113,3.539,3.6622,3.5515,3.4406,3.3078,3.1461,2.8827,2.7254,2.6921,2.7121,2.7415,2.7736,2.7819,2.7802,2.7936,2.8154,2.8221,2.8221,2.8221,2.8154,2.7936,2.8167,2.8154,2.7949,2.8167,2.8221,2.8221,2.8221,2.8221,2.8221,2.8221,2.8221,2.8221,2.8221,2.8221,2.8221,3.2933,3.3026,3.3146,3.3374,3.3414,3.3414,3.3414,3.3414,3.3414,3.3414,3.3213,3.3053,3.2986,3.2572,3.2278,3.2211,3.1998,3.1851,3.177,3.1343,3.0942,3.0581,3.0434,3.0007,2.9259,2.8898,2.8564,2.8243,2.8261,2.8221,2.8221,2.8221,2.8221,2.8221,2.8221,2.81,2.7802,2.7802,2.7629,2.7362,2.7362,2.7321,2.75,2.9001,2.9632,2.9764,3.1149,3.1919,3.2262,3.2065,3.2292,3.2676,3.2676,3.2923,3.3498,3.5051,3.6433,3.7724,3.9077,3.9512,3.9609,4.0078,4.0195,4.0195,4.0195,4.0195,4.0195,4.0195,4.0195,4.0156,4.0059,3.8789,3.7754,3.7773,0.0,0.0,0.0,3.2963,3.2736,3.3069,3.5042,3.6331,3.6029,3.425,3.2729,3.1905,2.8896,2.7201,2.7362,2.7428,2.7752,2.8207,2.8221,2.8221,2.8221,2.8221,2.8221,2.8221,2.8221,2.8221,2.8221,2.8221,2.8221,2.8221,2.8221,2.8221,2.8221,2.8221,2.8221,2.8221,2.8221,2.8221,2.8221,2.8221,2.8221,2.8221,3.2973,3.32,3.3387,3.3414,3.3414,3.3414,3.3414,3.3414,3.3414,3.3414,3.3387,3.328,3.3013,3.2933,3.2799,3.2532,3.2589,3.2372,3.2091,3.2024,3.1757,3.1183,3.0648,3.0207,2.986,2.9299,2.8871,2.8577,2.8283,2.8221,2.8221,2.8221,2.8221,2.8221,2.8221,2.8221,2.8194,2.8194,2.7936,2.7669,2.7669,2.7509,2.735,2.7418,2.75,2.75,2.7636,2.8892,3.0455,3.044,3.1762,3.3339,3.3339,3.3585,3.3878,3.3644,3.3686,3.4752,3.9184,4.043,4.0527,4.0976,4.1074,4.1074,4.1074,4.1074,4.1074,4.1074,4.1074,4.0957,4.0547,3.9707,3.8691,3.7539,0.0,0.0,3.1931,3.0874,3.1152,3.3768,3.3861,3.383,3.4183,3.2608,3.0622,2.8304,2.8133,2.7936,2.7682,2.7923,2.8181,2.8221,2.8221,2.8221,2.8221,2.8221,2.8221,2.8221,2.8221,2.8221,2.8221,2.8221,2.8221,2.8221,2.8221,2.8221,2.8221,2.8221,2.8221,2.8221,2.8221,2.8221,2.8221,2.8221,2.8221,2.8221,3.324,3.3334,3.3414,3.3414,3.3414,3.3414,3.3414,3.3414,3.3414,3.3414,3.3414,3.3374,3.3253,3.3093,3.2933,3.2826,3.275,3.2589,3.2385,3.2211,3.1837,3.1249,3.0849,3.0408,2.9927,2.97,2.9352,2.8871,2.8577,2.843,2.843,2.8315,2.8221,2.8221,2.8221,2.8221,2.8221,2.8221,2.8167,2.7976,2.7976,2.7993,2.7899,2.7899,2.7899,2.7872,2.7602,2.8016,2.8618,2.8518,2.892,2.9646,2.9646,2.985,3.0372,3.1721,3.3113,3.4592,3.642,3.6693,3.692,3.8693,3.9119,3.9531,4.0919,4.1172,4.1172,4.1172,4.1172,4.1113,4.0957,4.0215,3.9648,3.9687,0.0,3.4019,3.4288,3.2606,3.1264,3.1293,3.2751,3.3418,3.2476,3.1811,3.1017,3.0087,2.8895,2.8181,2.7976,2.8167,2.8221,2.8221,2.8221,2.8221,2.8221,2.8221,2.8221,2.8221,2.8221,2.8221,2.8221,2.8221,2.8221,2.8221,2.8221,2.8221,2.8221,2.8221,2.8221,2.8221,2.8221,2.8221,2.8221,2.8221,2.8221,2.8221,3.3414,3.3414,3.3414,3.3414,3.3414,3.3414,3.3414,3.3414,3.3414,3.3414,3.3414,3.3414,3.3414,3.324,3.312,3.312,3.2933,3.2786,3.2692,3.2398,3.1984,3.1396,3.1089,3.0742,3.0341,3.006,2.9713,2.9312,2.8845,2.8604,2.8604,2.8283,2.8221,2.8221,2.8221,2.8221,2.8221,2.8221,2.8221,2.8221,2.8221,2.8221,2.8221,2.8221,2.8221,2.8207,2.7909,2.7843,2.7802,2.7602,2.7535,2.7535,2.7535,2.7682,2.8203,2.9869,3.149,3.2628,3.2628,3.2457,3.3128,3.6931,3.7896,3.8469,4.0685,4.0685,4.0353,4.1094,4.0099,3.961,4.0938,4.0125,3.9606,4.0646,3.7254,3.4574,3.4994,3.2455,3.0432,3.0052,3.13,3.1956,3.146,3.0744,3.0426,3.0426,2.9034,2.8221,2.8221,2.8221,2.8221,2.8221,2.8221,2.8221,2.8221,2.8221,2.8221,2.8221,2.8221,2.8221,2.8221,2.8221,2.8221,2.8221,2.8221,2.8221,2.8221,2.8221,2.8221,2.8221,2.8221,2.8221,2.8221,2.8221,2.8221,2.8221,3.3414,3.3414,3.3414,3.3414,3.3414,3.3414,3.3414,3.3414,3.3414,3.3414,3.3414,3.3414,3.3414,3.3414,3.3414,3.3414,3.3414,3.3293,3.3,3.2706,3.2388,3.1704,3.1396,3.1223,3.1223,3.0368,2.9927,2.9913,2.9045,2.8617,2.8604,2.8297,2.8234,2.8234,2.8234,2.8234,2.8221,2.8221,2.8221,2.8221,2.8221,2.8221,2.8221,2.8221,2.8221,2.8221,2.8221,2.8221,2.8221,2.8221,2.8221,2.8221,2.8221,2.8221,2.8221,2.8221,2.8221,2.8221,2.8234,2.8234,2.9788,3.6184,3.7816,3.8469,4.0685,3.9453,3.8469,4.0685,3.7755,3.604,4.0353,3.9374,3.8291,3.9641,3.6415,3.3541,3.2945,2.9683,2.8262,3.0721,2.934,2.9048,3.1159,2.9453,2.8234,2.8234,2.8234,2.8234,2.8234,2.8234,2.8234,2.8234,2.8234,2.8234,2.8221,2.8221,2.8221,2.8221,2.8221,2.8221,2.8221,2.8221,2.8221,2.8221,2.8221,2.8221,2.8221,2.8221,2.8221,2.8221,2.8221,2.8221,2.8221,2.8221,2.8221,2.8221,3.3414,3.3414,3.3414,3.3414,3.3414,3.3414,3.3414,3.3414,3.3414,3.3414,3.3414,3.3414,3.3414,3.3414,3.3414,3.3414,3.3414,3.3293,3.3,3.2906,3.2679,3.2402,3.1998,3.165,3.1236,3.0768,3.0434,3.0221,2.9553,2.9219,2.9219,2.8911,2.8657,2.847,2.847,2.835,2.8221,2.8221,2.8221,2.8221,2.8221,2.8221,2.8221,2.8221,2.8221,2.8221,2.8221,2.8221,2.8221,2.8221,2.8221,2.8221,2.8221,2.8221,2.8221,2.8221,2.8221,2.8274,2.8417,2.847,2.9239,3.2525,3.3349,3.392,3.6121,3.6229,3.6093,3.676,3.5848,3.5358,3.6679,3.6212,3.5794,3.6226,3.3936,3.2042,3.1853,2.9599,2.8244,2.898,2.8587,2.8555,2.9352,2.8883,2.8551,2.8751,2.8764,2.8764,2.8764,2.8764,2.8684,2.847,2.847,2.8364,2.8234,2.8221,2.8221,2.8221,2.8221,2.8221,2.8221,2.8221,2.8221,2.8221,2.8221,2.8221,2.8221,2.8221,2.8221,2.8221,2.8221,2.8221,2.8221,2.8221,2.8221,2.8221,3.3414,3.3414,3.3414,3.3414,3.3414,3.3414,3.3414,3.3414,3.3414,3.3414,3.3414,3.3414,3.3414,3.3414,3.3414,3.3414,3.3414,3.3334,3.316,3.3146,3.3026,3.2732,3.2545,3.2171,3.1583,3.1289,3.0996,3.0702,3.0114,2.9766,2.9646,2.9352,2.9058,2.8778,2.8778,2.8671,2.8484,2.8377,2.8323,2.831,2.8274,2.8221,2.8221,2.8221,2.8221,2.8221,2.8221,2.8221,2.8221,2.8221,2.8221,2.8221,2.8221,2.8221,2.8248,2.8283,2.8323,2.839,2.8698,2.8778,2.9068,3.0198,3.1124,3.2366,3.4505,3.4502,3.4247,3.5063,3.3913,3.3259,3.4897,3.4403,3.3962,3.4719,3.3104,3.1736,3.1601,2.9719,2.8364,2.8484,2.839,2.8444,2.8751,2.8778,2.8858,2.9032,2.9045,2.9045,2.9045,2.9045,2.8911,2.8617,2.8604,2.8457,2.8234,2.8221,2.8221,2.8221,2.8221,2.8221,2.8221,2.8221,2.8221,2.8221,2.8221,2.8221,2.8221,2.8221,2.8221,2.8221,2.8221,2.8221,2.8221,2.8221,2.8221,2.8221,3.3414,3.3414,3.3414,3.3414,3.3414,3.3414,3.3414,3.3414,3.3414,3.3414,3.3414,3.3414,3.3414,3.3414,3.3414,3.3414,3.3414,3.3414,3.3414,3.3414,3.3293,3.3026,3.3013,3.2759,3.2198,3.1851,3.153,3.1223,3.0675,3.0247,2.9953,2.9686,2.9392,2.9085,2.9085,2.9072,2.9018,2.8764,2.8644,2.8617,2.8337,2.8301,2.8301,2.8274,2.8288,2.8301,2.8274,2.8288,2.8301,2.8274,2.8248,2.8234,2.8261,2.8274,2.8328,2.8551,2.8644,2.8711,2.9005,2.9085,2.9085,2.9152,3.0662,3.2669,3.453,3.3445,3.2639,3.4594,3.1927,3.033,3.4224,3.336,3.2574,3.4301,3.3099,3.1934,3.1553,2.9872,2.8751,2.9005,2.8804,2.8764,2.9045,2.9125,2.9165,2.9192,2.9192,2.9192,2.9165,2.9152,2.9018,2.8698,2.8684,2.8537,2.8315,2.8301,2.8274,2.8221,2.8221,2.8221,2.8221,2.8221,2.8221,2.8221,2.8221,2.8221,2.8221,2.8221,2.8221,2.8221,2.8221,2.8221,2.8221,2.8221,2.8221,2.8221,3.3414,3.3414,3.3414,3.3414,3.3414,3.3414,3.3414,3.3414,3.3414,3.3414,3.3414,3.3414,3.3414,3.3414,3.3414,3.3414,3.3414,3.3414,3.3414,3.3414,3.3387,3.332,3.332,3.3146,3.2799,3.2051,3.153,3.1223,3.0875,3.0555,3.0261,3.0194,2.9887,2.9392,2.9392,2.9259,2.9032,2.8965,2.8951,2.8938,2.8871,2.8845,2.8818,2.8591,2.8644,2.8818,2.8591,2.8657,2.8804,2.8577,2.8337,2.8274,2.843,2.8511,2.8564,2.8858,2.8951,2.9005,2.9312,2.9392,2.9499,2.9953,3.042,3.0822,3.0765,3.0585,3.0657,3.1324,3.0766,3.0263,3.097,3.0558,3.0134,3.0335,3.0004,2.9685,2.9617,2.9198,2.8965,2.9032,2.8991,2.9058,2.9352,2.9806,3.0167,3.0394,3.0408,3.0314,3.0087,3.0074,2.9833,2.9312,2.9299,2.9152,2.8845,2.8845,2.8604,2.8221,2.8221,2.8221,2.8221,2.8221,2.8221,2.8221,2.8221,2.8221,2.8221,2.8221,2.8221,2.8221,2.8221,2.8221,2.8221,2.8221,2.8221,2.8221,3.3414,3.3414,3.3414,3.3414,3.3414,3.3414,3.3414,3.3414,3.3414,3.3414,3.3414,3.3414,3.3414,3.3414,3.3414,3.3414,3.3414,3.3414,3.3414,3.3414,3.3414,3.3414,3.3414,3.328,3.2986,3.2532,3.2078,3.1637,3.1356,3.1062,3.0768,3.0768,3.0541,3.01,2.9967,2.982,2.9646,2.9366,2.9245,2.9245,2.9098,2.9045,2.9018,2.8871,2.8911,2.9018,2.8871,2.8911,2.9018,2.8858,2.8711,2.8604,2.8764,2.8818,2.8898,2.9325,2.9459,2.9553,2.9993,3.0114,3.0181,3.0488,3.0568,3.0488,3.0181,3.0221,3.0381,3.0541,3.0568,3.0515,3.0368,3.0207,3.0007,2.9713,2.978,2.9833,2.9686,2.9673,2.9726,2.986,2.9753,2.978,3.0074,3.0381,3.0635,3.0782,3.0795,3.0728,3.0568,3.0568,3.0301,2.9713,2.9686,2.9486,2.9045,2.9045,2.8885,2.8564,2.843,2.8364,2.8364,2.8301,2.8221,2.8221,2.8221,2.8221,2.8221,2.8221,2.8221,2.8221,2.8221,2.8221,2.8221,2.8221,2.8221,2.8221,3.3494,3.3494,3.3494,3.3494,3.3494,3.3494,3.3494,3.3454,3.3414,3.3414,3.3414,3.3414,3.3414,3.3414,3.3414,3.3414,3.3414,3.3414,3.3414,3.3414,3.3414,3.3414,3.3414,3.3293,3.3053,3.3,3.2692,3.2104,3.1917,3.161,3.1223,3.1276,3.1116,3.0782,3.0541,3.0434,3.0408,2.9913,2.9713,2.9686,2.9432,2.9312,2.9259,2.9205,2.9192,2.9179,2.9125,2.9112,2.9125,2.9232,2.9192,2.9125,2.9232,2.9272,2.9366,2.9913,3.006,3.0167,3.0662,3.0795,3.0808,3.0849,3.0862,3.0889,3.0996,3.0942,3.0875,3.0929,3.0942,3.0929,3.0875,3.0862,3.0768,3.0488,3.0635,3.0715,3.0474,3.0434,3.0528,3.0768,3.0581,3.0541,3.0835,3.1232,3.1337,3.0942,3.1299,3.1365,3.0862,3.0862,3.0621,3.0087,3.002,2.9753,2.9272,2.9219,2.9192,2.9192,2.8898,2.8724,2.8671,2.8364,2.8301,2.8301,2.8248,2.8221,2.8221,2.8221,2.8221,2.8221,2.8221,2.8221,2.8221,2.8221,2.8221,2.8221,3.3828,3.3828,3.3828,3.3828,3.3828,3.3828,3.3828,3.3587,3.3414,3.3414,3.3414,3.3414,3.3414,3.3414,3.3414,3.3414,3.3414,3.3414,3.3414,3.3414,3.3414,3.3414,3.3414,3.3387,3.336,3.3106,3.2692,3.2104,3.2318,3.2011,3.1236,3.149,3.1316,3.0795,3.0755,3.0742,3.0728,3.0648,3.0608,3.0608,3.0568,3.0408,3.0154,2.99,2.9793,2.9766,2.9513,2.9419,2.9499,3.0007,2.9847,2.9513,3.002,3.0181,3.0247,3.0581,3.0675,3.0688,3.0768,3.0795,3.0849,3.1102,3.1169,3.1303,3.181,3.153,3.1236,3.1503,3.1557,3.1476,3.1209,3.1169,3.1076,3.0782,3.0768,3.0782,3.0742,3.0742,3.0755,3.0795,3.0755,3.0849,3.1142,3.3066,3.3536,3.1719,3.3463,3.3615,3.1263,3.1169,3.1009,3.0688,3.0434,3.0261,3.0181,2.9927,2.9793,2.9793,2.9499,2.9232,2.8965,2.8684,2.8537,2.8524,2.8257,2.8221,2.8221,2.8221,2.8221,2.8221,2.8221,2.8221,2.8221,2.8221,2.8221,2.8221,3.4122,3.4122,3.4122,3.4122,3.4002,3.3881,3.3881,3.3761,3.3614,3.3427,3.3561,3.3614,3.3427,3.3414,3.3414,3.3414,3.3414,3.3414,3.3414,3.3414,3.3414,3.3414,3.3414,3.3414,3.3414,3.328,3.3013,3.2585,3.2559,3.2345,3.1957,3.1931,3.177,3.1503,3.1183,3.1036,3.1022,3.0862,3.0795,3.0795,3.0795,3.0715,3.0581,3.0461,3.0408,3.0394,3.0261,3.0221,3.0261,3.0515,3.0434,3.0261,3.0528,3.0595,3.0662,3.0942,3.1156,3.1316,3.1476,3.165,3.1797,3.1931,3.1957,3.2038,3.2291,3.2144,3.1957,3.1917,3.1784,3.1623,3.1503,3.1476,3.1436,3.1303,3.1423,3.1463,3.1303,3.1423,3.153,3.153,3.153,3.157,3.1704,3.3758,3.4725,3.3765,3.4686,3.4813,3.3579,3.2203,3.1343,3.1049,3.0755,3.0528,3.0354,3.006,2.9913,2.9913,2.978,2.9566,2.9272,2.8978,2.8764,2.8604,2.8457,2.831,2.8221,2.8221,2.8221,2.8221,2.8221,2.8221,2.8221,2.8221,2.8221,2.8221]}]]